GFSSE_sfc_rhum_009.txt.gz
RH
65 74 92 89 89 90 90 91 90 88 88 87 86 87 86 82 84 83 82 80 75 75 70 67 69 68 71 68 70 74 77 80 80 77 73 67 68 73 76 85 87 56 85
65 75 91 90 90 90 87 88 87 88 87 86 85 86 85 84 83 81 82 78 78 73 69 66 67 71 72 78 77 77 78 80 84 82 79 68 66 68 75 82 82 66 86
67 72 74 91 91 90 86 87 86 87 85 84 84 84 80 79 78 81 79 78 73 66 65 68 66 71 79 83 83 83 83 84 82 83 82 50 48 71 73 83 84 84 85
66 70 73 90 90 91 92 90 89 86 85 85 83 82 80 79 80 79 79 76 70 69 66 68 69 67 75 77 81 82 81 84 87 87 57 52 55 75 72 80 81 80 82
65 69 73 89 89 88 90 91 92 91 91 90 87 84 82 81 80 80 78 73 73 72 70 70 70 76 84 86 83 83 85 84 84 70 59 59 57 66 71 78 81 84 86
61 68 82 91 89 86 85 86 88 90 92 91 89 86 82 80 79 79 79 78 77 76 77 76 79 84 88 86 82 82 84 85 80 58 56 62 62 74 78 81 83 84 85
62 68 65 91 87 86 81 83 86 89 91 91 89 87 84 82 78 75 75 79 80 81 81 83 82 81 81 79 81 82 84 87 62 55 55 62 69 74 72 78 83 84 84
58 65 65 83 87 86 85 86 88 89 89 89 89 88 85 86 85 83 83 81 80 79 79 82 84 86 86 89 89 90 92 91 71 71 71 74 82 79 70 75 80 85 84
63 62 64 61 69 88 86 86 88 89 89 88 88 89 88 89 86 82 81 79 77 78 78 80 82 82 82 82 80 81 88 88 69 70 67 60 80 77 74 74 79 79 82
66 63 69 67 61 65 64 86 89 90 91 89 87 86 87 88 83 80 75 76 77 78 78 78 79 80 79 81 82 82 82 78 62 66 67 62 79 74 75 81 78 82 82
72 67 69 69 66 66 63 68 80 87 90 92 85 87 82 64 65 64 76 78 78 76 76 77 79 79 77 76 79 80 75 51 52 50 53 80 76 72 71 81 81 82 84
70 72 67 72 71 70 56 66 69 68 66 72 72 76 68 73 69 68 74 79 79 78 80 82 81 79 63 51 54 68 54 62 56 56 51 87 81 75 71 72 73 79 82
61 65 68 75 77 73 64 62 62 62 67 70 80 79 77 74 74 70 69 66 70 77 66 69 68 68 73 70 67 67 61 60 54 55 65 87 78 75 74 72 73 72 78
67 65 69 74 80 81 70 67 66 65 67 68 70 80 79 75 77 76 68 69 75 71 76 76 76 78 73 72 68 66 61 57 47 49 52 76 65 57 57 60 66 72 74
63 66 71 78 79 75 75 71 74 74 71 71 73 76 75 73 76 71 70 70 72 71 72 73 72 63 59 55 57 55 50 52 53 39 37 67 67 60 60 60 60 64 72
57 61 68 69 71 67 66 74 72 74 73 73 73 74 80 75 76 70 69 67 68 69 68 74 66 55 54 54 55 52 48 46 50 48 33 37 65 68 73 70 69 68 69
53 54 62 65 68 70 65 61 58 56 61 66 69 76 75 75 72 74 70 69 66 69 76 68 62 58 52 50 51 51 48 48 47 45 38 36 37 66 75 70 73 73 64
46 51 56 55 62 67 66 60 56 53 56 53 55 59 67 68 69 71 66 66 64 72 71 66 59 52 44 44 44 40 40 41 44 42 38 39 35 35 54 67 67 62 62
42 46 51 57 56 59 60 57 62 64 58 53 55 52 59 64 68 68 63 61 66 62 68 64 59 56 44 43 40 40 42 39 42 34 40 41 46 43 39 63 68 66 61
40 45 47 48 53 57 51 52 45 45 44 47 46 46 53 52 64 65 60 66 63 56 58 59 60 52 46 43 35 35 43 42 42 42 38 31 39 44 42 45 41 40 67
43 43 41 42 47 45 39 39 37 39 37 37 36 42 47 46 54 60 57 60 63 61 58 59 58 61 51 52 50 45 45 49 50 41 40 39 36 44 45 43 33 30 30
39 38 34 33 36 34 34 37 40 41 38 39 42 46 45 48 47 49 58 55 57 58 64 64 64 55 53 54 47 45 44 41 44 46 40 41 50 38 36 33 35 35 34
38 40 35 37 39 43 45 38 39 42 42 38 34 36 39 48 48 50 53 55 57 58 60 63 64 62 54 52 56 45 46 45 39 44 50 37 48 37 34 32 36 33 38
46 51 45 45 42 44 48 44 49 42 41 41 44 41 44 50 51 49 53 57 59 60 62 62 56 63 61 54 58 53 57 49 44 42 42 41 38 36 39 37 35 34 37
50 53 51 46 45 48 48 49 46 49 46 46 46 48 48 49 51 53 56 60 62 60 62 66 66 68 59 56 56 57 52 46 50 39 40 36 37 37 38 39 37 41 35
49 53 53 48 45 48 50 47 53 56 55 52 50 49 46 47 50 57 57 63 64 64 65 63 61 63 61 59 58 53 47 44 41 46 49 50 54 45 38 36 40 37 38

GFSSE_sfc_rhum_012.txt.gz
RH
41 50 90 88 86 87 88 86 86 85 87 84 85 87 86 85 84 84 81 83 74 71 68 67 67 68 68 71 73 72 73 75 70 68 69 66 67 70 74 81 81 48 83
40 49 91 88 88 86 87 85 84 85 83 83 83 83 86 83 81 80 78 74 72 69 66 68 66 69 73 82 82 82 80 82 80 77 71 68 61 67 72 77 74 62 83
39 46 52 89 89 87 87 85 85 83 82 83 82 79 78 80 80 77 78 77 72 68 65 66 67 74 78 78 80 81 80 80 83 82 76 37 32 68 70 77 76 80 82
40 45 49 90 90 91 89 88 88 84 84 83 81 80 78 78 78 79 77 73 71 69 67 66 70 75 81 82 79 79 78 76 80 78 42 38 33 69 71 76 78 79 81
38 41 54 88 89 90 91 91 91 88 87 86 84 83 81 80 79 79 76 75 75 74 75 75 76 81 84 83 80 79 82 79 77 65 37 42 38 55 70 73 77 79 82
31 36 71 88 87 85 84 85 86 88 88 88 86 83 80 79 78 72 75 77 76 78 77 77 78 78 80 79 76 76 78 80 82 36 39 45 47 63 68 76 82 81 84
30 36 39 88 84 81 78 80 83 86 88 86 85 83 83 78 77 79 78 80 81 81 80 82 82 80 80 86 86 86 84 82 50 38 38 40 50 80 70 73 81 82 83
33 39 39 76 83 84 81 82 85 84 84 84 85 85 84 84 82 81 80 79 78 77 78 80 85 86 85 82 79 82 88 87 52 43 46 44 79 78 71 71 80 81 83
32 34 37 38 59 86 84 85 87 87 84 82 84 84 85 86 82 79 78 76 76 77 76 77 79 80 79 78 76 76 80 81 52 47 46 40 81 74 73 72 74 80 82
37 34 40 43 39 44 44 81 86 85 87 84 81 80 82 83 78 76 68 74 75 75 75 76 77 77 77 78 78 76 75 72 42 43 41 50 77 73 71 78 82 85 82
39 44 45 41 45 46 41 51 76 84 86 87 78 80 74 44 48 48 74 74 74 73 75 76 75 73 70 74 76 77 77 36 40 35 34 80 78 72 69 73 79 86 88
44 44 43 51 50 50 37 46 47 45 42 48 50 56 47 55 53 56 66 76 75 75 72 75 77 76 68 32 35 62 33 41 36 36 35 85 82 75 72 72 73 75 78
36 39 44 55 58 54 42 38 35 36 41 44 58 58 53 56 53 50 48 44 47 64 43 46 46 37 46 45 38 42 38 41 31 32 48 70 60 58 60 64 69 73 78
33 38 44 51 59 61 42 37 38 39 40 43 45 62 58 51 53 54 46 44 46 41 49 45 42 53 52 45 42 40 38 33 25 28 42 62 60 54 53 55 57 63 72
37 41 46 52 59 53 55 43 48 50 42 48 48 50 57 52 53 49 47 43 42 40 42 44 42 43 40 37 35 36 33 34 35 26 26 56 63 65 62 60 61 62 66
37 39 47 53 57 45 44 50 47 46 44 46 42 43 57 57 51 45 42 38 36 35 37 40 40 40 35 35 34 37 35 31 31 34 23 33 61 70 66 63 68 68 66
33 35 46 52 48 46 44 42 38 34 40 36 36 46 52 54 48 50 41 39 36 37 45 46 46 43 39 31 33 33 33 35 31 34 28 26 38 73 68 65 61 60 59
28 33 41 43 41 44 40 37 33 31 37 33 35 39 46 49 51 51 42 41 40 42 40 40 40 38 38 34 32 28 28 29 32 33 30 30 26 22 63 66 59 57 61
24 32 39 44 37 37 39 35 38 43 37 30 33 30 36 41 44 47 41 40 46 42 41 41 40 41 40 33 30 29 30 29 29 25 29 34 35 30 25 64 62 59 55
30 36 38 36 36 40 34 36 29 29 28 29 26 26 32 32 40 42 40 45 46 45 43 40 46 40 39 38 26 25 29 30 30 30 30 27 28 35 33 33 33 36 55
34 35 32 36 37 30 26 27 25 27 26 26 26 34 37 35 38 42 38 41 42 43 47 51 48 51 47 41 42 36 34 35 40 32 30 28 28 31 34 34 27 23 27
33 31 28 26 29 27 24 28 32 35 30 32 30 33 31 36 35 34 40 40 40 40 46 49 53 52 48 45 46 41 40 33 33 36 33 32 36 29 32 32 30 30 28
34 34 29 31 33 36 34 27 27 27 29 27 30 28 30 34 33 36 37 40 44 42 40 45 47 51 50 47 48 49 44 42 34 30 41 34 38 36 31 31 31 30 30
40 38 34 33 31 33 37 32 39 33 34 34 34 31 33 35 35 33 36 41 44 42 46 44 39 48 51 51 46 42 50 47 44 43 38 40 37 38 39 32 30 32 32
37 40 38 34 34 35 35 39 37 40 37 35 36 39 36 32 32 32 37 46 48 46 48 55 58 58 52 53 51 50 62 52 51 55 43 46 36 34 31 35 36 34 34
36 40 40 35 34 38 40 40 45 47 45 40 38 36 32 32 31 35 38 48 52 52 54 54 58 64 63 64 59 57 57 65 61 59 52 46 44 38 33 35 37 36 36

GFSSE_sfc_rhum_018.txt.gz
RH
56 68 89 86 87 87 86 87 88 89 88 89 88 88 85 83 82 80 79 78 76 70 69 70 70 77 79 80 81 81 81 85 86 84 80 71 66 67 74 80 78 64 80
55 69 93 89 88 87 86 87 88 88 87 87 88 87 85 82 81 79 76 74 72 69 68 70 71 76 77 77 78 79 80 83 84 84 82 74 72 66 71 83 82 70 79
53 58 71 91 89 88 88 88 86 86 85 84 85 85 83 80 79 77 75 74 73 72 71 69 73 77 77 78 78 78 78 82 83 83 82 71 56 72 71 78 82 82 80
49 58 75 94 92 92 91 90 87 83 82 84 82 80 79 80 79 76 75 76 75 74 73 72 76 78 81 83 81 78 78 81 84 84 69 53 57 76 73 75 75 77 78
52 66 81 93 93 93 93 92 91 89 89 87 85 81 80 79 74 73 76 78 77 75 74 74 75 75 78 79 80 79 78 81 84 78 61 58 78 84 81 72 78 81 82
51 66 85 90 90 89 88 89 88 88 90 88 86 82 79 75 73 77 80 80 77 75 76 78 80 82 85 86 86 86 86 86 86 63 53 72 73 70 76 75 79 79 83
43 58 67 87 86 84 82 82 86 88 88 86 84 82 78 77 78 80 79 78 76 75 76 80 83 83 82 80 78 80 84 86 79 69 62 85 82 76 70 76 79 81 83
35 50 54 82 85 84 84 86 86 86 86 87 86 82 80 78 78 77 77 77 75 75 75 75 78 79 78 76 76 79 80 81 62 60 57 86 82 74 71 76 82 81 83
28 34 48 60 74 82 84 85 86 85 85 85 85 84 83 82 80 76 75 74 74 74 73 72 72 74 74 75 76 79 79 80 78 61 48 76 78 73 71 74 76 79 80
32 33 42 53 55 66 76 84 85 86 84 83 81 81 83 83 82 77 78 75 72 69 70 69 70 71 70 70 74 74 77 78 69 60 72 77 76 71 71 72 74 79 80
31 42 44 39 47 52 63 69 82 83 84 83 81 80 79 70 74 72 74 76 72 71 72 71 70 73 75 77 79 80 78 61 53 45 75 82 73 68 70 72 74 76 78
41 39 44 52 52 48 28 63 66 58 67 68 62 67 62 66 62 56 70 78 78 78 80 80 80 80 79 64 72 80 76 56 50 47 81 77 65 61 61 68 72 74 77
34 37 44 60 56 51 51 46 50 52 57 64 67 65 65 63 71 68 76 77 86 84 78 78 76 80 62 64 62 62 57 51 51 44 68 70 59 53 54 59 62 66 73
34 33 46 56 62 57 51 51 53 53 57 60 62 64 69 70 72 68 67 61 63 60 60 62 62 63 61 61 55 55 52 55 48 48 70 66 59 49 50 54 59 62 66
31 36 40 56 66 60 57 60 61 60 65 62 59 63 67 67 73 70 67 65 64 60 59 61 59 58 60 55 56 53 49 51 50 49 59 63 63 56 55 55 57 61 64
30 35 45 51 64 56 50 56 61 63 63 63 59 59 57 67 72 70 69 66 64 62 62 62 59 62 62 58 56 54 50 48 47 50 48 66 67 69 64 60 60 61 65
31 30 61 80 60 57 48 52 52 51 44 51 53 55 52 57 65 67 70 68 66 66 64 64 63 60 62 55 55 56 55 52 53 50 51 52 63 74 75 68 67 63 60
27 36 34 39 57 59 52 50 46 50 53 50 51 56 54 54 56 65 68 70 68 71 69 69 68 66 64 63 62 61 54 49 50 53 52 51 50 45 74 78 72 64 61
26 30 31 52 52 54 49 44 50 50 52 51 52 49 54 51 58 64 66 70 71 68 70 68 63 69 69 67 58 55 58 56 52 36 46 50 54 48 57 72 76 73 72
37 35 37 50 57 58 48 48 47 47 48 49 48 50 51 50 57 62 62 68 70 65 67 68 73 69 71 69 50 48 54 54 53 60 53 44 50 49 50 60 75 71 74
42 42 44 51 50 45 42 46 50 53 51 49 46 51 50 50 52 59 59 61 62 62 67 66 65 64 64 69 67 62 59 57 58 51 48 56 49 48 50 55 60 52 58
41 40 38 38 43 41 41 45 49 52 49 47 50 49 48 54 52 48 60 60 59 62 66 68 71 68 66 70 72 67 69 59 57 50 50 45 48 43 45 44 48 49 52
47 46 37 39 42 47 50 41 46 47 48 48 50 48 48 54 50 52 56 60 64 65 69 70 65 68 69 68 71 75 74 71 63 57 53 61 76 64 60 49 47 46 51
50 48 41 40 39 42 50 51 60 54 52 54 57 53 50 53 55 46 49 59 65 68 71 69 58 76 76 78 74 71 79 81 91 81 69 66 66 79 62 66 58 51 49
49 52 49 43 38 44 48 54 58 60 60 54 54 59 57 56 54 49 51 61 64 64 67 76 83 81 80 82 83 83 83 80 80 87 90 77 69 80 86 88 88 89 84
48 51 51 44 39 41 44 48 55 60 61 60 60 58 56 53 53 56 54 62 65 72 78 80 84 81 80 79 80 82 83 88 88 92 93 91 94 86 86 89 93 92 89

GFSSE_sfc_rhum_021.txt.gz
RH
88 90 91 89 88 89 90 92 92 92 91 89 87 85 85 82 83 82 81 80 77 72 70 72 77 77 78 77 78 79 80 81 83 80 76 73 65 71 77 80 81 69 81
90 88 92 90 89 90 91 91 91 91 89 85 85 86 85 84 81 77 77 77 75 72 71 72 76 77 76 77 78 78 79 84 85 83 77 74 67 71 76 80 75 79 83
83 84 85 92 91 91 89 90 89 88 84 84 84 86 85 80 78 77 77 78 76 74 72 72 76 78 79 82 81 79 78 81 85 84 79 73 71 72 77 77 84 80 79
79 87 88 93 93 93 91 89 87 85 84 86 84 82 82 80 78 76 78 80 76 74 73 73 74 75 78 80 80 80 80 80 84 83 78 65 61 82 82 90 77 82 83
91 91 91 95 95 94 93 93 92 91 90 88 87 82 79 75 75 77 80 83 77 74 73 74 76 78 83 86 86 85 84 84 87 80 77 72 87 70 67 75 77 79 82
94 96 94 94 93 92 92 91 91 91 91 90 88 80 76 75 78 81 81 77 75 74 75 78 82 84 84 83 80 79 81 83 86 87 74 77 81 70 72 76 76 81 83
92 91 89 91 90 88 86 86 90 91 90 90 87 85 79 78 79 80 80 77 75 74 75 76 78 80 81 81 78 80 80 81 77 77 79 91 88 72 74 72 76 80 81
76 84 80 86 87 87 87 87 88 89 90 90 88 86 80 80 82 79 78 76 75 74 72 72 74 74 76 78 79 81 81 81 68 77 79 91 82 74 72 72 79 82 81
61 74 84 83 81 87 87 87 87 87 88 88 86 86 84 84 83 82 79 75 73 72 70 70 71 75 75 77 81 82 83 82 84 70 65 89 81 73 71 75 76 78 81
52 60 72 79 80 88 89 87 87 86 84 82 82 84 83 82 81 80 80 79 75 72 70 69 74 75 77 77 78 79 82 82 67 66 86 92 78 70 70 72 73 76 80
46 53 64 67 75 78 84 80 86 85 85 83 82 82 86 86 83 77 82 80 77 76 76 75 75 76 78 78 76 79 79 82 70 59 87 82 71 64 67 70 73 75 77
51 55 54 55 67 74 52 80 85 79 86 85 82 84 86 84 87 74 79 79 77 78 78 80 82 81 81 82 74 78 84 75 60 56 85 80 66 57 58 63 70 73 76
48 53 60 57 56 56 56 77 82 83 87 85 78 70 69 76 79 78 90 86 92 85 88 83 85 88 83 82 68 70 64 56 60 56 70 74 62 51 52 56 61 64 69
48 53 63 62 58 63 61 64 66 64 72 75 75 68 74 83 73 75 71 66 71 78 85 76 77 67 70 66 68 66 58 55 58 57 70 69 62 49 45 48 54 60 65
44 56 60 64 67 60 58 68 64 74 69 68 72 69 71 78 75 75 76 72 70 69 67 66 65 62 64 60 59 60 59 55 55 57 65 70 67 58 49 47 51 55 61
38 55 68 85 81 67 64 60 66 70 67 72 71 68 66 72 77 78 74 75 72 72 73 72 69 70 71 68 66 60 58 55 51 53 58 66 70 67 63 54 54 55 59
47 68 87 87 83 81 71 56 61 65 50 62 63 62 62 62 65 69 75 78 78 78 75 74 74 76 73 64 67 65 64 61 58 53 52 62 66 73 72 71 61 60 64
52 54 66 72 84 91 78 57 56 57 60 55 62 68 63 62 66 73 72 73 78 77 75 77 80 78 78 77 76 72 69 63 58 56 51 54 59 54 73 75 74 73 67
42 53 69 85 87 83 71 60 64 55 52 57 54 60 57 64 64 67 69 72 76 78 77 77 76 84 81 71 62 59 70 70 68 52 57 56 60 60 60 73 76 80 76
55 53 54 65 76 72 62 54 58 60 57 59 59 59 53 59 59 63 60 66 66 68 71 74 75 71 77 76 53 55 69 74 73 74 66 53 56 56 60 62 70 72 79
46 45 51 56 56 54 52 55 58 58 56 55 54 50 58 56 58 60 67 66 69 68 71 71 77 79 67 77 65 65 78 75 72 68 72 69 63 53 54 61 65 66 68
51 49 48 48 49 51 55 57 60 62 59 60 60 58 60 58 59 49 64 65 68 74 75 78 76 74 79 79 84 79 82 70 68 64 70 71 71 74 66 53 60 62 58
56 50 47 49 50 55 55 59 59 60 62 61 59 58 57 58 54 57 61 68 72 74 80 80 80 82 94 89 88 94 97 93 82 70 67 68 85 88 84 84 69 61 61
62 57 50 48 49 54 55 59 62 68 66 68 67 67 60 57 55 53 59 65 71 75 78 84 82 92 89 94 90 75 84 80 80 78 80 68 72 84 88 94 94 92 84
57 57 53 50 50 54 56 60 66 67 69 68 71 66 64 61 61 56 58 70 78 86 92 93 92 82 82 83 84 83 81 88 94 98 91 88 74 80 92 92 96 96 94
58 57 57 54 51 56 54 61 70 69 67 71 69 71 69 69 69 66 70 81 87 88 89 90 84 81 83 82 80 81 87 85 84 87 92 86 92 88 78 93 96 96 95

GFSSE_sfc_rhum_027.txt.gz
RH
95 97 92 92 92 94 95 95 94 92 88 84 82 82 80 80 79 80 80 82 80 75 75 76 77 77 77 77 78 78 78 80 81 78 76 72 69 61 71 80 79 80 78
96 95 94 92 92 93 93 94 93 90 86 83 83 81 81 80 80 79 78 76 73 72 73 74 75 75 76 77 78 78 78 80 80 79 75 72 70 62 68 76 81 81 80
95 92 92 94 93 93 92 91 90 85 83 84 83 81 80 79 78 77 78 77 74 69 67 68 70 72 76 79 81 81 81 81 81 81 73 76 88 68 62 74 80 79 79
91 93 94 95 94 93 92 91 88 83 82 84 82 81 79 77 77 78 79 76 70 68 67 68 70 74 77 78 77 76 75 76 79 78 82 75 74 70 62 67 70 73 78
97 97 96 95 94 93 92 91 90 89 89 87 83 78 75 76 77 76 77 75 71 68 68 68 69 73 76 77 77 75 74 75 76 72 81 84 89 74 70 64 70 74 78
96 98 98 97 95 94 92 91 91 92 92 89 84 76 76 76 74 75 75 73 69 67 66 66 70 71 75 76 75 74 76 78 75 78 90 87 84 65 60 63 76 81 78
94 99 97 97 95 93 88 89 91 92 91 89 86 83 77 75 74 75 74 71 69 68 64 63 65 68 71 76 74 76 79 81 83 76 78 94 93 76 70 72 80 78 78
98 98 96 94 94 92 91 92 93 92 90 89 88 85 78 78 78 75 72 70 67 64 63 64 68 69 72 75 76 78 80 82 71 72 82 95 88 79 69 71 77 79 79
96 97 97 96 93 92 92 91 90 89 88 87 87 86 84 85 83 80 77 71 67 66 66 69 72 74 75 77 78 80 82 80 76 73 68 93 85 71 65 66 73 78 81
94 95 95 94 94 94 94 90 89 89 88 86 85 84 82 82 83 82 81 79 75 71 71 73 75 77 78 80 82 82 84 77 76 68 82 95 81 75 70 72 72 77 80
81 92 94 95 93 93 90 85 87 85 86 87 84 82 86 88 87 84 85 81 78 76 76 78 81 83 84 85 84 82 80 80 76 66 68 77 77 72 66 64 71 76 78
75 79 89 91 87 88 69 88 90 85 89 88 87 88 90 92 92 83 84 84 84 85 84 84 85 86 87 93 90 82 81 75 73 62 62 71 76 68 59 60 62 66 71
62 68 74 78 84 84 75 92 93 93 93 92 89 92 93 91 95 96 97 95 95 80 90 87 83 87 80 85 84 82 80 76 74 65 59 69 73 62 55 53 55 57 64
65 64 68 78 82 82 81 87 88 90 87 90 91 90 94 90 86 87 84 82 84 84 81 81 82 76 75 74 74 74 73 75 74 68 67 72 74 64 56 54 52 54 61
62 63 69 77 81 77 78 85 86 85 87 87 90 82 84 80 83 84 83 84 84 85 87 83 81 80 80 77 75 74 73 74 73 72 73 72 74 69 63 56 54 53 54
57 62 76 78 81 75 76 77 80 84 86 86 85 81 79 84 84 82 82 80 80 84 81 82 81 81 78 77 72 72 70 74 74 72 71 71 72 73 70 64 58 54 53
60 58 82 86 88 80 76 75 82 79 78 85 78 77 76 79 82 83 80 78 81 78 73 75 73 74 74 72 74 73 73 72 66 73 74 71 70 71 74 72 67 65 61
64 76 90 84 85 90 86 76 73 67 73 73 79 81 76 74 73 75 76 78 78 76 76 78 78 79 80 82 82 74 74 72 70 73 73 76 76 66 68 70 71 70 70
82 92 95 95 92 90 83 85 71 71 71 71 70 67 70 66 70 72 76 78 77 74 80 79 74 84 80 67 60 62 73 81 85 72 80 75 78 78 74 72 74 74 75
89 87 90 90 90 81 84 73 65 62 63 68 66 60 62 62 64 64 64 67 69 68 70 72 79 82 81 82 73 76 83 83 84 88 80 73 80 77 75 73 78 80 77
76 74 78 76 74 81 83 82 72 83 74 71 60 63 63 58 59 68 71 75 80 80 83 84 86 86 85 93 96 73 85 82 80 72 74 78 79 75 72 71 69 73 81
76 77 63 61 58 61 64 71 67 73 75 71 68 66 62 63 63 66 79 82 86 87 90 95 96 96 96 96 98 97 88 64 77 58 72 56 88 86 70 68 70 71 84
68 61 56 57 57 60 64 66 68 69 74 73 71 68 68 67 68 76 81 85 89 92 94 95 96 94 98 95 93 96 96 96 83 74 63 77 88 84 83 84 68 79 88
66 63 61 61 61 61 63 64 63 66 75 80 75 72 70 69 73 73 78 86 88 94 93 94 87 95 95 97 93 82 92 95 87 84 82 70 80 76 88 90 88 91 92
64 68 66 65 66 68 68 70 77 75 75 75 72 67 67 71 73 70 78 89 90 93 93 92 92 92 94 94 96 97 95 94 96 96 85 79 63 80 90 88 93 97 94
68 71 68 70 71 71 70 70 72 74 74 71 71 70 73 78 79 75 77 92 91 92 92 94 94 93 94 96 97 98 97 91 83 90 88 85 81 81 84 89 92 96 96

GFSSE_sfc_rhum_030.txt.gz
RH
97 97 94 93 93 94 94 94 92 90 87 83 82 81 81 80 81 81 80 81 76 73 73 74 74 73 72 74 76 78 79 79 79 77 75 71 70 66 74 81 83 78 80
97 96 95 94 94 94 94 93 91 89 85 82 81 81 81 80 80 77 76 75 72 68 67 68 70 71 73 76 78 79 79 79 81 81 74 76 74 65 68 77 82 81 80
97 97 96 95 93 92 90 90 89 84 83 82 81 80 80 78 76 78 77 72 68 66 65 67 68 69 69 71 72 72 72 74 76 78 79 76 81 70 64 75 81 77 79
94 98 97 96 93 92 92 90 86 82 83 82 81 80 77 76 77 76 74 73 69 64 63 63 64 67 70 72 71 70 70 72 74 72 76 78 74 75 68 66 70 73 76
98 98 97 96 95 93 92 90 89 88 88 85 82 76 76 75 73 73 74 74 68 64 61 61 63 66 69 71 71 71 72 74 72 68 84 85 90 75 73 66 64 74 78
94 97 97 96 95 93 92 91 90 91 92 88 82 76 74 72 72 72 74 71 66 63 61 61 63 66 70 76 74 73 75 76 73 72 76 90 90 78 66 72 79 80 79
91 94 97 96 95 92 88 88 92 93 91 88 84 82 75 72 72 72 73 70 67 63 62 64 66 68 74 77 75 76 78 81 73 71 86 92 93 79 72 72 77 81 81
88 96 98 96 95 94 92 94 94 92 90 89 88 85 78 78 78 73 71 70 67 65 66 68 71 72 77 79 79 83 83 81 65 67 76 90 82 76 66 72 79 82 83
98 99 99 98 95 95 95 93 92 90 88 88 87 85 84 83 81 77 75 73 71 72 73 76 79 81 82 82 83 84 86 79 74 66 65 85 81 74 67 68 74 78 81
98 97 98 97 96 96 95 91 91 89 88 86 85 83 82 81 80 80 78 77 78 78 79 81 83 84 85 86 87 86 85 74 74 68 64 74 71 64 64 67 68 72 75
90 95 96 96 95 94 93 90 88 86 86 86 84 82 86 88 87 83 83 84 83 85 85 84 85 86 87 84 82 85 79 80 76 70 63 64 67 62 63 64 70 70 72
88 90 94 94 94 93 74 91 92 88 92 91 90 90 91 91 92 87 87 86 84 80 78 80 79 79 76 83 83 79 82 79 78 73 65 64 63 60 57 60 68 67 69
74 78 86 91 90 91 81 94 94 95 94 93 90 90 92 92 95 96 97 93 88 76 82 77 78 78 76 79 80 80 78 77 80 75 68 71 67 63 58 57 62 63 65
68 72 79 84 85 87 85 92 91 92 93 94 91 92 95 96 91 90 84 85 87 89 85 85 85 80 78 75 74 73 73 75 77 76 74 75 72 67 63 60 58 62 64
67 69 76 83 85 82 83 90 90 92 92 90 93 89 90 85 88 89 88 88 87 84 85 82 78 75 73 73 70 70 70 74 74 71 78 74 74 67 65 64 62 59 60
59 69 78 82 86 83 81 85 89 90 91 92 91 86 86 89 90 88 83 81 80 80 78 79 77 78 75 75 69 69 69 70 72 74 75 76 74 72 70 68 67 66 65
64 72 86 89 92 89 83 83 85 89 86 92 84 84 84 83 78 77 78 77 80 78 76 77 75 76 75 71 72 70 70 68 71 76 79 80 80 77 76 76 76 74 72
73 93 95 89 93 92 90 92 86 89 93 78 76 73 71 69 71 74 73 77 77 75 75 76 77 78 76 78 77 72 74 75 78 81 77 80 85 74 71 68 68 70 75
94 95 96 96 92 90 86 86 77 77 75 68 65 63 66 66 70 72 75 76 74 74 81 80 78 84 81 84 79 81 80 83 87 66 72 78 84 78 71 67 66 65 68
97 95 95 93 95 90 89 82 68 68 70 68 69 68 65 62 64 66 69 81 80 83 88 90 89 87 87 95 77 74 81 84 81 76 74 66 78 79 76 70 70 66 68
90 90 92 86 86 88 83 80 80 84 76 72 67 65 59 60 68 75 81 82 84 84 91 92 95 94 94 92 93 75 84 83 77 70 61 72 79 75 74 70 72 65 73
89 87 84 82 86 72 74 75 73 77 76 72 70 70 67 71 72 73 82 84 84 81 86 94 95 94 94 96 98 96 89 77 75 60 73 66 82 80 70 69 73 71 82
83 65 60 61 61 66 72 71 79 79 80 72 71 71 71 72 74 76 78 77 82 89 93 94 94 93 97 95 92 93 95 94 79 74 64 78 82 82 80 81 70 73 84
69 67 65 65 66 65 68 69 72 73 80 81 75 74 71 72 75 75 79 81 85 92 89 92 87 92 92 93 93 85 93 93 85 79 73 68 75 67 84 88 85 82 87
68 68 73 70 68 68 68 70 78 79 80 79 76 71 74 75 76 71 76 85 89 92 91 91 92 92 95 96 97 98 96 90 87 92 86 83 76 74 82 86 89 90 88
71 64 67 66 71 73 73 74 73 74 75 75 74 75 75 79 80 77 77 91 91 92 93 94 93 94 94 95 97 98 98 88 84 91 88 87 91 80 81 86 90 90 90

GFSSE_sfc_rhum_033.txt.gz
RH
77 76 90 88 92 92 92 92 90 89 87 85 83 82 84 82 81 82 80 79 73 69 68 68 70 71 72 74 75 75 75 76 79 78 74 74 73 67 73 78 78 55 79
76 74 92 90 93 92 92 91 90 88 85 81 81 81 81 80 77 76 75 72 67 65 65 67 66 65 66 68 70 70 71 74 76 76 78 65 75 69 68 77 83 60 77
79 72 71 93 92 92 90 89 89 85 81 80 80 80 77 76 77 74 71 73 66 63 61 62 62 62 63 65 66 65 67 71 72 73 72 49 50 74 68 75 81 77 77
74 73 71 95 93 91 91 89 87 82 81 80 80 77 75 75 73 72 71 74 68 61 59 58 59 60 63 66 68 69 70 72 72 69 51 55 53 73 70 67 64 72 73
77 73 76 95 93 92 91 88 88 88 86 85 81 75 74 72 70 72 72 74 66 59 60 60 61 60 64 70 72 72 72 74 69 57 49 59 57 66 70 72 68 70 79
77 75 90 96 94 92 91 90 90 90 90 86 81 76 72 69 68 71 72 71 63 62 62 63 65 67 73 79 77 76 77 73 61 40 49 60 60 75 69 76 79 79 80
80 78 78 96 95 93 88 88 92 92 89 86 84 80 74 69 70 71 72 70 67 65 66 68 70 73 77 81 78 80 80 76 40 34 35 41 58 72 65 69 79 82 80
81 83 78 93 94 93 91 94 94 91 89 88 87 83 78 77 76 71 71 71 70 70 71 73 76 78 80 81 80 82 84 79 41 33 33 34 64 67 62 66 79 81 80
80 85 75 73 82 95 96 94 92 89 88 88 86 85 83 82 80 79 78 75 74 76 76 77 80 84 82 83 82 85 84 77 44 39 34 31 63 60 58 63 72 75 77
88 79 79 78 75 76 76 93 90 89 88 86 85 84 82 80 80 82 78 81 80 81 80 80 84 85 79 79 82 84 80 70 45 41 36 35 65 58 55 60 65 69 72
86 83 83 78 77 76 72 74 84 86 85 85 80 80 79 60 62 61 81 85 82 78 79 78 79 78 76 73 78 79 69 44 45 42 40 66 67 61 58 61 68 72 71
79 77 75 78 74 74 61 71 70 65 62 65 65 69 63 70 67 64 76 83 76 75 73 73 73 71 58 41 40 53 38 44 40 41 39 73 69 66 63 61 67 68 68
64 64 67 74 75 69 62 66 63 63 66 67 71 69 71 70 72 69 63 58 60 66 51 52 48 44 50 45 41 42 39 37 36 34 41 70 66 62 61 62 63 65 68
56 56 62 68 73 74 62 62 64 64 67 67 70 77 75 70 70 67 62 58 58 52 54 49 46 52 50 47 45 43 42 35 31 30 37 70 71 67 64 63 63 64 66
52 55 62 68 70 69 70 70 69 71 68 71 73 73 67 64 71 62 60 52 51 49 49 48 47 46 45 43 41 40 38 40 41 36 40 69 75 73 73 72 71 70 70
47 55 65 69 74 68 67 71 74 80 80 81 82 79 74 68 66 56 54 49 47 44 45 43 44 42 40 40 38 43 42 43 45 50 43 47 72 70 69 70 70 71 72
46 64 73 77 75 74 75 77 79 83 84 85 83 76 69 59 60 56 50 48 47 48 48 45 44 42 41 41 46 45 46 45 46 53 44 44 46 59 64 64 64 64 65
56 70 74 78 79 81 81 85 90 89 86 80 74 62 59 58 55 53 48 50 53 51 49 48 48 42 46 49 45 43 41 39 52 50 44 45 42 37 45 61 64 62 62
67 77 84 83 82 86 91 95 92 75 70 59 53 49 56 55 59 52 52 53 54 50 52 47 44 51 49 47 36 40 37 32 52 39 43 44 48 46 43 52 59 59 62
79 80 83 90 91 96 97 88 72 61 56 52 50 46 48 48 55 52 51 54 47 44 47 50 54 49 56 54 38 38 38 40 46 46 41 38 43 48 48 48 46 41 58
87 81 80 94 98 94 88 71 55 58 51 50 45 49 51 51 51 52 46 48 48 47 56 58 51 54 44 55 46 40 42 56 49 44 38 38 43 44 46 45 42 40 40
89 94 90 82 79 63 50 51 49 49 49 48 48 51 50 53 50 49 51 48 52 44 54 59 59 47 48 59 54 47 40 35 44 40 45 40 50 40 40 44 47 48 46
84 79 68 63 59 54 53 54 53 53 52 48 48 45 49 53 49 51 52 50 52 51 48 57 57 55 46 49 57 51 47 43 51 41 42 42 46 44 46 48 49 49 49
60 59 56 54 51 53 57 53 55 48 50 51 50 48 46 54 52 48 52 56 57 55 54 52 50 54 57 50 49 48 57 57 56 49 38 41 50 48 51 50 49 54 52
54 54 54 52 52 53 51 54 53 57 55 52 52 54 55 55 58 54 54 58 59 55 56 61 65 66 61 59 52 52 57 51 50 63 60 52 44 41 48 45 53 57 56
54 58 60 53 56 57 57 59 59 59 56 51 52 52 51 52 53 57 55 60 62 62 66 64 69 70 67 65 59 59 59 56 52 65 59 63 56 46 42 46 51 48 56

GFSSE_sfc_rhum_036.txt.gz
RH
55 55 90 88 91 92 92 91 90 89 86 83 81 82 83 82 80 79 77 75 71 66 68 68 67 65 65 65 66 67 70 73 76 76 76 69 70 68 70 76 80 44 77
54 56 91 89 90 91 91 91 90 88 85 81 82 82 81 78 77 74 73 72 66 62 60 60 59 58 58 61 63 64 68 70 73 74 73 66 76 72 69 74 82 58 77
55 59 62 91 91 91 88 88 88 82 80 80 80 79 76 76 73 70 71 72 64 60 59 57 56 57 61 65 67 68 70 71 72 71 68 32 41 72 68 73 73 73 71
57 53 53 93 91 90 90 90 86 81 79 79 77 75 74 71 70 70 69 72 66 59 57 56 55 61 65 69 70 70 72 70 70 72 36 37 35 75 71 70 72 71 72
56 50 62 94 93 92 91 89 87 85 85 83 79 73 70 69 68 69 69 71 66 61 60 58 61 66 72 75 74 73 71 70 74 47 32 45 39 61 70 71 64 68 76
56 53 84 94 93 91 90 89 88 88 88 84 80 74 68 66 66 68 70 72 65 64 64 65 68 72 77 78 77 76 74 72 69 23 27 41 43 68 66 72 77 75 80
56 57 67 96 93 92 88 87 88 88 87 85 82 78 72 66 67 69 71 70 68 67 68 69 72 76 80 80 79 80 78 78 24 21 22 26 38 61 60 67 74 74 72
61 63 70 93 94 92 91 93 92 89 88 87 84 81 74 73 74 70 71 71 71 72 73 76 78 79 79 78 79 81 80 79 29 23 21 21 64 59 55 61 76 78 71
63 63 60 59 77 95 95 93 90 88 88 87 86 85 83 82 81 78 77 75 75 76 77 78 79 79 76 78 78 79 78 73 32 28 25 25 68 62 57 57 66 72 73
66 49 46 49 49 54 60 91 89 87 87 86 85 83 82 81 81 77 82 80 80 78 78 77 75 74 73 75 77 77 74 72 28 26 24 41 71 66 63 61 62 67 70
64 48 46 45 49 46 44 62 81 85 85 84 78 81 76 43 47 50 84 82 76 77 76 73 71 70 69 69 66 63 67 27 28 24 23 68 64 62 63 65 66 71 72
57 56 57 55 54 52 41 50 49 46 45 48 48 52 44 53 51 50 68 78 74 73 72 70 66 65 49 27 28 46 27 30 25 24 23 65 63 61 61 62 64 66 72
44 43 44 55 55 48 45 43 40 44 48 52 58 54 57 55 57 50 46 42 46 58 37 40 36 32 39 35 32 34 31 30 24 23 36 68 66 62 62 63 64 66 68
38 39 42 48 56 55 42 42 47 44 50 49 54 64 60 53 57 51 42 44 45 40 42 38 35 42 40 37 36 36 35 31 27 26 35 72 72 68 65 68 70 70 71
36 39 44 48 51 52 54 50 52 53 51 58 59 66 55 51 57 49 48 41 40 37 37 37 36 34 36 34 34 35 33 33 34 28 28 73 70 66 66 66 66 67 67
36 41 48 48 52 49 54 61 61 62 63 68 82 82 73 56 56 49 45 40 38 36 35 35 38 35 33 34 32 35 36 33 32 35 27 30 63 57 59 63 62 62 62
36 45 53 59 58 61 61 63 71 70 73 81 78 76 66 58 55 50 44 41 40 40 41 37 36 30 30 27 28 25 27 27 26 34 31 30 32 58 49 56 58 60 58
35 47 61 69 70 73 77 78 74 80 78 77 72 66 63 53 50 47 42 44 44 39 34 31 30 29 26 28 27 22 24 23 22 35 30 33 32 29 44 50 52 57 54
37 54 68 72 71 74 78 95 95 90 67 52 50 46 50 49 49 45 42 42 40 32 34 31 29 33 31 31 26 22 25 23 22 24 33 34 34 34 31 44 47 50 49
45 59 67 71 78 91 98 92 68 57 53 48 44 43 43 44 45 41 37 40 33 30 30 34 39 33 32 35 25 24 27 27 28 32 30 25 27 33 32 34 34 31 49
64 69 68 77 97 97 91 79 64 53 49 43 38 42 42 41 38 36 30 34 33 34 38 38 33 35 32 36 35 27 25 29 38 32 28 27 30 32 34 32 33 33 32
62 64 74 72 84 72 60 48 40 40 38 37 37 43 41 39 35 32 35 32 36 31 38 42 44 39 32 34 44 36 30 26 22 30 30 31 35 32 32 34 38 38 38
70 68 63 61 58 49 42 40 41 42 42 38 38 38 38 39 34 35 36 36 39 38 34 42 42 45 41 36 40 43 42 36 35 30 32 30 36 36 35 33 36 36 39
60 57 48 46 42 41 43 38 41 33 36 36 39 38 32 40 37 32 35 41 43 40 43 41 35 48 46 44 39 32 42 43 44 44 33 33 30 31 36 32 33 34 35
50 50 44 42 39 41 41 41 42 42 42 40 40 40 38 37 40 37 38 42 44 41 45 50 52 50 45 49 48 40 44 43 44 48 52 35 28 29 28 31 32 33 33
39 44 45 40 39 41 42 45 46 47 42 37 34 33 30 32 34 36 39 46 48 49 52 52 53 56 56 56 56 49 47 48 44 46 54 46 37 31 28 28 31 32 30

GFSSE_sfc_rhum_039.txt.gz
RH
52 51 91 92 92 91 91 91 90 88 86 82 82 82 82 80 78 78 76 74 69 64 61 59 57 56 56 58 61 65 68 71 74 74 70 70 71 70 69 76 76 54 77
50 49 92 92 91 90 90 90 89 87 84 82 82 80 79 79 76 75 74 71 63 59 57 56 55 59 62 64 68 69 70 71 73 73 69 73 71 69 71 73 80 61 75
49 48 58 92 91 90 88 88 87 82 81 80 79 77 76 71 70 70 72 70 63 58 55 55 60 63 65 67 69 69 68 70 73 74 75 58 52 72 69 76 77 74 72
50 50 56 94 92 91 91 89 86 80 80 78 75 74 71 69 68 67 67 71 65 60 55 60 62 64 68 69 69 68 67 71 75 77 34 34 50 72 69 70 71 69 69
50 50 68 92 92 92 91 88 87 86 84 80 77 70 67 66 66 66 69 72 67 60 61 62 65 69 74 75 74 72 71 76 74 47 28 37 40 60 70 73 64 67 72
62 69 90 94 92 90 89 88 86 86 85 83 78 72 65 64 65 68 73 72 66 64 64 66 69 73 77 78 78 76 76 74 71 18 22 39 37 58 61 71 75 72 74
70 78 70 94 92 89 88 86 87 86 86 83 79 75 69 65 67 70 73 72 69 68 69 71 73 74 76 76 75 76 78 76 28 20 18 33 48 60 56 62 72 72 69
86 72 69 90 92 92 91 91 90 89 88 86 82 77 72 71 73 71 72 72 73 73 74 75 76 74 75 74 75 76 77 75 29 24 23 32 68 65 60 60 70 74 70
75 71 64 65 81 94 94 91 89 88 88 87 86 83 82 82 82 79 77 75 75 76 76 76 73 73 72 72 73 76 76 76 36 24 22 36 67 65 64 64 65 69 72
70 58 55 58 58 66 69 90 88 88 87 86 84 82 82 80 77 79 83 79 76 76 75 71 70 69 69 68 65 67 70 68 26 23 24 45 63 61 61 64 66 67 68
63 41 40 38 42 43 45 66 82 86 85 84 77 80 77 42 49 53 82 77 75 75 72 67 67 63 64 69 61 56 63 27 26 23 22 66 58 58 60 62 65 67 68
44 41 43 47 48 44 33 49 48 53 49 47 46 54 47 46 51 49 63 78 73 70 70 65 62 56 52 29 29 45 29 32 27 26 29 66 59 56 58 63 66 69 70
40 41 41 50 53 45 45 39 37 41 46 49 52 49 54 47 51 49 44 42 44 58 37 41 36 32 40 38 35 37 35 34 28 27 43 68 62 59 59 64 67 69 71
34 35 37 41 47 43 37 37 39 39 44 45 50 55 54 50 54 49 38 40 43 37 43 39 36 41 39 37 36 37 37 33 28 29 37 70 64 61 60 62 63 64 65
31 34 35 42 47 49 46 46 45 48 63 68 70 65 60 54 56 47 46 40 41 38 38 39 37 37 38 35 34 34 34 34 32 27 28 70 64 58 55 59 62 62 61
30 37 40 40 46 45 51 57 69 74 73 69 70 78 70 64 63 48 45 40 40 41 40 40 41 35 31 31 30 29 28 27 28 29 26 28 64 57 50 52 55 58 59
30 38 45 50 49 56 57 61 67 64 56 68 75 76 68 64 65 52 50 47 47 44 46 36 34 30 28 24 28 25 22 23 23 23 25 28 30 62 50 52 49 51 53
33 42 48 53 60 66 70 72 71 67 68 73 70 69 67 56 54 57 50 49 46 40 34 33 30 29 29 28 29 26 22 22 25 25 21 27 28 26 41 51 45 46 47
36 51 61 65 67 71 83 94 97 97 90 57 58 52 54 50 48 48 45 43 39 32 33 33 30 31 30 28 25 26 25 24 25 20 28 31 31 27 27 41 52 50 41
36 57 58 63 72 72 82 81 95 96 69 54 49 46 46 44 44 40 38 42 35 32 34 35 39 32 31 30 24 30 29 24 23 33 31 25 27 29 30 33 32 32 54
44 58 62 71 71 76 72 70 77 66 52 47 42 42 43 40 36 37 32 35 36 31 36 40 39 41 35 33 32 33 32 31 28 24 27 28 30 28 34 31 32 31 32
51 62 69 66 67 59 47 52 52 47 42 38 38 42 39 38 34 31 38 33 35 33 37 38 43 42 38 35 39 37 40 33 26 28 28 28 33 28 28 32 33 33 34
59 60 57 58 54 50 50 40 38 37 39 38 38 40 38 36 32 32 34 35 38 37 36 42 42 43 41 39 39 39 43 42 37 31 33 29 37 31 29 29 30 30 33
55 54 48 45 44 42 39 36 40 34 34 35 35 35 36 38 35 31 30 36 40 39 42 41 35 46 46 44 38 32 42 42 44 46 36 34 33 30 35 30 28 29 30
50 48 43 41 36 36 36 35 37 38 38 38 37 41 41 36 34 33 34 38 43 40 43 49 51 57 47 47 48 56 54 47 44 52 56 40 32 31 32 31 31 30 29
41 43 40 36 34 37 38 40 42 43 38 40 38 35 31 28 28 31 31 38 42 41 44 44 47 46 50 57 57 67 57 57 50 50 55 46 45 35 29 30 34 31 30

GFSSE_sfc_rhum_042.txt.gz
RH
61 74 92 91 92 92 92 91 90 88 87 87 86 85 84 81 79 78 76 72 67 59 56 57 60 62 63 66 68 70 71 72 75 74 76 73 68 70 71 80 72 66 80
63 69 94 92 91 90 90 90 89 88 86 82 83 84 81 79 78 75 73 70 65 56 58 62 63 63 64 67 68 69 70 77 80 79 76 71 73 69 71 79 80 74 79
58 72 76 92 90 89 89 88 87 85 81 79 79 80 78 77 76 75 73 70 66 57 61 62 62 63 65 67 68 68 72 76 77 77 77 73 66 69 70 77 76 74 72
56 60 72 93 91 90 89 87 85 82 79 80 78 76 75 72 69 68 73 73 67 61 62 62 64 67 70 72 72 72 75 76 76 77 60 53 54 70 71 70 69 66 67
53 60 82 92 92 90 89 88 87 85 83 80 76 72 67 66 67 69 75 73 70 64 63 64 66 70 74 78 78 78 75 73 70 56 42 48 50 58 68 74 70 68 73
74 83 91 92 92 89 89 89 88 86 84 80 76 73 66 66 70 72 77 75 69 66 66 67 69 73 80 80 78 77 75 73 69 34 44 58 60 59 59 69 79 77 76
83 84 84 92 89 89 88 88 88 88 84 81 77 75 73 70 71 74 79 78 74 71 71 71 71 74 79 79 78 78 78 78 51 36 51 64 70 63 61 63 73 76 74
89 87 85 90 91 91 91 90 90 89 86 83 80 77 77 76 77 78 79 79 77 76 75 75 73 74 76 73 71 72 75 74 45 38 45 63 70 64 63 66 74 75 76
93 91 84 83 91 94 92 90 91 89 89 87 85 84 84 84 82 82 82 78 77 77 76 73 72 74 70 65 64 66 72 71 58 39 40 61 66 59 61 64 67 71 75
96 87 84 82 79 84 79 90 89 89 88 86 83 82 82 80 82 83 82 80 77 76 72 68 69 69 69 63 61 58 65 64 38 37 55 69 59 54 57 63 66 68 71
93 85 66 67 73 74 78 82 86 87 86 83 81 81 82 63 70 69 82 80 76 75 72 67 65 61 66 67 66 53 67 47 44 42 59 72 59 54 56 62 69 71 74
90 69 56 65 65 62 49 71 71 71 68 66 66 76 71 74 71 61 74 77 76 73 70 65 60 61 60 51 54 57 51 52 47 44 71 72 57 55 56 64 66 67 69
50 55 54 68 66 54 60 61 62 67 67 70 73 74 72 70 72 78 80 70 80 76 67 62 57 54 55 58 56 58 54 50 50 46 67 72 57 54 55 59 62 63 64
47 48 54 58 66 66 54 54 60 58 68 76 76 73 81 82 74 71 70 65 64 62 62 62 63 63 59 54 53 52 52 50 47 48 66 72 61 53 52 54 58 60 61
41 47 51 57 63 62 65 68 72 76 83 87 91 86 92 85 82 74 68 66 66 63 61 63 62 56 56 47 48 47 42 41 44 47 50 69 64 53 50 50 51 53 54
38 45 53 54 66 64 75 80 86 87 89 86 83 85 83 83 81 75 68 63 64 64 63 62 59 58 51 47 43 45 43 40 37 44 39 56 68 57 51 51 49 49 48
39 43 53 61 69 76 76 73 71 70 75 82 86 83 83 82 82 72 72 69 68 63 59 56 51 48 49 41 42 42 41 34 37 42 41 35 65 66 58 47 45 43 44
42 48 54 57 71 75 76 73 75 76 80 84 83 85 76 70 67 70 69 68 64 64 57 57 57 52 51 50 47 47 46 37 36 38 37 47 49 38 58 56 48 42 44
42 54 68 75 79 79 82 89 95 93 94 86 86 70 67 63 64 68 69 64 64 58 61 56 58 60 56 53 41 41 50 45 40 29 42 45 46 45 46 50 56 56 45
52 63 71 76 84 87 91 92 92 92 91 80 66 63 63 61 61 64 62 62 59 54 58 60 63 60 62 60 36 40 53 51 42 45 50 41 42 46 44 46 55 50 54
63 74 74 82 81 84 83 80 76 78 71 67 58 61 63 58 52 53 58 54 54 57 59 57 61 63 65 62 60 52 54 49 46 45 46 47 44 40 44 49 49 45 46
65 67 78 78 78 75 62 61 66 65 63 57 57 61 59 55 48 51 54 56 57 59 60 65 66 70 65 66 66 62 62 54 51 43 52 46 51 48 42 36 44 44 47
68 75 71 74 74 70 56 60 62 59 60 59 57 61 57 52 46 46 48 54 58 61 65 67 66 67 71 66 63 70 63 68 60 55 48 48 56 55 53 47 41 42 41
67 70 68 66 63 60 61 55 58 52 53 53 56 56 53 52 49 43 46 52 59 65 66 69 52 71 71 71 68 52 68 72 76 69 57 57 56 45 51 54 49 46 44
67 67 70 60 52 52 52 53 59 57 59 56 59 61 55 62 55 49 50 56 60 65 67 70 73 72 72 77 76 78 75 80 75 77 76 66 54 52 50 49 57 54 45
63 65 60 53 48 47 50 54 57 59 56 59 59 62 57 52 50 52 55 64 62 63 62 63 65 65 68 73 80 83 84 84 77 84 84 74 65 57 54 53 51 48 52

GFSSE_sfc_rhum_045.txt.gz
RH
88 87 90 90 92 93 92 91 90 89 88 87 84 83 82 80 77 74 71 68 66 62 62 63 63 63 63 64 68 69 70 74 81 81 76 71 70 69 71 80 78 71 78
87 86 92 92 92 91 90 90 90 88 86 82 82 82 80 78 76 74 71 68 67 62 62 62 62 61 61 63 66 70 74 78 78 80 77 71 70 69 69 75 78 73 77
87 87 87 92 90 90 90 89 88 85 80 76 79 80 78 76 74 73 72 70 69 62 62 61 61 61 63 65 69 73 73 74 78 74 76 78 71 71 69 75 73 70 67
85 87 87 91 90 90 89 87 85 81 78 79 78 76 75 72 69 69 72 73 70 63 61 61 62 64 67 69 74 74 74 71 76 77 54 57 56 68 71 71 69 68 66
79 83 90 93 91 89 88 87 85 84 81 78 76 72 69 70 70 70 77 75 71 64 63 63 64 66 70 75 73 73 73 72 68 58 72 70 62 58 66 71 71 69 69
84 87 92 92 91 90 90 87 86 83 80 78 75 73 71 71 72 74 79 76 69 66 64 64 66 68 76 74 71 70 70 74 61 64 75 73 68 63 63 67 74 71 74
90 88 84 90 91 90 88 87 86 84 81 79 78 78 76 72 73 75 81 79 74 70 67 67 69 70 74 71 71 70 68 71 53 73 83 85 74 63 65 68 71 74 74
92 85 79 86 92 92 89 89 88 86 83 81 81 80 79 79 80 79 81 80 77 75 72 70 72 72 70 70 68 70 70 72 48 61 67 72 68 61 62 65 69 76 74
95 90 86 93 86 93 92 91 90 88 86 84 84 83 83 84 84 84 83 80 78 76 72 71 71 69 67 64 70 70 72 68 49 58 50 73 64 58 60 65 67 71 74
94 96 97 91 88 87 86 90 90 88 87 85 83 83 84 84 84 82 82 81 79 75 71 65 67 65 66 64 70 74 67 63 50 58 71 75 62 56 60 66 67 68 69
92 95 93 87 82 86 86 85 87 86 83 82 81 81 84 80 80 80 79 80 78 74 68 68 63 62 69 67 75 76 65 56 51 61 77 72 58 54 59 64 66 66 66
96 96 89 80 80 75 68 84 88 77 79 79 78 81 78 79 82 70 79 78 76 73 69 70 62 64 64 57 59 66 59 53 53 55 79 70 56 51 55 60 62 63 64
87 77 82 76 73 64 72 76 77 80 83 79 77 80 85 81 80 85 84 80 82 77 72 66 62 60 57 60 65 59 58 54 54 56 72 69 53 49 52 55 56 56 57
89 70 61 60 59 63 66 70 72 75 86 91 96 92 92 91 94 89 82 76 73 74 68 69 66 58 57 49 50 54 48 46 50 52 78 70 58 50 50 50 52 52 52
63 61 60 63 61 62 75 88 89 94 92 97 96 91 94 94 92 78 72 72 72 67 66 65 56 58 53 50 46 48 42 41 39 48 60 70 67 53 50 48 49 46 47
57 59 66 70 71 83 89 88 91 95 95 93 94 93 88 86 77 72 72 70 69 62 63 58 55 54 54 49 45 47 45 39 38 45 46 55 70 60 52 47 45 44 45
55 57 67 77 86 82 81 80 86 86 91 90 94 89 86 75 80 76 77 72 68 65 57 58 54 53 54 48 46 46 48 44 45 47 40 45 73 68 60 47 43 43 46
52 57 63 75 83 83 85 93 93 95 94 94 94 90 80 72 74 73 72 66 68 64 63 62 60 59 59 60 57 52 55 48 48 43 43 52 54 53 68 60 44 46 46
50 62 84 84 87 89 93 96 97 96 97 95 88 77 67 70 71 71 68 64 67 67 66 58 62 64 64 64 51 51 57 60 48 43 44 52 48 52 52 56 55 50 42
62 81 82 85 94 97 98 98 99 98 96 94 82 74 68 68 68 68 69 63 62 63 63 61 65 67 68 70 49 51 56 58 58 59 55 44 47 48 52 54 54 48 51
81 86 87 91 95 96 98 99 98 97 92 80 71 68 70 67 59 68 70 67 63 63 60 66 69 67 70 70 69 64 64 57 48 58 59 53 54 48 49 50 52 52 52
83 88 90 87 91 94 93 89 86 84 78 72 70 70 68 66 57 54 60 62 60 62 67 69 69 74 76 73 71 77 77 64 63 55 61 52 58 56 48 47 50 46 50
85 91 90 86 86 87 85 79 84 78 78 78 75 76 68 56 51 56 58 61 62 68 69 72 74 75 78 77 70 77 83 82 81 66 58 60 60 64 61 57 46 44 48
89 90 86 82 85 84 70 78 81 76 74 74 73 74 62 58 55 50 54 57 65 71 68 76 69 79 83 82 80 65 76 81 91 92 71 66 64 54 59 60 61 54 51
86 89 84 81 83 78 70 70 70 74 71 73 73 67 65 58 56 52 63 70 68 72 70 65 65 70 77 80 84 88 86 88 88 94 91 80 71 62 62 64 63 62 53
84 85 84 81 75 71 69 67 67 69 68 66 64 64 65 65 63 64 59 61 63 63 64 69 69 70 74 78 86 91 91 88 83 86 95 93 86 73 66 65 65 61 63

GFSSE_sfc_rhum_048.txt.gz
RH
94 85 92 93 93 92 91 91 91 89 86 82 80 81 77 76 74 72 72 72 69 63 62 60 60 60 60 61 64 67 69 79 81 79 77 72 69 68 70 76 76 73 77
89 85 92 93 92 91 91 90 90 87 82 78 79 79 79 76 73 72 73 71 68 60 58 58 59 59 60 63 69 71 71 78 83 81 76 73 71 70 71 71 75 68 69
87 89 89 92 91 90 89 90 87 82 77 74 76 77 77 74 72 75 74 72 67 60 59 59 59 58 62 66 72 79 80 80 82 77 73 83 70 69 69 70 71 67 66
86 86 89 91 90 89 89 87 84 78 76 77 75 73 75 71 71 71 73 72 69 61 60 58 56 56 61 71 71 72 75 77 75 71 67 66 58 65 66 67 66 66 66
85 86 90 91 90 89 88 85 83 82 81 78 75 71 70 70 70 70 76 74 70 61 59 57 55 57 68 71 71 73 71 73 75 73 88 76 68 62 68 71 71 69 68
91 89 93 92 90 88 87 86 83 82 79 77 77 76 72 71 72 73 78 74 69 62 60 59 58 65 71 71 69 72 73 74 74 89 88 78 70 63 66 72 74 74 73
93 90 90 93 91 88 86 84 83 82 80 79 80 79 76 72 72 75 81 78 74 66 64 64 64 70 71 71 72 72 70 75 71 80 82 81 70 62 64 67 72 75 76
95 91 87 86 87 88 86 86 85 83 83 83 82 80 78 79 79 78 80 80 76 70 69 69 73 72 71 69 74 72 71 66 60 69 71 72 65 62 64 66 70 75 75
98 96 97 91 87 93 92 90 88 85 85 85 84 83 83 84 84 83 82 80 76 74 72 72 71 70 69 70 73 72 73 69 62 66 60 77 64 62 63 65 66 66 67
94 92 91 92 94 92 88 91 89 88 88 86 84 84 85 85 84 83 83 81 78 73 69 67 66 66 68 71 75 78 71 65 62 70 78 78 60 58 62 64 65 65 65
93 91 89 93 92 91 88 84 86 85 85 84 83 84 85 84 80 77 80 80 77 71 66 67 72 72 71 70 73 73 66 57 57 73 80 72 55 55 59 61 63 64 64
93 94 93 87 90 86 72 85 84 75 81 82 81 81 81 86 87 75 80 80 76 72 70 72 70 67 61 60 65 65 62 50 53 66 81 68 52 50 56 58 58 57 57
84 89 92 86 85 82 80 89 89 87 84 82 80 83 86 86 88 90 89 83 85 74 61 60 57 58 52 54 58 59 50 48 55 56 74 68 52 45 51 53 53 53 55
92 89 87 80 79 80 77 82 83 77 89 91 91 88 95 95 94 89 85 79 76 74 68 62 64 57 54 48 49 53 46 45 46 57 68 68 57 46 49 50 48 48 53
86 76 79 73 69 75 80 84 89 94 98 98 97 94 95 94 94 77 74 72 70 68 60 58 56 54 54 46 46 48 46 43 43 51 57 61 66 49 48 46 43 43 50
73 71 72 66 72 82 94 95 98 98 98 98 97 92 90 85 73 73 75 72 68 63 61 59 55 55 56 52 48 50 48 47 48 47 48 56 70 61 49 44 41 43 44
61 61 67 88 93 94 95 95 98 97 96 98 95 89 81 78 80 78 76 73 70 63 60 58 57 58 59 54 53 52 53 52 50 48 51 58 81 71 59 45 42 44 43
60 62 82 79 87 88 94 96 96 98 98 98 95 88 82 78 76 74 70 72 75 69 65 64 62 62 64 66 62 58 58 54 50 50 51 55 57 62 67 53 45 44 42
57 77 91 87 88 91 96 97 97 96 97 96 89 81 77 76 73 67 65 72 72 68 67 61 69 67 69 68 58 60 58 59 59 47 49 50 51 53 58 51 46 42 36
57 82 87 86 92 96 98 98 98 98 97 92 83 76 73 76 68 71 70 71 69 66 66 68 68 70 69 74 54 54 62 61 62 61 56 46 50 49 54 52 55 52 50
81 89 89 92 96 95 97 99 99 98 97 88 80 72 73 73 70 72 74 69 68 63 70 68 71 69 73 79 72 73 68 68 57 62 60 55 56 52 50 56 57 55 52
88 89 91 90 94 93 92 97 93 93 90 80 77 77 75 66 65 65 68 64 64 69 69 70 73 79 81 79 77 83 82 74 70 61 65 58 62 62 55 52 51 50 57
92 94 90 91 90 91 89 88 87 83 83 81 81 79 78 65 60 62 65 65 66 72 73 77 77 78 84 84 78 79 86 89 88 75 66 66 68 68 64 60 55 52 52
92 92 88 86 89 91 90 87 79 82 77 81 80 81 73 64 62 59 61 67 75 77 77 76 68 76 80 74 83 71 84 84 93 92 77 72 72 62 67 68 65 58 54
94 95 92 87 88 83 88 82 80 84 80 82 83 80 73 67 64 64 70 74 73 73 67 65 69 73 79 83 84 90 90 93 92 96 95 86 81 74 69 69 69 68 59
94 96 94 89 88 92 90 81 82 78 79 81 85 77 76 79 73 62 59 65 66 64 63 67 70 69 75 82 88 93 94 94 93 87 87 84 87 86 72 69 69 69 68

GFSSE_sfc_rhum_054.txt.gz
RH
94 90 90 89 89 89 88 87 86 85 82 78 76 75 76 76 77 75 72 71 69 62 62 65 69 69 69 75 73 76 79 82 81 76 69 67 67 68 69 69 70 64 68
86 89 90 90 90 89 88 86 85 81 78 73 76 78 79 78 76 72 71 70 68 63 65 72 74 75 70 76 79 78 77 81 80 76 70 64 63 64 66 67 69 62 67
86 90 89 90 90 88 86 84 81 77 74 71 72 77 78 77 74 72 71 69 68 63 66 71 70 70 74 80 77 75 74 76 78 74 73 78 65 66 68 69 69 67 66
86 86 90 90 90 87 84 81 78 74 74 74 74 74 75 75 74 74 71 68 67 64 61 67 73 76 77 77 79 76 76 78 79 78 78 75 61 67 69 70 70 70 71
88 87 90 91 90 86 83 79 78 78 77 77 76 73 70 72 72 73 71 67 66 65 58 60 66 67 74 80 81 78 76 77 78 78 85 77 71 64 68 72 75 75 74
93 92 92 92 89 85 82 82 81 81 80 78 77 75 71 70 70 74 73 68 67 66 61 60 63 70 76 77 78 75 74 75 76 82 81 75 73 64 68 70 72 73 74
97 94 91 92 87 85 84 83 82 83 82 79 78 76 75 74 74 78 76 74 70 69 66 64 67 71 76 78 75 74 76 73 76 79 79 80 72 64 65 66 68 68 69
96 95 94 93 90 87 85 84 84 84 84 82 80 78 78 78 79 78 78 77 74 73 72 73 74 74 74 72 76 76 75 69 69 77 78 77 64 62 63 64 65 66 67
92 96 98 97 89 90 89 89 89 88 87 85 84 83 83 84 82 79 77 76 74 75 76 76 76 74 76 76 73 79 77 69 75 77 68 76 61 60 61 60 62 62 63
92 92 94 94 93 93 86 91 92 91 90 89 88 88 88 88 86 83 80 76 75 75 74 75 77 77 77 76 70 66 69 70 74 76 78 76 58 58 59 59 60 58 59
95 93 96 92 83 91 89 86 89 90 90 89 88 88 90 91 87 81 82 78 79 75 73 71 67 67 69 68 62 55 55 59 70 78 78 74 55 56 57 57 58 57 58
95 92 88 89 93 89 78 92 91 87 92 90 89 88 87 86 87 85 83 81 76 74 71 65 59 58 54 51 50 50 51 56 65 75 82 67 46 52 54 55 57 56 57
85 82 80 75 90 88 90 90 90 90 95 93 88 91 92 89 91 93 90 78 72 61 56 52 48 49 53 54 54 53 54 54 60 55 58 59 52 41 53 50 55 54 55
77 70 82 87 92 92 92 93 93 87 89 92 92 91 95 94 94 89 79 71 67 66 61 62 58 55 55 54 53 55 56 56 55 55 54 62 58 43 50 45 47 51 51
91 88 95 96 96 93 93 92 92 92 90 93 92 92 96 94 95 87 77 72 65 61 59 58 57 56 57 57 57 56 55 56 57 60 65 71 61 48 48 44 44 49 46
84 88 96 96 94 91 93 93 95 96 94 97 97 96 94 95 87 85 75 69 65 61 59 58 60 62 61 58 58 57 58 55 56 60 70 89 76 63 50 44 43 43 42
81 86 95 93 87 90 91 92 97 98 98 98 97 96 94 92 85 85 75 70 67 63 62 60 64 64 64 57 58 57 58 58 56 58 62 66 75 70 57 46 49 45 43
93 94 95 83 88 93 94 96 98 99 98 98 97 94 90 89 85 82 75 72 70 67 64 68 67 68 70 67 64 62 61 61 56 56 56 59 60 60 63 47 42 40 37
92 91 94 92 94 95 96 98 98 98 98 98 95 96 86 80 77 76 69 73 71 76 72 67 73 70 70 72 67 65 70 65 61 46 53 54 56 58 59 54 56 56 53
84 87 94 96 96 97 99 99 99 99 98 97 94 88 80 76 73 76 76 74 74 72 74 73 72 78 77 77 60 59 78 70 67 63 56 50 56 58 58 59 60 55 54
85 94 96 96 98 98 99 99 100 99 98 96 96 88 80 73 71 73 74 74 72 70 73 71 76 73 81 84 77 77 77 76 69 68 66 62 60 60 61 60 58 56 56
86 94 96 94 97 96 96 98 96 98 97 94 94 86 80 75 71 70 73 71 70 78 77 76 75 84 85 85 78 85 76 72 71 69 76 66 70 67 62 59 60 58 58
86 94 94 94 95 95 94 96 97 96 95 94 89 88 84 77 72 68 71 74 76 78 79 81 81 75 75 79 79 66 61 70 87 80 74 75 73 76 71 70 63 60 61
76 91 91 94 95 95 92 88 90 91 96 90 86 86 85 77 76 72 71 74 79 83 84 78 72 79 72 69 76 76 80 76 86 90 84 80 78 71 81 81 73 67 67
79 94 93 95 96 95 93 87 92 95 96 95 93 84 88 80 76 71 74 82 83 81 75 71 71 73 78 76 80 83 89 93 94 96 95 89 75 75 79 83 78 73 67
92 97 97 96 95 95 93 92 92 93 96 96 92 86 89 84 82 79 78 77 72 69 69 68 69 68 75 83 89 92 92 92 94 96 99 95 73 80 78 76 77 72 67

GFSSE_sfc_rhum_057.txt.gz
RH
77 69 90 90 89 89 88 88 86 84 81 79 78 77 78 77 76 74 74 72 71 68 67 69 73 72 70 70 73 76 77 77 75 71 64 62 63 65 67 68 65 50 67
76 68 89 90 89 88 87 86 84 80 78 77 79 80 79 76 75 74 72 73 73 72 73 71 73 73 71 68 72 75 74 79 78 75 67 62 65 66 68 68 70 56 67
77 68 71 90 89 87 86 84 81 79 76 76 80 80 77 75 74 73 72 73 77 73 72 70 74 74 66 70 75 74 75 76 77 75 67 43 48 66 68 69 69 68 67
77 70 67 90 87 86 84 82 80 76 77 79 80 78 76 75 73 72 71 73 77 76 71 71 76 70 70 76 78 76 76 77 77 70 46 44 45 66 67 69 69 69 66
78 70 71 89 86 84 82 79 78 78 79 79 78 77 76 74 72 72 71 70 71 73 72 74 70 70 76 82 81 77 76 77 75 54 44 48 45 60 67 68 65 70 73
79 80 87 89 86 82 80 79 79 80 80 79 76 76 75 74 72 72 72 70 69 69 64 64 64 70 79 80 79 75 74 73 65 43 45 52 49 63 65 67 69 69 68
97 85 87 90 86 82 81 80 81 81 81 79 77 76 75 74 75 73 73 72 70 69 69 68 69 74 77 77 75 75 75 73 43 43 42 45 53 63 63 64 66 67 67
95 97 94 89 91 88 83 84 84 83 82 80 78 78 78 78 79 77 74 74 75 74 73 72 73 76 79 76 70 74 75 69 43 41 42 44 59 60 60 60 62 63 64
92 92 96 96 92 90 82 90 87 86 85 83 83 83 84 83 80 77 76 76 75 75 75 76 78 77 74 72 72 74 77 70 41 42 40 41 60 58 58 57 57 58 59
92 95 94 95 90 88 86 92 91 91 90 88 88 88 88 86 84 82 78 78 78 78 77 74 78 74 68 68 67 66 66 64 40 40 41 43 57 58 57 57 56 58 58
90 86 89 86 83 82 88 86 88 89 90 88 85 89 81 58 56 52 76 80 77 76 73 70 68 70 69 64 60 60 58 41 39 38 36 69 56 55 56 58 56 57 57
92 88 85 80 71 62 59 78 94 84 80 78 77 75 59 65 59 55 71 78 76 73 71 64 59 55 44 30 31 41 30 34 29 29 34 65 47 53 54 57 56 56 55
85 71 61 63 68 75 78 83 75 72 70 74 79 70 70 69 67 68 60 53 52 53 35 38 36 34 40 34 35 37 35 32 28 26 35 62 57 46 51 53 54 54 53
78 63 81 86 89 84 72 74 74 68 66 66 76 75 76 71 75 68 55 52 53 45 47 41 40 46 44 43 42 41 40 31 29 29 33 68 58 46 50 45 54 50 50
66 66 67 76 82 78 76 72 72 75 66 80 82 81 79 75 78 62 58 50 47 42 43 41 39 39 41 40 39 38 36 39 38 35 43 77 68 50 47 44 46 46 45
55 59 65 68 76 74 73 75 75 77 78 77 75 79 81 74 74 60 54 46 45 40 40 38 37 36 37 38 40 40 40 35 37 47 47 53 72 60 50 46 43 42 42
55 57 66 70 77 77 75 72 70 69 73 74 71 80 81 76 75 67 57 50 44 46 49 46 45 42 37 34 40 39 36 38 37 41 46 47 46 69 57 50 46 42 41
56 63 68 70 79 79 76 72 70 71 73 76 78 84 86 81 77 72 60 52 51 48 50 51 42 41 40 38 39 38 40 37 38 39 36 38 38 34 44 53 52 50 48
63 65 73 79 80 79 78 78 82 83 85 82 83 84 82 79 75 68 56 54 56 49 49 44 47 44 43 41 38 40 45 39 37 28 35 37 39 35 31 40 53 51 53
63 68 72 78 80 81 84 85 85 86 86 84 78 80 76 70 67 61 52 67 51 50 50 48 51 51 48 46 38 39 47 44 39 38 38 34 37 41 39 40 36 32 51
70 74 76 81 82 81 81 89 90 92 88 84 80 76 73 62 60 59 55 62 52 48 51 55 54 57 52 53 46 42 45 51 49 40 42 41 40 42 44 40 36 33 30
70 75 78 77 79 74 68 71 71 76 84 78 80 75 68 63 57 56 62 52 51 51 58 58 57 55 53 53 43 44 38 40 46 45 44 44 50 42 43 44 48 43 39
73 79 75 74 75 73 70 71 75 79 78 79 79 77 66 61 55 58 59 53 56 54 54 59 58 56 50 51 55 39 34 30 41 42 50 46 53 48 47 48 49 50 46
70 74 72 73 74 77 79 73 77 71 76 78 81 74 67 68 66 56 54 56 60 56 60 60 53 52 48 42 50 49 52 45 36 38 44 51 52 52 53 47 46 52 49
68 79 78 76 74 76 77 74 81 80 79 82 82 75 74 66 60 53 56 60 62 58 62 58 60 55 49 47 44 50 54 51 56 53 42 46 48 44 44 44 49 50 46
70 78 80 79 76 77 79 79 81 82 84 86 84 84 74 65 63 62 56 60 62 60 58 61 67 68 69 53 59 66 55 46 42 52 53 53 53 46 47 47 48 49 43

GFSSE_sfc_rhum_060.txt.gz
RH
68 53 90 89 89 89 89 89 88 86 82 80 79 79 78 77 77 76 75 74 75 76 74 72 74 69 68 70 72 73 73 75 73 70 66 64 65 66 68 69 62 47 68
62 52 91 90 90 90 89 88 86 82 80 79 80 79 78 77 77 76 76 76 76 73 72 71 70 64 65 68 71 72 73 77 77 73 69 63 66 66 68 69 71 56 69
62 52 64 90 89 89 87 84 82 80 80 81 80 78 77 76 76 77 79 80 77 75 72 70 63 65 69 72 74 74 74 73 75 69 61 32 44 65 67 70 70 67 68
60 58 56 91 88 86 84 81 80 80 81 80 78 77 76 76 76 79 81 79 79 76 73 65 64 68 72 75 76 74 74 71 72 66 32 31 36 65 65 66 72 74 70
58 61 69 90 88 85 82 80 79 80 81 79 78 76 76 75 75 78 81 79 76 77 73 64 67 72 76 81 80 75 73 71 69 42 31 36 36 57 66 68 60 65 67
68 66 85 90 88 84 82 80 81 81 80 79 78 76 75 75 74 75 77 79 79 77 67 65 68 71 80 81 78 74 72 67 63 28 32 44 43 61 64 66 66 66 68
94 80 85 92 86 83 80 81 82 81 79 79 77 75 75 75 76 76 76 76 74 72 67 66 68 71 77 78 74 75 73 66 27 26 30 37 49 60 60 62 64 64 65
97 98 97 93 90 86 81 79 83 81 80 79 78 77 77 77 78 78 76 76 76 77 76 75 75 74 74 71 71 74 73 68 30 28 32 38 57 58 57 59 60 60 62
94 95 95 94 90 84 85 81 80 85 84 82 81 82 83 82 80 79 78 76 76 75 75 74 77 77 72 69 71 74 74 63 28 28 28 34 59 57 56 57 58 59 60
90 89 93 92 90 89 79 84 86 90 90 89 88 86 84 83 82 81 79 78 78 77 75 71 74 73 70 68 66 66 65 56 25 24 29 40 59 57 56 56 57 58 59
93 89 87 80 80 85 85 86 84 90 89 86 82 82 71 47 45 48 71 82 79 78 76 70 68 66 67 64 60 61 54 22 22 22 27 66 56 56 56 56 56 56 57
96 91 82 75 80 80 71 74 74 73 61 66 59 56 42 49 43 46 67 80 78 75 69 63 59 60 45 23 24 38 20 23 19 18 27 61 50 56 56 55 56 54 54
85 77 78 76 73 65 64 71 66 63 68 65 65 51 52 48 50 46 49 44 46 54 33 36 35 27 32 26 26 26 24 21 18 16 34 63 56 54 52 55 54 53 52
82 77 73 60 62 62 59 60 61 51 57 53 54 54 53 48 52 49 42 42 42 36 39 36 34 38 35 32 31 32 29 21 19 17 38 65 56 51 48 50 51 51 49
66 63 62 83 83 67 58 49 50 52 52 50 52 54 49 49 55 48 46 41 39 38 37 35 34 30 32 30 28 28 27 27 26 23 33 73 63 54 46 44 50 44 44
59 73 74 67 60 51 50 57 53 49 48 51 49 52 59 52 57 50 49 42 40 36 33 32 31 29 27 28 30 29 28 24 28 32 27 43 71 62 51 45 44 43 43
50 49 55 49 54 53 50 53 48 46 46 43 48 62 58 56 59 54 47 44 40 38 40 37 34 31 27 23 27 28 24 28 27 29 27 30 42 68 56 51 46 44 43
39 44 47 44 52 55 51 48 43 43 45 43 48 57 67 59 58 58 54 49 42 40 36 36 33 30 28 25 28 25 27 26 30 29 28 29 27 18 52 51 47 47 46
40 42 46 48 50 58 58 47 49 52 47 44 50 54 67 68 69 64 52 49 49 40 41 37 36 34 32 29 26 29 32 27 29 20 28 31 32 25 22 45 42 45 50
41 45 44 46 53 62 60 58 48 49 47 48 52 55 66 70 72 63 55 50 44 40 41 38 41 36 33 34 25 28 34 31 28 30 29 26 28 31 31 32 29 30 45
42 46 50 52 57 62 59 52 46 50 48 51 52 65 67 68 68 66 52 50 45 43 45 48 44 46 40 40 38 34 34 37 38 31 30 28 30 30 35 33 32 27 28
44 47 49 50 55 56 50 45 43 45 48 46 55 62 64 66 64 60 52 48 50 42 49 49 47 43 42 41 39 37 38 34 35 34 32 30 38 32 31 34 40 40 38
50 50 47 48 51 54 50 44 44 46 52 54 58 76 69 64 57 54 54 49 53 45 46 50 48 48 44 43 42 38 39 38 32 27 35 32 36 36 34 36 36 36 39
51 49 48 48 50 52 55 48 53 44 46 49 56 69 63 62 57 50 54 52 58 46 46 49 44 46 44 42 44 44 41 35 34 32 27 33 39 40 40 37 34 35 39
48 51 53 49 49 52 54 55 54 52 41 45 64 68 70 66 61 54 53 62 60 46 50 51 52 50 46 50 58 45 44 36 39 38 32 25 27 29 30 34 36 35 38
45 51 56 55 52 53 58 62 62 61 55 65 68 69 67 65 61 57 53 61 55 48 52 51 53 56 50 72 72 53 45 34 30 31 33 33 33 31 31 35 36 33 34

GFSSE_sfc_rhum_063.txt.gz
RH
50 52 90 89 90 90 91 90 89 87 84 81 80 80 80 80 79 78 80 80 80 78 72 70 70 69 68 69 71 71 72 75 74 72 68 66 66 67 69 73 62 51 69
51 50 90 88 90 90 91 90 88 84 82 80 80 80 80 80 79 78 80 81 79 75 67 66 65 64 66 69 72 72 70 74 76 75 71 65 66 67 69 72 73 58 68
50 52 62 89 88 90 89 87 84 82 81 81 80 79 80 79 79 79 79 80 78 74 64 64 65 67 70 72 73 70 69 71 68 64 60 36 48 66 70 73 74 72 72
54 60 54 93 89 89 87 85 83 81 81 80 79 79 79 80 82 82 80 80 78 73 64 65 67 69 72 75 73 70 68 68 66 61 31 31 39 68 64 65 67 68 67
65 68 64 92 91 88 86 83 82 82 81 79 79 79 79 83 83 83 82 81 78 70 65 67 69 72 76 79 77 73 70 70 66 39 32 37 38 58 65 67 62 66 67
64 74 88 92 89 86 84 83 82 82 80 79 78 78 80 83 83 82 81 80 77 71 67 68 70 73 78 80 75 70 70 65 70 28 35 46 46 60 63 66 66 66 66
88 97 91 93 90 84 83 83 82 82 81 80 78 78 79 80 82 83 83 81 75 73 68 67 69 72 74 75 71 71 74 72 25 28 34 41 50 59 61 62 63 64 64
91 92 98 94 92 86 82 83 83 83 82 80 79 79 80 80 81 81 79 77 76 76 75 73 74 71 70 71 71 72 71 68 28 30 36 42 56 57 59 60 62 62 61
94 94 98 98 91 85 84 82 81 82 82 84 84 83 84 83 81 80 81 81 80 79 77 73 74 75 69 71 69 68 63 60 27 28 30 40 58 56 57 58 60 61 61
92 96 96 95 93 92 92 85 81 81 90 89 87 86 86 84 82 80 78 78 77 76 74 72 74 72 68 65 63 65 58 57 23 24 34 46 57 56 56 58 58 59 58
97 94 93 92 88 86 89 88 88 86 88 87 83 81 71 60 52 52 76 81 81 78 73 70 69 68 69 64 62 56 58 20 19 22 35 65 57 56 56 57 56 57 56
94 97 93 90 88 80 67 77 78 72 70 58 58 60 49 59 54 56 76 83 80 77 71 68 65 69 59 24 24 41 21 22 18 19 36 62 56 56 55 56 55 54 52
86 80 79 81 80 72 77 79 79 72 66 60 60 52 60 58 62 60 59 50 53 56 34 36 39 33 32 26 26 26 23 20 18 16 38 59 56 56 56 54 53 52 50
88 88 90 87 89 81 73 73 68 69 63 57 52 61 61 59 60 56 44 44 45 38 40 38 36 39 34 31 31 30 28 22 20 18 45 58 52 54 50 57 52 50 49
87 88 89 86 93 81 71 68 65 62 51 52 51 58 58 55 60 49 48 46 44 39 40 39 39 34 33 30 28 27 26 27 26 24 37 74 61 56 46 46 52 42 45
80 76 73 74 72 64 60 50 50 46 44 50 51 55 61 53 59 49 51 43 41 40 38 37 35 33 28 30 30 27 26 24 28 29 30 46 72 64 51 46 44 44 44
70 81 84 70 67 64 56 51 45 42 41 46 45 53 54 54 58 54 49 45 43 40 41 38 37 32 29 24 27 26 25 27 26 27 26 37 48 68 60 51 47 47 47
57 58 52 40 51 52 48 45 40 39 44 47 44 48 57 52 57 54 48 50 50 44 41 40 37 35 30 27 28 26 27 26 28 27 27 28 28 25 57 54 44 42 42
41 44 51 44 45 44 45 45 46 53 46 40 42 46 57 54 56 55 52 53 53 44 43 41 39 38 33 30 28 30 33 29 30 21 27 30 31 26 23 50 45 42 43
37 41 42 44 46 47 50 47 40 42 40 38 40 40 55 65 66 63 54 57 54 44 45 43 44 38 34 33 24 26 35 33 31 30 30 26 28 31 31 32 32 33 47
40 43 42 44 46 47 45 44 39 42 40 40 40 44 53 65 70 68 56 56 55 47 47 49 47 46 39 40 39 38 36 39 39 32 32 30 29 30 32 33 35 30 32
40 42 41 39 41 43 41 40 35 34 34 36 39 45 57 68 66 66 62 56 58 47 52 55 53 46 42 43 44 40 43 39 37 36 33 32 37 32 31 30 34 38 36
40 42 40 38 39 42 40 37 34 34 35 39 39 44 63 67 63 65 63 60 60 52 55 61 54 49 45 45 44 43 46 51 45 34 39 34 37 34 34 32 36 34 35
42 40 38 38 37 39 43 39 42 36 36 37 42 41 60 64 65 59 59 59 58 54 60 61 51 50 49 48 46 38 51 62 53 48 34 32 34 38 43 38 35 35 33
42 43 43 39 38 38 42 45 43 44 38 37 41 47 70 70 63 64 64 70 65 56 62 68 63 53 47 45 55 54 67 59 47 47 46 36 27 28 29 32 34 36 34
37 43 45 43 39 40 42 48 50 51 49 39 40 57 67 68 65 64 59 69 68 68 74 71 62 56 51 53 67 51 60 57 38 48 42 36 33 31 28 29 36 35 33

GFSSE_sfc_rhum_066.txt.gz
RH
62 69 89 89 90 91 91 91 90 87 85 83 83 83 82 81 81 81 82 82 80 77 70 69 68 67 67 67 70 71 76 77 75 73 68 65 66 69 71 72 69 59 68
83 66 91 89 89 90 91 90 88 85 83 83 83 83 82 82 84 84 83 80 77 71 68 66 66 67 67 67 70 71 74 79 77 71 67 65 67 71 74 71 72 60 73
89 74 78 90 89 90 90 89 86 83 82 83 82 83 82 83 84 84 82 77 74 70 65 67 67 67 67 67 70 71 72 73 71 71 62 56 62 64 68 70 70 70 71
86 73 74 92 90 90 89 87 84 82 82 82 82 82 81 82 82 83 81 76 73 71 67 66 67 68 68 70 73 74 75 76 74 60 44 48 52 69 65 66 68 67 69
74 62 78 90 90 90 88 85 83 83 82 81 81 81 81 82 82 84 81 74 73 72 67 67 69 71 72 78 77 75 72 72 72 50 51 52 57 60 66 65 65 67 66
78 75 95 92 90 88 86 84 84 82 82 82 82 82 84 84 83 84 79 75 75 72 68 68 70 71 76 77 74 73 75 73 69 46 52 56 58 62 64 65 65 66 66
93 97 95 95 94 87 85 85 83 84 83 83 84 85 85 85 83 84 79 77 76 73 68 69 70 71 73 75 73 73 71 70 40 46 53 60 59 61 62 63 63 63 63
96 94 94 92 97 95 89 89 86 84 84 84 84 85 86 86 85 83 80 78 78 77 75 72 72 70 70 71 68 66 66 70 42 47 52 59 58 59 61 62 63 63 62
94 95 94 95 96 95 95 89 81 85 85 86 86 86 86 85 83 82 81 81 80 79 76 72 72 74 68 67 63 63 67 68 48 46 46 58 58 58 60 61 62 62 61
94 94 94 92 92 94 94 92 86 91 90 90 89 87 85 85 85 84 83 82 81 78 74 72 73 72 66 64 57 57 62 66 40 49 56 62 58 57 58 59 60 59 60
97 96 94 92 92 91 92 87 89 89 88 87 84 82 78 71 72 67 81 82 81 80 77 72 70 70 64 59 62 58 56 35 37 51 62 69 58 57 58 58 58 57 57
97 97 95 92 91 85 83 75 82 79 83 74 69 70 63 69 69 74 84 83 81 79 76 74 71 68 59 42 44 54 38 37 37 54 68 70 59 57 57 56 55 53 54
94 95 96 96 95 84 80 68 74 74 78 72 73 66 70 73 77 80 78 73 75 69 53 58 62 51 48 46 47 49 41 34 39 39 63 68 62 58 56 55 54 52 50
90 92 92 92 92 94 93 92 89 87 72 68 72 72 73 73 74 73 69 68 67 62 56 58 64 55 48 45 44 43 42 41 41 49 69 62 65 57 58 55 54 51 49
93 93 93 93 95 92 94 93 89 84 68 72 70 70 70 71 74 71 71 65 62 64 63 65 58 52 49 44 42 39 38 37 37 50 76 74 64 60 50 55 49 45 47
92 94 94 94 96 90 94 93 88 75 75 69 72 76 75 73 78 69 74 67 68 64 63 60 60 55 52 46 42 39 38 39 38 52 60 78 73 67 56 47 46 45 44
90 91 93 89 91 86 74 64 61 58 60 69 71 74 72 74 75 74 74 72 67 65 63 64 55 55 50 45 45 42 42 37 38 36 54 64 74 69 66 56 52 48 44
78 84 84 73 71 76 62 52 57 54 61 66 70 74 74 71 74 74 74 74 70 71 64 64 61 56 57 51 51 49 43 40 38 37 41 52 58 55 72 62 51 44 40
69 74 68 66 75 78 67 57 63 66 68 60 69 70 75 72 75 76 76 76 72 71 71 65 65 66 58 52 46 52 51 49 43 31 40 39 46 42 57 64 57 52 44
58 57 52 57 65 66 65 70 65 65 64 63 63 62 70 70 76 77 77 78 73 72 72 67 68 62 62 56 32 41 59 56 52 53 44 38 46 44 42 50 62 58 56
54 58 55 56 62 62 59 62 59 66 59 59 52 59 72 75 80 81 81 80 77 74 72 71 73 68 64 62 64 64 65 61 56 56 55 52 46 46 49 50 52 55 53
52 56 54 53 56 53 53 52 53 55 55 52 58 57 68 78 80 80 84 77 75 74 76 77 72 74 68 70 70 71 71 69 64 59 56 54 55 49 48 47 51 48 54
54 55 50 49 50 52 50 48 48 50 53 52 53 62 70 80 80 78 81 83 78 75 76 77 75 72 65 71 66 69 75 74 71 60 57 59 58 59 55 49 46 50 48
51 51 47 46 45 49 53 49 54 46 47 54 61 56 66 77 79 73 78 84 83 82 78 76 70 70 70 70 72 58 60 68 68 67 58 58 60 53 58 61 56 49 47
47 51 51 48 44 45 49 54 55 58 56 52 60 61 74 80 82 76 79 84 85 87 88 86 75 74 74 73 70 74 74 69 71 78 70 63 57 58 59 69 64 59 47
45 50 52 51 46 46 50 56 63 62 61 58 62 66 81 82 83 81 76 84 86 90 90 93 91 89 96 88 78 69 72 72 66 67 68 63 61 54 51 53 62 58 56

GFSSE_sfc_rhum_069.txt.gz
RH
90 90 91 91 91 91 90 90 88 85 84 83 83 82 82 82 84 84 82 79 77 73 68 67 66 66 68 70 71 75 77 76 75 73 69 67 66 68 70 70 67 61 69
85 85 96 91 91 92 90 89 87 84 84 83 83 82 83 86 85 84 81 78 74 68 66 66 63 63 67 72 74 78 78 74 74 74 68 63 64 68 67 66 73 68 72
78 82 94 93 90 91 90 87 86 84 83 83 83 83 86 86 84 81 78 76 74 70 66 64 60 60 65 69 75 74 73 74 70 71 66 65 62 66 69 65 68 66 67
82 85 86 87 89 90 89 86 84 84 83 84 83 85 86 85 82 78 76 76 75 70 64 62 60 64 70 72 73 73 73 69 68 65 60 61 58 65 66 66 65 64 67
76 72 62 94 94 90 88 85 84 84 84 83 83 84 85 84 80 78 77 76 74 69 65 62 62 67 69 75 75 73 72 71 70 61 68 70 63 61 66 67 66 66 71
93 90 94 91 91 90 87 85 84 84 84 83 83 83 85 84 79 78 78 77 75 69 65 64 63 66 73 75 74 71 69 69 66 64 72 62 62 63 64 64 65 65 66
97 94 92 95 96 93 87 85 84 84 84 84 84 84 85 83 80 80 80 78 76 71 66 66 65 65 71 72 70 72 70 67 57 63 74 74 62 63 64 64 64 65 65
96 97 96 88 86 92 99 85 85 86 85 87 86 86 86 83 82 82 80 79 78 76 73 69 69 66 69 67 70 72 73 64 56 61 66 69 61 62 63 63 63 63 64
95 96 94 93 90 92 96 96 91 87 90 89 88 86 88 84 83 82 82 81 80 79 73 70 70 71 68 66 66 69 73 67 59 58 55 68 60 61 62 62 62 62 63
96 96 95 94 93 94 95 94 93 80 92 90 89 88 86 86 85 84 83 82 80 77 71 68 71 67 61 59 59 61 66 69 61 64 66 63 60 59 61 60 60 61 61
98 96 95 94 94 94 93 90 89 78 90 91 89 87 84 81 79 78 83 82 81 79 76 70 68 63 58 53 52 55 57 60 65 68 77 68 60 59 59 58 58 59 58
98 98 95 92 92 86 83 88 90 91 93 86 82 81 74 79 80 78 83 83 82 80 78 73 67 64 51 45 49 52 44 61 68 76 82 70 60 59 58 56 55 56 55
97 96 94 92 91 82 78 78 80 93 90 79 75 68 80 83 81 84 80 81 84 74 66 67 61 54 53 52 47 45 44 50 63 68 77 73 62 59 58 57 54 52 53
96 97 96 94 93 87 84 76 86 92 79 80 76 82 82 81 78 76 76 75 66 64 57 62 67 54 49 44 43 42 41 50 58 67 76 73 68 59 57 56 54 53 50
94 96 97 93 93 93 93 95 93 93 74 79 74 82 87 79 75 74 75 73 67 63 58 70 56 52 48 44 42 40 38 45 57 66 76 70 71 62 59 55 53 50 50
94 96 95 93 94 92 90 90 92 89 76 79 77 79 80 82 71 78 79 70 70 67 68 62 58 55 52 46 43 40 41 44 62 71 80 78 71 67 58 52 50 45 46
91 91 94 94 91 86 82 81 83 84 76 77 79 79 78 83 77 82 78 75 74 68 66 63 63 58 56 46 43 42 40 41 46 62 72 77 78 72 68 56 53 50 46
90 87 85 81 80 87 87 76 70 70 73 74 80 82 80 80 78 80 74 78 74 75 72 67 63 61 58 54 51 48 47 46 39 40 66 70 72 66 74 68 57 48 40
86 85 86 83 84 87 74 66 65 67 74 74 84 81 79 80 78 82 79 81 76 75 73 65 66 62 64 60 52 56 54 50 43 35 49 65 67 72 74 72 64 55 45
81 81 76 75 78 79 70 71 81 78 78 75 83 79 80 82 79 80 86 82 76 75 75 75 67 75 66 57 40 49 60 59 52 55 46 44 50 57 66 68 69 65 61
81 77 68 73 72 79 78 72 76 73 79 80 78 75 84 81 85 86 90 85 81 75 77 72 72 74 70 68 66 70 70 67 62 62 56 52 49 50 55 61 62 64 64
67 63 62 62 62 72 65 68 74 68 77 73 71 73 77 85 87 88 90 89 85 80 83 76 76 79 67 72 70 75 78 72 70 61 65 58 56 56 53 53 55 58 61
58 59 55 59 62 65 58 66 70 77 76 69 73 64 88 83 84 89 92 94 86 87 82 86 80 80 69 75 69 69 77 82 78 71 67 62 59 66 59 55 57 53 61
61 60 56 55 58 62 61 58 61 57 65 63 66 72 85 83 88 87 87 90 89 84 88 90 84 85 80 82 72 59 62 68 79 78 67 65 61 59 65 65 60 59 55
55 60 57 56 55 56 57 57 59 59 59 67 70 64 88 87 85 86 88 92 94 88 88 88 90 87 97 98 95 85 89 92 81 76 80 64 58 67 67 68 68 68 56
52 54 53 55 53 52 54 58 58 56 63 62 68 70 81 91 89 87 84 88 92 90 89 95 97 96 99 98 98 96 94 94 87 75 74 67 59 58 59 62 77 71 65

GFSSE_sfc_rhum_072.txt.gz
RH
91 90 92 91 93 92 92 90 88 86 84 85 84 85 85 84 83 81 80 78 76 72 66 68 73 71 69 69 70 74 76 77 76 72 68 63 65 65 71 73 73 60 66
91 89 92 92 92 91 89 89 86 84 82 83 84 86 86 84 82 81 79 77 74 68 64 67 71 71 71 72 76 77 73 78 76 72 67 65 64 65 69 70 73 70 73
88 91 88 91 90 89 85 87 85 84 82 82 85 87 86 83 81 79 77 75 72 67 61 67 69 70 71 70 71 73 72 72 75 72 69 67 64 66 66 64 71 73 73
87 91 90 85 84 81 91 87 85 84 82 83 86 86 85 82 80 78 78 75 72 66 60 65 68 69 66 69 75 74 72 69 71 71 68 66 58 65 65 64 70 70 73
87 87 86 87 78 86 90 90 85 84 82 85 86 85 83 81 79 79 78 75 71 65 59 65 67 66 67 75 74 76 74 70 71 70 81 75 65 63 66 67 66 68 63
90 87 81 83 84 87 89 92 87 84 84 86 86 84 81 80 80 79 78 74 71 65 61 64 65 66 71 76 78 77 75 72 71 80 80 65 64 64 64 66 66 65 66
98 98 95 91 89 92 92 96 92 84 86 86 86 82 81 81 81 80 78 76 72 68 62 62 63 70 71 76 77 75 74 72 68 79 81 78 64 63 63 65 66 65 65
98 98 96 93 91 92 90 90 94 86 86 87 87 82 81 82 82 81 80 78 76 74 70 66 69 70 70 74 75 75 73 69 64 74 74 72 64 63 63 65 65 65 65
97 97 97 96 92 88 90 96 93 88 88 88 86 83 84 84 83 82 81 80 77 73 70 68 69 69 68 67 76 76 74 70 66 66 62 73 63 63 63 63 64 64 64
96 97 97 96 95 94 91 94 95 87 85 89 85 88 87 86 84 84 82 81 78 74 70 68 66 67 65 68 76 76 75 72 73 75 75 65 62 62 62 62 62 62 62
97 98 97 96 94 93 93 92 91 91 83 91 90 89 86 82 81 78 82 81 79 76 71 68 68 66 63 67 74 74 71 73 77 81 81 68 61 60 60 60 60 60 60
98 98 97 94 91 84 83 90 92 90 97 93 92 91 87 82 79 79 83 82 80 77 71 67 69 67 57 49 57 66 74 79 82 84 82 70 61 59 58 58 58 57 58
97 96 94 94 90 83 80 76 88 95 98 96 87 87 83 84 84 85 82 85 82 73 64 59 56 61 51 51 50 61 70 78 84 85 79 72 62 59 58 55 56 56 54
97 95 93 92 91 89 78 77 85 89 91 86 85 84 85 89 89 87 78 78 68 63 60 62 68 56 52 46 45 51 58 66 78 84 87 76 67 60 59 57 54 53 51
97 97 96 93 88 89 86 86 84 94 77 76 82 83 79 81 82 82 77 71 63 60 65 67 57 53 50 46 44 43 48 53 59 70 84 79 75 63 58 57 56 54 50
94 96 96 91 88 86 89 91 90 82 80 73 81 84 85 79 78 74 70 68 69 62 70 62 56 52 51 47 44 43 49 58 58 67 76 81 77 73 65 57 52 47 48
94 94 95 95 93 88 86 85 81 67 80 72 78 81 82 79 82 78 76 80 75 72 71 64 62 59 55 46 44 43 49 60 64 68 71 79 81 76 70 59 52 52 49
92 95 89 89 92 88 79 76 77 75 77 72 79 82 83 79 82 83 72 79 79 76 74 71 68 66 61 55 53 52 48 48 60 64 71 78 79 72 73 70 60 54 43
88 92 90 89 86 82 73 82 79 76 78 75 82 85 87 80 81 83 78 83 83 82 80 72 72 66 66 62 54 56 56 52 46 48 68 74 77 78 80 75 70 62 48
86 84 90 82 82 78 78 77 80 75 77 79 84 84 82 84 86 83 85 87 84 81 78 73 67 74 68 66 43 49 60 58 54 56 65 65 73 74 76 77 78 67 63
82 82 82 80 80 83 70 73 72 72 88 87 89 80 88 88 87 89 90 88 85 75 75 75 74 73 79 70 68 71 72 71 63 62 59 64 58 56 74 73 75 66 70
91 87 83 82 83 84 74 66 69 77 85 73 82 84 81 88 90 89 92 86 86 80 81 82 78 86 79 78 70 69 70 72 77 68 69 58 60 60 61 64 63 61 66
89 87 74 75 74 73 77 73 82 84 81 80 83 82 86 85 84 86 89 89 85 88 84 87 82 79 83 84 70 74 86 82 75 69 68 72 66 69 61 61 60 59 61
80 75 65 63 61 68 76 62 71 61 68 63 75 76 84 87 85 84 87 92 93 91 91 90 86 87 86 87 93 89 91 85 84 74 63 66 67 62 63 66 64 62 62
65 64 60 60 59 61 68 61 70 71 73 79 80 78 81 91 87 85 91 94 95 91 89 94 95 93 92 94 95 96 95 97 96 93 92 73 66 62 63 66 72 73 65
54 56 59 60 59 61 68 65 66 65 76 78 75 76 88 92 90 89 89 91 93 95 94 96 95 94 96 97 96 95 95 95 97 97 96 86 74 56 52 57 74 77 76

GFSSE_sfc_rhum_075.txt.gz
RH
96 98 93 92 90 89 90 90 90 87 83 83 84 84 84 84 84 83 80 77 75 74 69 69 71 68 68 68 71 72 75 73 73 62 65 67 72 70 71 69 70 61 70
90 95 95 92 91 89 88 88 88 87 83 82 83 84 84 84 83 81 78 76 75 73 69 69 69 69 70 71 74 74 74 76 76 73 67 65 71 67 71 77 77 70 74
93 95 93 94 91 89 88 88 86 86 85 84 84 84 84 83 82 80 77 75 74 73 69 69 70 72 72 74 73 73 74 73 75 71 70 72 57 65 72 72 74 74 76
88 93 92 93 91 87 88 87 85 83 85 86 85 84 83 82 80 78 75 73 75 74 70 70 70 71 73 77 74 72 75 74 73 74 73 71 59 65 72 70 68 70 72
90 90 93 93 90 84 87 82 84 84 84 85 85 83 82 80 79 77 74 72 74 73 69 66 65 72 78 79 77 72 72 72 73 74 82 77 67 64 67 64 62 65 62
92 89 91 92 92 89 83 82 82 86 86 86 85 83 81 80 79 77 73 71 73 73 66 62 66 75 81 80 78 73 73 76 77 87 83 66 67 65 65 66 64 66 65
95 97 89 89 87 84 85 82 83 86 92 90 85 82 81 81 79 77 74 72 74 72 65 66 75 82 81 79 76 74 75 74 76 87 85 80 65 64 65 65 66 66 65
98 98 94 85 86 87 87 84 86 88 87 91 84 82 82 82 80 78 76 74 74 73 71 72 80 80 79 76 74 78 77 73 71 82 79 73 63 64 65 66 65 65 64
98 98 97 95 93 90 91 88 89 93 90 91 84 83 84 84 82 80 79 77 75 71 70 69 75 80 78 76 77 78 78 73 77 74 68 72 63 63 64 64 64 64 64
98 98 99 98 96 96 94 95 92 92 89 83 82 87 87 86 84 82 80 76 72 67 67 68 71 76 79 79 78 78 78 74 79 80 80 65 63 62 63 63 63 63 63
98 98 98 98 97 96 94 92 95 92 91 87 83 89 87 85 84 85 80 77 72 68 70 67 70 82 81 80 80 79 72 76 81 85 85 70 63 63 62 62 62 61 60
99 99 98 97 94 89 83 89 92 95 96 89 81 89 88 86 87 83 80 76 72 69 70 72 67 70 70 73 76 75 81 84 88 88 86 70 62 62 61 61 61 60 57
97 98 97 95 93 87 86 82 88 97 99 99 94 89 82 86 88 85 83 75 71 63 55 57 50 45 49 63 76 83 86 88 94 89 81 72 62 60 60 60 58 57 55
97 97 96 92 92 87 81 80 86 96 98 99 95 82 85 88 89 88 83 78 72 67 62 64 58 56 51 61 69 76 81 85 91 95 86 76 67 61 58 57 56 54 53
97 96 95 93 95 90 86 87 90 94 95 96 92 81 78 79 81 82 78 71 69 66 68 64 57 53 51 50 57 67 70 75 81 86 96 80 74 64 60 59 57 54 52
96 97 96 92 94 87 88 88 84 92 84 89 90 82 80 78 78 77 74 68 67 69 72 63 56 54 52 50 50 51 52 60 67 79 88 90 79 73 65 58 56 54 50
94 94 96 90 91 86 81 81 86 79 78 75 81 82 81 81 81 76 78 75 71 72 70 64 59 58 54 47 46 54 58 58 59 68 80 86 86 81 75 65 55 50 51
91 95 93 90 89 93 81 80 82 84 75 75 80 81 81 80 82 81 77 78 80 79 73 70 67 63 58 54 52 52 60 66 62 63 70 81 86 78 75 68 63 56 48
90 92 92 92 92 95 94 82 89 85 76 79 82 79 78 81 84 79 80 82 84 81 77 70 71 66 63 62 55 59 57 60 66 59 69 78 85 83 83 76 72 67 52
88 90 92 95 94 92 89 90 87 81 83 85 80 83 88 81 86 88 87 86 85 83 82 77 70 72 68 65 46 50 61 60 58 68 72 71 82 80 82 83 85 76 65
88 89 92 93 91 87 88 87 85 82 85 87 83 86 90 85 85 88 91 90 88 79 77 75 74 71 78 74 69 71 71 69 66 62 66 78 79 77 83 82 87 75 72
91 85 88 86 83 77 71 74 72 75 82 83 92 89 86 92 90 89 90 88 87 81 83 82 78 84 80 78 71 72 68 72 80 69 70 65 79 70 74 75 77 69 66
93 88 88 87 86 81 64 68 76 74 79 86 92 94 91 90 92 90 92 92 92 89 85 86 81 80 84 83 74 71 86 84 77 76 73 66 60 65 63 63 66 65 66
94 94 86 85 84 84 81 70 74 78 78 81 84 86 91 92 91 93 93 94 93 91 92 85 85 87 88 93 93 93 91 88 89 82 66 69 70 65 64 69 67 59 58
91 93 85 81 76 74 74 76 78 77 77 80 84 84 86 93 92 90 92 94 94 93 86 90 93 93 92 94 94 97 95 96 93 92 91 84 75 66 66 68 68 68 62
92 88 80 76 71 68 72 83 76 84 88 89 87 84 88 87 93 93 91 94 92 92 94 93 94 95 95 95 96 92 95 95 97 97 97 92 83 67 56 58 67 70 70

GFSSE_sfc_rhum_078.txt.gz
RH
97 97 94 92 91 90 91 89 89 87 85 85 86 85 85 85 85 84 82 80 78 75 69 68 70 67 68 69 69 71 73 70 72 74 67 68 66 63 64 67 72 69 73
89 93 94 92 91 90 90 88 88 88 86 86 85 85 85 85 84 82 79 77 76 73 68 68 68 68 70 73 74 74 74 75 74 75 71 67 69 71 73 75 76 71 73
96 90 90 90 89 89 83 85 85 86 87 85 85 85 86 84 82 80 78 77 75 72 68 68 69 69 72 74 75 74 74 74 75 72 66 66 69 72 74 74 72 70 69
93 96 94 91 86 85 81 81 81 84 84 85 86 85 85 83 80 79 78 76 75 73 66 66 70 70 72 74 75 75 75 75 75 75 74 73 64 69 69 70 66 70 63
92 93 91 91 88 90 87 92 83 83 85 86 85 84 84 82 79 78 78 77 75 74 73 73 73 75 75 78 78 75 74 74 74 74 77 74 64 63 66 64 61 63 63
92 92 94 89 86 84 82 88 89 83 84 85 84 83 82 80 78 77 79 77 76 73 68 72 77 76 79 78 77 74 74 76 79 84 79 67 66 63 63 64 64 63 63
96 96 95 92 88 81 84 83 87 87 86 83 83 82 81 79 77 77 78 78 75 71 68 76 78 77 79 77 75 76 76 76 81 84 81 76 66 64 66 65 65 65 62
98 95 94 88 88 87 85 87 88 82 83 86 85 82 81 80 77 76 79 77 73 74 78 82 80 78 77 76 76 78 79 74 75 81 77 68 64 65 65 66 65 65 64
98 98 97 94 93 90 89 89 89 86 85 85 83 84 82 81 79 78 79 77 75 81 83 82 80 79 78 77 78 80 80 76 81 76 69 67 65 64 65 65 65 64 64
98 98 99 99 98 97 97 92 86 84 83 86 86 86 86 84 82 80 78 74 74 80 82 81 80 80 79 80 80 81 81 76 80 78 78 64 65 64 65 65 65 64 64
98 98 98 98 96 96 96 96 90 88 87 94 85 85 87 83 81 79 73 72 70 73 80 82 82 80 80 80 81 80 75 80 82 84 80 70 65 64 64 64 63 63 62
99 99 98 97 96 92 87 94 94 90 93 93 86 89 88 84 77 77 72 72 72 74 80 81 83 82 79 82 76 76 81 83 85 87 81 71 63 63 63 63 61 61 60
98 98 97 96 95 88 88 90 93 95 97 96 88 89 83 82 83 83 73 68 72 71 68 76 80 74 81 82 79 84 85 86 89 87 78 72 64 62 62 62 59 58 57
98 98 96 95 93 89 82 87 95 98 95 95 95 86 85 84 80 84 75 73 69 69 61 58 60 66 75 78 80 85 87 90 92 91 83 75 67 62 61 59 57 56 55
98 98 97 95 92 91 92 93 96 97 95 95 94 82 79 77 80 74 70 64 66 68 59 59 54 60 69 73 78 80 86 88 90 91 91 79 73 63 59 58 56 55 54
94 96 95 94 92 91 94 91 92 95 96 97 94 83 77 73 74 68 64 61 64 66 64 58 54 54 63 65 72 74 78 82 86 89 89 84 78 72 65 60 59 57 54
94 94 94 94 94 88 88 86 88 89 95 96 88 86 82 75 70 65 65 65 67 70 63 61 58 57 58 53 59 60 63 70 77 82 85 87 83 81 75 66 56 55 54
92 94 92 87 92 91 82 78 89 89 94 95 90 86 81 78 73 65 62 69 73 74 67 65 63 60 59 57 58 61 60 60 62 74 82 84 87 81 79 75 68 57 53
90 94 95 92 94 94 89 92 96 95 92 90 91 84 80 80 78 70 69 76 78 80 76 69 71 64 61 59 55 60 65 69 65 56 69 80 86 84 82 76 72 69 59
88 90 93 95 94 96 97 97 98 97 96 89 87 82 78 86 84 80 80 82 86 85 80 75 70 73 66 64 46 53 63 63 65 74 70 68 81 85 82 82 82 78 68
89 92 95 95 95 95 97 98 97 94 93 93 86 82 88 82 84 82 88 88 88 83 80 79 75 71 77 72 67 68 70 68 66 64 67 77 80 82 84 82 86 80 73
91 90 92 92 92 90 83 92 96 88 92 85 89 85 79 87 88 88 90 88 88 88 86 83 77 83 80 77 72 74 69 67 78 67 61 59 70 75 77 78 82 81 69
91 90 89 86 87 83 79 91 89 90 94 90 96 94 95 93 90 88 92 91 89 91 84 86 83 79 82 87 78 75 85 82 82 77 73 66 63 72 70 71 72 71 69
88 78 83 82 84 78 75 81 83 78 81 83 90 90 96 94 94 86 88 90 90 92 92 86 84 87 87 91 93 92 90 87 86 82 75 70 70 63 65 69 61 63 62
80 93 94 89 88 84 77 68 76 84 78 82 85 88 92 94 92 93 93 95 95 92 91 92 93 90 92 94 92 97 96 96 91 89 86 86 76 73 72 67 68 69 63
93 97 96 93 89 85 82 82 76 82 80 84 87 84 86 89 94 94 93 95 94 94 95 92 93 93 93 94 96 94 92 94 94 95 95 90 87 78 63 66 69 70 71

GFSSE_sfc_rhum_081.txt.gz
RH
74 72 94 93 92 92 92 90 87 86 86 86 85 85 84 84 85 85 83 81 78 77 72 68 73 70 68 66 68 73 76 78 76 72 67 64 66 66 75 74 74 62 73
77 74 94 93 92 91 90 91 89 87 86 86 85 84 84 85 85 84 82 80 78 73 69 68 69 72 71 66 72 72 77 80 78 76 73 69 69 71 72 72 71 57 70
88 78 80 93 92 90 89 89 88 87 86 86 84 85 85 86 84 82 80 78 75 72 66 66 66 72 71 73 75 74 74 75 74 76 75 57 57 70 69 69 67 64 70
85 89 79 93 89 87 87 90 88 87 86 85 86 86 85 84 82 80 79 77 75 72 67 66 68 71 74 76 77 76 75 75 74 73 50 50 50 68 68 68 62 68 66
82 92 86 92 88 86 86 84 83 89 90 85 86 85 84 82 81 80 78 77 75 71 65 66 69 73 76 81 79 76 75 74 75 56 45 49 52 59 62 63 62 63 62
82 91 92 92 91 87 84 83 82 85 90 86 86 84 82 81 81 80 79 76 74 73 73 68 74 77 82 80 79 77 76 74 66 43 47 51 48 62 64 62 64 64 64
87 95 93 91 88 83 78 82 85 86 97 86 85 84 82 81 81 80 79 79 78 77 74 75 76 77 80 80 76 76 76 74 47 46 44 46 52 63 66 67 63 64 64
92 93 92 89 85 84 84 84 86 90 88 89 85 83 81 81 82 82 80 78 77 79 82 81 77 76 78 77 76 78 79 71 50 46 44 46 62 63 64 64 63 64 64
96 96 95 92 80 89 88 88 87 88 88 86 84 83 81 82 82 82 79 76 78 84 83 81 80 80 78 78 78 80 81 73 49 47 44 47 64 63 64 64 64 64 64
97 97 97 98 97 95 88 89 91 90 87 91 86 83 83 82 84 80 78 82 82 85 84 82 81 81 81 81 82 82 82 74 50 47 44 50 65 64 64 64 64 64 64
96 98 98 97 95 94 92 93 89 90 88 88 90 88 85 76 74 70 74 86 85 85 82 82 82 82 83 82 82 82 73 50 50 47 45 70 65 64 64 65 64 64 63
97 98 98 94 95 94 91 86 84 86 85 85 96 88 85 78 70 66 74 84 85 83 83 82 82 83 69 55 59 70 50 54 50 49 49 72 65 64 64 63 63 62 62
94 95 96 95 94 90 84 88 88 94 95 98 96 92 86 74 69 65 70 70 74 77 62 65 67 52 56 52 52 54 58 57 51 48 59 73 65 63 63 62 60 59 58
93 94 95 94 94 96 96 89 94 96 97 98 96 86 77 68 68 66 65 68 66 65 66 64 58 62 61 55 56 60 58 53 50 49 59 76 70 62 62 59 58 56 54
92 94 96 92 89 85 87 94 97 98 97 96 93 76 69 67 70 65 65 56 60 61 63 61 59 60 58 56 55 57 59 58 58 49 50 79 74 66 61 58 56 55 53
91 93 94 91 89 83 90 96 98 98 96 97 90 74 73 67 67 61 59 57 57 50 53 58 58 56 52 50 55 56 58 56 58 59 50 56 77 72 64 58 56 55 55
90 92 94 90 87 83 88 97 96 96 95 96 86 80 70 64 60 58 56 62 59 49 57 51 55 54 52 48 52 54 55 59 58 62 57 51 58 80 75 67 61 58 56
88 94 91 86 86 86 86 95 97 94 95 94 83 75 76 66 58 56 53 59 62 60 51 48 48 50 48 47 50 49 50 56 60 62 58 57 56 51 72 76 70 62 56
86 91 93 91 86 86 90 93 96 98 96 94 79 72 75 65 62 54 51 62 67 65 59 49 48 45 44 42 40 43 45 48 56 55 62 64 63 58 51 72 78 71 65
84 89 93 92 90 89 95 97 98 97 98 94 72 64 67 62 59 56 54 73 72 68 56 52 51 53 46 41 29 39 48 48 46 44 49 58 60 64 62 60 56 52 73
87 89 94 96 93 94 97 98 98 98 97 96 86 76 72 64 62 62 58 62 70 60 62 67 58 59 53 51 49 45 45 49 50 45 46 44 48 57 67 61 54 45 59
87 88 92 91 90 89 92 96 92 96 97 92 94 86 72 69 66 60 66 60 64 59 68 66 61 56 54 53 48 48 50 47 46 44 40 46 66 72 74 78 66 74 70
88 87 92 88 86 87 92 96 95 97 97 95 92 84 72 71 63 62 66 62 66 65 64 68 65 64 56 58 58 52 62 60 52 52 54 45 48 58 65 66 77 74 76
80 86 84 86 87 85 92 92 92 81 88 81 81 69 60 71 67 62 64 67 70 68 69 70 66 65 65 67 68 70 70 64 60 63 63 56 54 50 51 56 67 72 73
75 83 86 83 82 80 81 84 86 85 77 68 70 70 75 75 70 64 67 72 74 71 73 76 77 74 74 71 70 75 73 75 76 76 81 80 54 56 49 59 63 70 67
72 77 81 82 78 75 73 75 81 78 74 76 74 69 73 72 75 76 71 73 75 76 79 80 78 77 77 75 72 74 69 78 78 79 90 85 66 60 50 58 62 73 72

GFSSE_sfc_rhum_084.txt.gz
RH
54 44 93 90 91 91 91 91 88 88 88 88 88 85 84 84 85 86 84 82 80 77 71 71 73 71 70 70 70 75 77 75 75 76 73 72 73 72 70 74 70 58 75
62 50 94 92 91 91 91 90 89 88 88 88 87 84 83 85 85 85 82 80 79 75 70 70 71 70 70 72 74 79 79 77 74 73 73 72 72 70 68 73 73 60 73
76 57 69 93 91 91 90 89 88 88 87 87 86 84 85 85 85 83 82 81 78 74 70 72 71 65 67 72 77 78 79 81 78 75 68 48 58 68 66 70 71 70 71
74 76 65 94 92 91 91 88 88 87 87 86 85 85 86 85 84 83 81 79 76 74 67 72 72 71 73 77 77 75 76 76 78 72 50 49 49 65 65 68 66 67 66
67 84 64 92 92 91 91 88 83 80 87 85 85 85 85 84 83 81 80 77 75 72 70 71 72 74 78 81 80 78 76 75 73 51 33 41 44 57 63 63 62 63 66
56 84 84 92 90 90 84 86 82 92 86 84 84 83 84 83 82 81 79 77 75 73 70 68 74 79 82 82 81 78 77 73 69 32 40 48 43 62 65 66 65 66 65
67 89 86 92 90 87 84 88 87 90 88 86 89 92 84 82 81 82 79 76 75 74 74 73 77 78 81 82 78 78 76 72 32 32 33 39 50 65 65 63 65 66 64
71 87 92 85 90 87 84 86 87 90 89 86 86 90 83 82 82 81 78 78 79 78 81 79 80 78 79 78 78 78 75 64 36 31 35 41 63 63 63 63 65 65 64
79 83 92 86 78 88 90 89 92 92 92 93 94 91 82 84 82 83 83 82 83 83 82 80 82 81 78 78 78 80 76 71 33 34 35 41 64 63 63 64 64 64 64
88 89 92 88 84 81 84 95 88 91 88 87 92 91 89 86 84 82 82 86 86 85 83 82 83 81 80 82 81 82 77 70 33 33 34 44 65 63 63 64 65 64 65
90 91 93 94 82 87 80 90 92 89 90 90 84 88 88 77 72 70 71 87 86 85 83 84 83 83 84 83 82 80 75 33 34 32 37 71 65 63 63 64 64 64 64
76 95 95 96 91 83 76 85 88 91 91 91 92 87 87 86 73 60 77 88 86 84 84 84 84 84 68 43 50 68 33 37 34 35 41 72 65 63 64 64 63 62 62
74 90 93 96 94 94 91 90 79 83 92 92 94 92 87 92 77 70 70 70 73 68 51 58 62 40 40 37 40 36 39 39 34 35 56 74 65 63 63 63 62 62 61
73 84 87 93 92 92 88 92 86 72 91 92 98 98 92 89 75 68 58 62 62 49 52 48 42 43 43 39 40 42 42 35 34 36 56 76 70 63 62 61 59 58 57
69 80 83 87 90 94 93 86 85 91 97 96 96 94 92 91 77 66 63 62 57 52 52 47 44 44 43 40 40 42 41 39 41 35 44 77 74 66 61 59 56 54 53
62 80 86 86 86 75 86 93 93 98 97 95 95 92 90 91 71 60 56 60 58 59 51 46 46 43 37 36 39 41 41 40 40 41 39 52 76 73 65 58 56 54 53
64 78 86 86 83 78 81 94 95 98 96 94 95 88 78 70 63 57 50 53 55 56 58 48 47 41 36 32 37 39 39 42 40 43 39 42 54 79 72 66 58 56 55
67 82 83 82 83 80 92 94 94 97 94 94 90 82 65 62 55 50 49 57 50 51 54 51 45 39 36 33 36 36 36 40 44 45 41 40 41 40 69 76 70 62 59
64 81 86 84 85 84 94 93 93 94 94 93 82 65 57 56 55 52 51 52 49 49 49 41 38 38 39 34 33 34 35 36 43 38 42 47 48 43 41 75 80 76 69
65 81 86 87 87 84 97 94 95 93 95 93 69 55 53 49 56 49 44 51 40 38 40 37 41 37 35 32 23 29 33 33 35 40 43 41 43 48 46 45 52 52 75
68 87 91 92 85 84 97 97 96 94 93 94 76 70 67 45 46 45 43 47 41 42 45 49 43 46 39 38 32 34 38 40 41 35 35 36 41 44 48 45 50 41 57
68 81 92 90 91 90 85 92 91 94 90 88 80 72 66 66 52 44 48 50 50 53 58 55 53 47 42 42 45 46 48 42 38 38 34 35 41 34 45 67 72 73 67
67 76 89 86 86 86 88 95 96 91 95 94 84 76 67 62 50 47 52 52 60 50 53 57 55 52 48 46 48 46 54 56 45 39 43 36 42 46 38 43 57 54 55
66 69 80 84 81 80 84 91 94 86 86 81 74 74 71 62 56 44 47 51 55 50 52 56 50 53 53 52 49 44 52 51 49 63 44 47 44 47 56 46 45 44 52
63 66 75 82 81 80 84 88 92 91 77 74 72 72 70 70 60 50 50 54 55 50 55 56 58 61 53 56 51 49 54 52 55 56 62 61 51 52 61 53 41 43 51
62 67 73 81 82 83 81 85 86 84 83 83 76 72 55 50 50 55 48 54 56 54 57 59 62 63 63 59 57 57 56 55 55 58 62 65 77 55 53 60 50 48 44

GFSSE_sfc_rhum_087.txt.gz
RH
41 52 89 87 89 91 90 90 90 90 90 89 88 86 84 86 86 85 83 82 81 78 72 72 74 75 73 72 73 79 82 81 79 79 76 71 71 71 72 76 72 63 78
46 43 93 92 90 91 90 91 90 90 89 89 88 86 86 87 87 84 84 82 79 76 71 72 72 73 72 74 79 79 79 80 80 79 78 72 73 74 73 76 76 66 74
55 51 62 90 88 91 91 91 90 88 88 88 87 86 87 87 86 84 82 81 78 75 72 71 72 72 74 76 80 80 78 78 79 77 71 53 58 72 73 74 74 72 72
61 64 57 93 92 90 90 87 88 87 88 88 86 86 86 86 85 83 82 80 79 77 71 68 67 73 76 79 82 82 81 80 76 71 50 49 50 68 68 68 68 70 69
52 56 62 91 93 92 90 85 84 85 84 87 86 86 86 86 84 84 82 80 78 76 71 70 71 77 79 82 82 81 79 78 72 52 37 44 45 58 64 64 64 65 68
45 55 77 94 93 92 89 81 82 83 82 86 85 85 84 82 83 83 81 78 76 77 74 73 77 80 83 84 82 78 75 74 76 33 37 47 46 66 67 68 66 66 69
51 58 70 92 91 91 89 85 87 86 90 94 93 86 82 83 83 82 80 78 79 77 78 78 80 80 83 83 80 76 75 70 31 33 35 42 53 64 66 67 67 66 67
57 61 77 87 90 86 88 88 85 90 87 88 93 85 80 84 84 82 80 80 79 78 81 82 84 81 82 81 78 74 70 72 33 32 36 45 64 64 65 66 66 66 66
62 62 69 80 82 87 87 88 86 89 89 89 89 78 73 84 87 80 80 80 82 83 83 82 84 84 82 80 78 75 73 71 30 34 36 45 65 63 64 65 65 65 65
63 66 67 75 82 81 75 91 90 87 87 82 85 86 89 88 88 82 82 84 85 84 84 82 84 84 83 82 80 75 72 71 32 32 35 49 65 62 64 64 65 64 64
67 64 74 71 77 79 75 77 88 88 90 83 92 94 97 94 76 70 75 86 85 84 84 83 84 85 85 82 79 75 79 30 30 31 41 71 64 62 64 64 65 64 64
60 64 71 81 74 77 68 72 77 75 82 82 89 90 97 96 83 68 83 88 85 85 85 85 85 84 63 46 47 67 39 32 30 35 46 73 63 62 63 64 64 64 64
51 59 70 88 94 79 80 78 77 89 91 93 92 94 97 96 93 83 90 75 75 75 60 61 61 40 40 40 42 40 36 35 32 37 59 73 66 63 63 63 63 62 63
60 65 72 88 95 93 92 90 79 91 93 96 95 95 98 97 94 87 73 68 61 56 57 52 42 45 42 38 39 40 39 32 33 41 59 75 70 63 62 62 62 62 61
50 72 74 81 90 90 94 96 95 87 90 94 96 96 97 96 94 87 70 58 52 51 51 48 42 40 40 39 38 40 38 36 38 39 49 78 74 66 62 61 59 58 57
42 67 72 75 80 80 90 96 91 90 93 93 96 97 94 96 92 84 72 60 53 49 50 47 46 41 37 37 40 39 37 38 37 43 45 57 78 73 66 60 57 55 54
42 60 76 75 78 75 85 91 91 92 97 95 95 95 90 89 90 89 82 69 62 55 56 56 51 40 34 33 38 38 37 39 37 40 42 47 59 79 73 67 59 56 53
41 59 70 75 78 80 85 92 94 97 98 96 94 92 95 86 83 85 76 69 65 61 55 57 53 45 40 35 39 38 37 38 41 42 39 43 46 45 71 75 70 64 59
42 57 73 82 83 87 93 93 96 95 96 94 93 92 86 81 80 72 62 62 67 60 60 54 52 56 48 37 35 35 37 37 41 36 40 42 45 43 45 75 78 75 70
44 62 78 85 86 87 95 95 94 94 94 92 89 82 77 73 71 62 59 68 61 58 58 51 54 46 44 38 26 32 36 35 38 39 40 39 41 45 43 53 59 59 80
50 70 80 86 91 92 97 97 94 94 90 87 81 82 79 64 56 58 56 56 51 47 48 54 50 53 47 39 32 34 36 38 39 37 38 39 42 44 47 44 52 48 64
55 64 79 81 83 88 91 91 90 90 85 82 77 62 50 56 52 49 52 50 49 46 56 57 56 49 41 45 40 40 47 43 39 39 36 39 50 41 43 48 51 53 53
59 64 71 79 74 81 91 93 90 87 91 89 86 68 56 52 47 47 56 52 59 62 65 64 57 57 50 47 48 47 59 64 58 42 49 41 47 44 42 42 49 51 54
57 59 65 71 77 76 88 92 89 85 84 75 71 56 65 63 58 53 63 64 66 61 60 62 52 55 54 52 49 44 52 53 60 68 48 49 46 45 52 45 42 49 53
52 60 68 74 76 75 81 90 92 84 74 71 68 64 62 69 65 56 57 62 58 53 62 63 58 58 51 51 49 52 55 52 59 58 54 60 51 44 46 57 54 46 46
50 57 70 76 79 78 82 89 90 89 79 81 74 73 70 71 75 66 52 55 54 58 59 58 60 60 64 61 57 56 52 53 51 57 59 57 74 72 62 66 78 69 53

GFSSE_sfc_rhum_090.txt.gz
RH
47 63 88 88 89 90 90 89 90 86 83 90 88 86 89 87 85 83 82 81 78 77 71 73 77 76 76 78 80 83 83 82 81 78 77 74 73 74 74 78 78 71 80
51 63 91 91 92 91 90 90 90 90 87 90 88 87 89 88 85 85 84 82 80 75 74 77 76 74 74 77 83 84 84 84 81 80 79 76 75 75 75 79 79 74 76
54 72 70 89 92 92 90 90 90 88 88 89 87 88 88 87 86 86 84 81 79 77 74 75 74 75 74 79 82 82 84 83 80 75 74 67 69 72 74 76 76 73 73
57 64 69 88 89 93 92 92 90 87 88 89 88 88 89 87 86 85 84 82 79 77 73 74 74 75 78 83 82 82 82 79 76 73 59 61 63 74 75 74 71 69 69
54 57 78 90 90 90 92 93 91 88 87 87 88 87 87 86 85 85 84 82 80 78 72 72 76 79 84 85 84 82 79 78 72 55 54 62 59 66 67 67 66 68 68
48 58 89 92 92 92 89 89 89 87 83 83 96 96 86 85 84 84 83 82 79 76 72 74 79 80 85 85 81 82 81 77 78 46 53 62 59 68 70 69 68 68 72
57 67 75 91 93 93 89 86 86 89 90 93 89 90 93 83 84 84 83 81 79 78 77 76 81 82 83 82 81 78 72 71 50 47 57 67 66 68 65 65 67 65 66
65 72 78 90 90 90 90 88 89 89 92 86 84 91 92 87 87 84 82 82 82 83 84 83 84 83 82 82 77 70 69 74 48 47 55 61 67 65 66 66 65 66 67
70 70 82 81 86 86 91 92 91 89 91 85 84 87 88 93 90 92 84 84 85 87 86 84 85 84 82 80 72 74 72 72 41 51 53 56 66 64 65 66 66 66 66
67 72 74 81 90 87 91 89 90 92 90 86 85 87 88 92 84 88 87 84 86 87 86 84 86 85 83 79 75 73 71 76 44 49 59 66 65 63 63 65 66 66 65
70 69 71 70 88 89 86 87 90 91 91 92 91 90 94 93 83 88 88 85 86 86 86 85 86 87 84 78 72 75 78 45 44 56 62 71 61 60 62 64 65 65 65
66 66 66 80 81 86 77 89 83 87 91 93 94 98 97 99 95 90 82 87 87 87 86 87 86 83 69 65 70 73 61 45 50 59 66 73 65 62 64 64 64 64 65
54 58 66 80 87 88 90 90 94 94 95 96 96 98 96 99 96 92 94 90 85 85 82 84 79 60 59 56 61 63 60 44 54 58 70 74 63 63 64 64 64 65 65
57 59 65 84 87 89 84 96 93 96 95 97 96 96 96 98 98 99 94 85 78 73 76 72 64 57 61 57 61 62 54 48 57 63 76 77 71 64 63 63 63 63 64
59 67 74 83 86 91 93 93 96 96 96 94 96 95 96 97 97 97 91 72 67 65 62 58 60 52 56 55 58 54 54 50 58 62 76 80 76 67 63 63 63 62 62
57 69 78 83 88 86 88 93 95 96 96 97 96 95 94 96 96 96 92 64 62 62 56 56 52 56 49 56 59 54 53 52 55 62 70 82 79 74 68 62 61 60 60
45 66 81 84 80 81 88 90 93 94 99 98 97 94 94 93 94 93 85 63 64 63 63 69 63 58 58 52 58 57 58 56 54 60 65 72 80 78 75 69 63 58 57
44 71 74 72 73 82 92 91 92 97 98 97 98 98 94 92 90 91 84 81 76 73 72 68 66 62 58 60 62 60 56 56 58 57 59 65 68 63 79 76 71 65 58
44 70 82 78 77 86 93 95 98 97 98 96 96 96 92 90 92 86 87 87 84 77 78 66 68 65 61 60 56 60 59 60 60 49 55 58 65 64 67 79 78 76 70
48 76 83 83 85 93 97 97 97 97 98 97 96 93 90 86 84 84 88 88 83 77 76 70 67 68 62 59 37 46 60 64 60 65 60 55 60 60 62 64 73 73 80
66 78 84 82 91 96 96 97 96 97 96 97 94 87 87 87 79 82 87 85 74 74 69 68 71 67 61 64 63 64 60 59 66 64 64 65 62 63 67 60 68 66 70
67 80 86 85 88 92 90 90 88 88 86 88 92 91 83 85 80 81 84 73 70 68 68 70 68 69 64 64 61 61 70 62 61 61 64 63 67 63 65 68 68 67 66
70 81 85 77 79 90 90 91 91 88 88 88 86 87 84 84 83 79 75 64 73 66 66 74 73 66 66 63 65 69 80 86 75 66 65 65 61 72 68 61 63 68 74
64 76 78 79 79 88 88 88 86 83 82 78 77 68 62 67 65 61 62 62 61 60 69 70 69 69 69 64 72 73 83 80 88 86 64 61 67 64 66 68 67 70 68
61 70 78 80 78 87 85 84 83 79 75 83 78 72 62 62 60 61 64 68 75 69 72 77 78 81 79 87 81 79 77 80 82 89 90 80 64 64 69 74 71 72 61
58 66 76 81 79 86 86 82 81 82 80 85 76 71 69 64 68 70 66 75 77 69 76 74 86 79 80 83 80 80 79 82 82 85 88 82 85 80 68 71 78 71 71

GFSSE_sfc_rhum_093.txt.gz
RH
79 86 90 93 91 90 88 85 86 93 92 89 90 90 88 86 86 85 84 83 82 80 76 77 80 76 78 80 84 84 83 83 81 79 78 75 76 78 78 81 81 75 81
76 82 91 92 93 91 89 89 81 81 88 88 90 91 88 86 86 84 83 81 78 74 74 77 77 77 79 82 85 85 85 85 83 82 81 76 75 77 78 80 81 76 79
79 85 85 91 93 92 90 89 86 81 85 87 90 91 88 87 86 86 84 81 78 77 74 75 75 76 80 84 85 84 82 81 81 80 78 73 74 78 80 80 79 77 76
82 82 86 92 93 93 90 88 88 86 89 89 89 90 88 87 87 86 83 81 81 80 75 72 72 76 81 85 84 83 81 80 78 77 68 69 69 77 78 76 72 69 71
71 79 81 90 92 94 93 91 89 88 89 90 86 88 88 84 86 85 85 84 82 80 74 73 73 78 84 85 84 78 77 76 75 68 65 68 71 74 73 72 68 67 68
72 83 90 90 90 93 94 94 91 90 90 90 81 86 91 88 86 86 86 83 81 78 75 76 78 83 85 84 83 81 79 75 68 63 65 66 68 72 72 70 70 70 65
87 95 94 93 92 91 91 94 93 90 89 89 90 91 91 88 94 85 84 83 80 79 80 78 81 84 83 86 84 81 78 70 61 68 74 72 70 71 68 68 72 68 68
82 92 95 92 93 93 91 89 92 93 93 91 90 89 86 89 88 85 85 83 81 83 83 84 84 84 86 83 80 75 71 67 61 68 70 70 72 72 71 62 65 65 66
77 91 94 94 87 91 92 92 92 94 91 88 88 85 81 92 95 89 93 84 85 85 85 86 85 85 84 80 79 74 74 69 60 60 60 68 69 69 69 69 68 66 65
80 84 93 95 94 93 97 93 91 92 90 90 88 87 88 88 94 95 90 87 88 87 87 86 86 85 82 80 74 75 70 71 59 64 64 68 70 64 63 65 65 65 66
82 86 84 93 94 94 96 91 92 93 90 89 88 89 93 96 95 91 90 88 89 88 88 86 86 85 81 76 77 76 68 59 64 66 65 65 63 62 63 66 65 67 67
89 86 85 83 95 94 87 96 98 96 96 95 95 93 97 97 98 94 93 88 89 89 89 87 85 82 72 72 73 69 56 62 64 67 68 67 63 63 65 66 67 67 67
80 87 93 91 90 92 97 97 99 99 99 98 98 97 98 98 97 95 98 94 92 90 90 86 79 70 65 68 67 64 58 64 65 65 68 74 67 64 65 65 66 66 66
77 87 94 93 91 93 97 97 97 97 98 99 98 97 97 99 99 98 97 92 88 89 93 80 77 70 66 63 60 68 58 65 67 75 73 69 71 65 64 65 66 66 66
76 90 95 94 91 92 97 97 98 98 98 98 97 96 98 97 97 97 95 88 82 84 78 71 75 63 65 63 63 59 61 67 68 73 85 79 76 68 64 64 64 65 65
79 90 95 95 92 94 98 98 98 98 97 97 97 95 96 95 96 96 92 77 77 72 62 64 60 65 65 60 63 58 62 67 70 76 82 79 79 75 69 64 64 64 64
80 87 95 96 90 92 97 97 98 98 99 97 96 96 94 95 98 93 90 74 67 59 61 70 60 67 65 62 59 61 61 68 70 75 79 85 79 81 77 71 65 64 63
85 90 92 84 84 91 96 98 99 99 99 98 97 96 94 94 94 92 87 70 71 56 65 62 62 64 70 66 70 67 61 66 70 71 74 76 83 74 80 77 72 67 63
84 87 92 90 87 96 97 98 99 99 99 99 98 96 94 93 96 91 87 76 82 60 74 62 72 59 64 67 62 66 66 67 69 64 69 70 78 80 85 82 79 76 71
86 88 92 92 93 98 98 99 99 99 99 99 99 98 95 95 94 92 89 80 76 74 71 63 62 64 61 60 46 60 66 66 64 68 70 67 72 72 74 78 80 76 79
92 92 94 94 98 97 98 98 98 98 98 98 97 94 95 94 93 91 92 89 69 69 65 62 72 62 65 63 64 66 69 70 67 72 68 69 72 71 73 71 74 74 75
94 93 94 91 96 95 94 94 94 94 94 96 96 96 94 93 88 90 86 85 74 68 71 71 70 71 64 72 66 69 69 63 70 72 73 69 71 68 70 70 72 73 73
96 95 93 89 92 92 92 91 93 92 94 96 95 96 96 92 87 89 88 83 77 71 75 74 71 66 60 72 60 69 85 82 76 70 71 74 74 80 72 71 71 71 71
96 93 90 84 92 91 89 89 90 89 92 89 88 90 94 93 92 82 79 78 79 73 71 72 71 68 66 65 74 78 83 90 89 90 73 72 71 70 79 82 77 72 70
92 93 87 81 91 89 86 85 86 86 82 84 86 89 90 92 90 84 80 77 76 74 70 74 80 76 78 83 76 81 82 88 92 92 90 78 76 76 71 67 74 73 72
88 89 88 84 90 87 84 81 85 84 80 81 80 81 79 74 74 74 72 67 71 68 77 72 85 83 89 85 84 84 81 86 91 93 93 91 87 83 72 71 74 73 77

GFSSE_sfc_rhum_096.txt.gz
RH
89 95 94 92 91 90 92 93 94 93 90 91 90 90 89 88 88 87 86 85 84 82 78 78 82 82 80 79 84 85 84 82 81 80 78 74 74 76 78 81 81 75 79
84 89 96 93 91 89 89 90 93 93 90 90 90 89 89 89 88 87 86 86 83 79 75 78 81 79 79 83 86 86 86 85 83 81 81 77 75 76 79 80 83 78 78
86 88 92 95 92 89 88 87 87 91 89 90 90 89 88 88 86 85 84 84 82 79 75 74 80 80 79 85 87 87 87 86 85 85 82 79 78 78 80 80 81 77 77
86 90 91 95 93 91 90 88 86 87 88 91 90 89 88 87 87 85 84 82 82 81 75 76 78 79 84 86 85 85 85 83 82 80 76 76 72 78 77 76 75 74 75
84 86 88 93 95 92 91 90 88 89 91 90 89 86 87 85 86 85 84 84 82 80 74 74 78 82 87 85 84 83 82 82 81 76 78 77 76 75 75 74 73 72 73
85 82 90 93 94 94 93 91 90 92 91 89 84 83 82 85 88 80 87 85 83 80 78 76 81 87 88 84 83 82 81 78 75 70 71 74 72 73 70 70 72 74 72
96 93 90 91 92 95 95 93 91 92 93 85 87 86 87 82 80 88 87 85 82 81 82 81 86 88 87 86 82 80 79 77 70 75 75 73 71 73 71 67 66 64 68
97 98 96 93 92 92 96 96 94 94 91 89 90 88 87 86 85 86 90 89 83 85 83 85 86 87 88 85 81 79 79 75 69 74 74 75 76 72 70 69 66 67 65
97 98 98 97 92 93 94 93 97 96 91 91 90 90 88 88 87 85 86 94 84 85 86 87 88 87 83 81 78 78 79 75 65 69 71 77 73 67 68 66 65 70 65
94 96 97 95 92 89 97 95 97 96 93 92 93 92 88 89 89 86 91 91 85 86 87 88 89 86 81 79 82 78 78 74 66 74 74 73 74 68 66 62 66 69 68
90 95 97 97 95 96 98 95 94 92 90 89 91 89 91 96 96 86 85 95 84 86 87 88 87 85 81 82 79 78 71 63 65 71 73 77 70 66 65 66 64 65 65
93 94 96 98 96 97 95 97 96 95 96 96 94 96 98 98 97 95 95 93 83 87 88 87 85 84 75 73 70 72 65 64 64 66 64 71 61 64 62 66 65 64 66
86 94 94 96 97 98 99 99 100 99 99 99 97 97 98 98 99 97 98 95 93 89 87 85 84 76 72 69 64 67 68 66 66 66 70 74 68 65 65 68 66 66 68
92 93 96 96 97 98 98 98 98 98 98 98 98 97 98 99 99 99 99 97 93 88 94 91 88 78 71 66 63 69 71 68 69 67 69 76 71 64 65 66 67 67 68
91 95 95 96 97 98 98 99 98 99 99 97 98 97 98 99 99 97 98 97 91 90 86 90 82 73 72 70 65 68 71 71 73 71 71 79 76 70 64 65 66 67 67
87 96 97 96 95 97 98 98 99 98 99 98 97 97 97 97 98 98 96 95 91 82 78 76 75 74 73 70 66 68 71 70 71 78 75 80 81 77 71 65 66 66 67
88 93 96 97 96 95 98 98 97 98 98 98 97 97 96 96 95 97 97 95 84 75 73 80 73 71 72 67 67 72 72 72 75 78 84 87 82 82 77 72 68 66 66
90 95 96 92 97 98 98 98 99 99 99 97 96 96 97 94 93 94 93 88 74 67 70 73 66 72 74 69 70 72 75 72 74 77 82 86 89 80 81 79 75 70 67
88 96 97 96 96 97 97 97 98 99 98 98 97 96 95 95 94 92 88 73 70 63 73 67 65 64 76 74 69 72 76 77 77 71 79 83 86 85 90 84 81 79 75
90 92 93 93 97 98 98 99 99 99 99 99 98 96 93 95 92 92 87 74 58 66 75 66 63 69 70 68 57 69 73 79 76 78 76 71 77 80 86 86 86 82 81
94 95 94 96 97 98 98 99 99 99 99 99 99 98 96 92 92 90 88 81 53 66 68 66 63 64 72 70 71 75 80 78 77 77 76 78 76 77 86 82 83 87 80
95 94 95 96 95 95 94 96 96 97 97 98 98 98 97 97 96 90 86 82 58 70 67 64 62 75 71 66 64 74 80 75 76 78 81 79 82 76 78 77 80 81 80
96 96 95 96 95 93 94 95 97 96 98 98 99 98 98 96 94 90 84 82 70 67 65 62 58 59 63 75 60 72 83 87 77 73 82 80 80 82 78 76 75 74 77
96 93 95 95 91 90 93 93 95 95 96 92 93 96 98 95 94 90 87 80 74 67 67 64 62 61 58 63 76 81 84 87 83 83 74 78 79 79 80 79 75 75 74
95 96 95 95 85 89 92 91 91 91 86 90 91 96 97 98 94 87 85 82 79 73 74 74 78 77 72 83 76 82 84 90 92 87 81 78 77 74 76 79 79 81 76
95 95 96 94 85 91 88 87 89 89 90 91 90 93 95 97 97 92 87 85 79 80 84 77 85 78 84 80 78 82 78 80 86 89 93 90 76 80 77 80 80 82 82

GFSSE_sfc_rhum_102.txt.gz
RH
94 98 95 92 93 93 94 93 95 95 93 89 88 88 90 90 90 89 87 87 84 80 80 81 83 83 81 79 82 83 81 80 83 81 79 76 76 78 81 83 83 77 82
92 97 95 93 94 93 92 93 93 94 92 90 89 90 89 90 89 88 88 86 84 81 78 80 84 82 80 82 84 82 80 83 82 80 80 78 78 77 81 82 84 80 83
95 91 96 95 94 93 92 92 91 92 91 90 90 90 90 90 89 88 87 86 83 81 78 78 81 80 80 85 86 86 85 85 84 81 80 73 75 76 79 82 83 82 79
96 89 96 95 94 93 93 92 91 89 91 90 91 90 90 90 89 88 88 85 84 82 79 76 78 81 84 86 88 88 88 89 88 84 76 72 70 76 77 78 78 77 77
98 90 95 95 94 93 93 93 92 90 91 91 91 90 90 89 88 88 87 84 79 76 79 76 79 85 90 91 90 90 89 88 88 87 84 78 70 73 75 76 76 76 79
97 98 97 96 95 93 92 94 93 93 92 92 91 90 89 89 89 89 86 83 79 77 79 77 82 90 91 90 89 89 88 89 88 90 88 80 79 74 74 74 80 78 78
96 97 98 97 96 94 92 92 93 94 94 92 91 90 89 88 88 86 88 86 81 79 81 82 88 91 91 89 88 88 88 88 89 92 87 82 77 73 72 73 73 76 75
95 96 96 97 96 96 93 92 93 90 95 93 92 91 89 89 89 88 88 85 84 82 83 86 89 91 89 88 87 87 88 86 83 88 83 80 77 71 69 70 73 73 72
96 96 97 97 97 98 97 96 97 94 93 91 90 92 93 92 91 90 89 86 83 83 86 88 89 89 89 87 87 88 88 86 84 83 77 76 76 70 67 70 68 71 71
99 97 97 97 98 99 98 97 98 94 93 93 94 93 92 90 89 91 90 86 86 85 85 83 90 89 88 87 87 87 87 87 90 89 85 75 75 67 68 69 69 67 62
99 99 99 99 98 98 98 98 98 94 94 93 92 92 93 93 94 90 90 89 86 81 84 81 90 88 88 87 86 85 83 86 88 88 83 79 71 65 70 62 70 71 69
98 98 99 99 98 97 98 96 98 97 95 94 94 95 97 98 98 95 92 90 88 81 81 85 87 87 83 80 82 80 82 84 86 88 80 78 71 67 69 72 68 67 69
93 96 99 98 97 97 98 98 99 96 98 97 95 98 98 98 98 98 99 97 95 82 87 87 84 75 81 82 81 84 82 84 85 83 78 78 71 65 70 71 69 70 72
95 96 98 98 98 98 97 97 98 97 98 99 98 97 98 98 99 99 98 96 96 92 89 95 82 77 83 80 81 81 80 80 83 81 80 80 77 71 68 67 70 64 69
92 93 97 98 97 98 99 97 95 97 99 98 98 97 97 97 98 98 97 98 98 97 94 89 87 78 79 78 76 74 75 79 81 80 81 78 76 74 71 66 70 65 72
81 93 95 98 97 98 98 97 95 94 98 96 98 97 96 98 98 98 99 98 99 98 97 87 81 75 75 76 80 80 81 82 80 83 82 78 80 79 70 65 66 65 68
78 84 95 96 98 97 95 98 96 96 97 98 97 96 96 96 98 99 98 98 97 98 95 88 83 79 77 76 82 84 83 82 81 84 87 84 76 80 77 73 70 67 66
75 92 92 92 98 99 97 98 96 96 97 97 97 96 94 95 95 98 99 99 96 98 95 87 82 81 79 82 86 88 84 84 88 90 89 87 86 81 80 79 76 73 69
72 91 96 95 97 99 99 98 99 96 97 96 96 96 94 95 96 97 98 98 98 97 95 91 84 84 83 85 85 93 92 92 89 83 89 88 86 84 84 82 80 79 76
74 92 94 95 96 98 99 99 99 99 98 96 96 94 96 96 96 97 98 98 97 96 95 93 88 83 79 82 74 89 96 94 92 92 90 82 85 84 84 85 84 84 82
96 97 96 95 97 97 98 98 99 98 96 96 95 96 96 97 96 96 96 98 97 94 89 85 90 86 85 78 88 95 95 93 91 91 88 88 85 83 85 87 85 84 82
96 95 93 94 96 94 91 95 94 93 96 98 99 99 96 98 96 95 94 95 96 95 90 84 80 84 82 78 80 91 96 89 88 88 90 88 92 86 85 85 88 89 86
96 93 89 95 91 91 90 94 98 98 99 99 99 99 99 95 96 95 94 94 92 90 89 81 78 74 82 80 72 86 97 96 95 88 91 90 90 92 86 85 87 87 86
95 86 87 94 92 90 91 94 93 97 97 98 95 98 99 99 98 94 94 95 93 83 80 70 66 68 74 79 76 80 83 89 94 94 87 92 89 88 90 89 86 84 83
94 87 90 88 89 88 91 91 90 88 85 96 98 98 98 98 99 94 94 95 90 81 71 65 69 74 70 75 74 88 89 92 86 82 90 89 93 87 85 87 85 85 82
91 90 85 89 90 88 89 89 94 96 94 97 98 98 98 98 97 98 95 91 87 84 79 66 76 74 80 73 78 83 82 80 86 86 86 87 88 90 89 88 88 83 82

GFSSE_sfc_rhum_105.txt.gz
RH
69 69 89 83 86 94 93 95 96 92 88 88 90 90 90 90 91 90 90 88 85 82 81 82 83 83 80 79 83 83 84 84 84 82 79 78 77 77 81 83 78 61 83
65 72 92 81 80 93 92 94 95 94 89 89 90 90 90 91 90 90 88 86 83 82 77 82 85 83 81 83 84 83 85 86 85 83 82 78 78 78 80 83 78 70 83
72 74 80 90 90 92 90 93 94 93 90 90 90 91 91 90 89 88 88 86 83 81 78 80 82 81 82 84 84 84 86 85 86 85 78 60 64 77 80 84 85 83 82
73 76 77 91 93 93 91 92 93 92 91 91 91 91 90 90 89 89 88 87 84 82 80 78 78 78 85 87 87 86 87 87 86 80 50 59 63 77 78 79 79 79 80
70 72 77 96 94 93 92 91 93 92 92 92 91 91 90 89 88 88 86 84 84 82 80 77 79 84 88 89 87 90 90 89 86 62 52 56 56 71 77 78 80 80 78
76 72 86 97 95 94 93 92 91 93 93 93 92 90 90 89 88 88 88 85 82 81 81 81 85 90 92 89 89 91 90 89 80 53 59 62 57 75 77 78 82 83 82
80 86 88 97 96 93 92 93 93 93 94 94 90 90 90 89 89 85 83 78 80 80 81 85 91 93 92 92 91 91 90 87 54 56 58 56 63 73 74 75 76 79 80
81 88 86 93 96 94 92 93 94 95 94 94 94 92 91 90 88 83 84 85 86 81 84 88 93 92 91 91 90 90 90 82 61 56 55 54 75 73 72 72 77 78 75
81 85 88 87 87 97 96 94 95 93 96 95 94 93 90 90 89 88 86 85 83 83 81 91 92 90 91 90 90 90 90 84 58 56 54 54 78 72 71 70 70 72 72
79 81 83 90 90 87 85 96 97 95 95 94 94 94 95 94 91 87 91 88 84 86 82 86 92 91 90 89 89 89 89 85 57 56 54 56 77 70 69 68 69 70 72
90 80 82 82 86 90 87 86 97 96 94 94 92 93 94 79 77 79 81 92 85 86 89 91 93 92 91 91 90 90 84 59 59 56 56 80 73 67 70 70 67 68 71
92 92 80 82 83 85 81 84 93 91 91 91 88 82 85 85 81 76 80 88 87 88 91 90 94 94 91 92 83 80 58 62 59 57 56 82 73 67 64 68 67 63 70
73 87 89 90 85 85 85 81 95 98 97 96 86 92 91 95 93 86 86 83 86 90 80 90 91 88 84 86 72 63 62 63 58 55 64 82 73 69 69 68 69 68 71
74 78 85 90 89 87 82 84 84 97 98 96 96 91 88 94 96 95 95 92 85 78 77 92 89 83 84 73 69 66 63 57 56 52 61 82 77 71 69 68 70 70 71
72 76 86 89 86 84 91 92 90 95 96 95 89 94 89 87 96 89 94 94 83 83 86 95 86 86 86 67 65 64 63 60 59 51 50 84 82 76 69 68 68 65 70
62 65 76 82 84 79 88 92 92 94 94 94 92 92 91 91 89 96 95 93 95 96 93 91 93 93 90 62 67 63 61 59 59 58 52 65 84 79 74 70 67 67 70
58 57 74 79 84 82 84 91 88 92 92 94 92 91 87 87 90 93 93 94 95 99 96 93 94 94 93 64 66 62 60 61 58 58 54 54 72 83 80 76 71 72 71
51 58 65 70 82 87 86 91 89 91 92 91 91 91 87 85 86 85 93 97 98 97 97 95 96 95 92 71 72 62 58 58 59 60 55 58 69 58 76 78 75 73 71
44 54 65 74 80 88 87 91 90 94 94 92 91 92 87 88 83 83 93 97 98 97 97 96 96 93 88 79 70 63 61 58 60 58 62 61 62 55 52 78 79 79 76
28 51 65 74 79 88 93 94 95 96 96 94 94 93 88 92 88 90 96 98 98 98 96 95 94 93 86 82 61 64 61 60 60 61 60 56 56 59 57 58 59 62 82
45 61 72 78 82 89 96 96 97 97 96 96 94 91 92 92 92 94 96 98 97 96 95 92 93 93 92 72 73 77 72 70 69 62 59 58 61 61 69 65 63 57 63
53 69 75 76 82 80 82 89 87 88 90 91 93 92 90 92 92 94 96 98 96 97 95 93 92 95 92 80 72 72 94 87 70 66 63 63 67 58 62 63 63 63 59
67 73 75 74 81 77 79 84 83 89 90 95 96 95 93 91 95 94 95 95 94 93 95 94 93 89 93 88 74 62 85 84 76 68 73 63 68 66 62 62 64 62 63
60 72 74 75 82 78 81 84 83 77 82 84 87 87 96 96 96 93 94 94 93 93 94 94 94 92 90 91 79 62 70 79 71 86 71 72 67 68 69 62 60 63 63
58 73 74 82 81 81 82 80 81 84 77 78 79 86 96 97 97 95 93 95 95 92 93 93 95 94 89 86 79 75 77 80 73 65 62 68 65 63 60 65 62 64 65
67 73 76 86 84 85 81 84 88 87 78 75 78 85 89 96 98 94 92 91 93 92 92 91 90 89 85 76 71 68 73 71 76 72 61 66 72 77 66 64 69 65 64

GFSSE_sfc_rhum_111.txt.gz
RH
24 51 92 90 91 90 93 92 92 93 91 90 91 92 92 92 92 92 90 89 87 84 82 81 82 80 79 79 83 88 88 88 86 84 82 79 77 76 77 81 76 63 84
24 46 91 90 91 91 91 92 93 94 91 89 92 92 92 92 92 90 89 88 86 82 80 82 81 79 79 83 88 89 88 88 87 85 83 79 77 73 74 79 78 73 85
31 48 65 90 92 90 90 91 93 93 90 90 92 92 92 92 91 90 88 86 86 83 79 80 80 79 81 87 89 89 90 89 87 86 79 51 61 80 81 86 86 85 83
32 48 53 90 92 92 93 94 93 91 90 91 91 92 92 91 91 90 87 85 85 84 80 79 79 80 86 88 88 89 89 88 87 83 57 53 55 80 80 82 83 82 82
30 39 53 89 92 92 94 95 94 92 92 92 92 91 91 90 90 88 86 86 86 84 82 78 79 85 90 90 90 90 88 86 86 71 45 59 53 72 78 80 82 83 78
29 32 82 92 92 92 93 94 94 94 94 94 93 92 90 90 89 89 88 88 87 85 83 82 85 88 90 91 91 90 87 85 88 50 39 57 55 75 77 79 84 84 84
33 40 66 93 94 93 90 93 95 95 95 95 93 92 91 90 90 88 90 89 87 84 83 83 82 84 91 92 92 89 86 83 48 42 40 52 64 78 78 80 83 85 84
40 47 65 89 94 94 92 92 94 95 96 95 94 93 92 91 90 89 90 89 86 85 86 88 90 90 92 93 91 89 85 85 51 49 50 60 79 78 78 82 84 85 84
45 53 65 72 79 96 94 94 94 96 96 95 95 95 94 93 92 90 88 84 84 87 87 94 93 93 93 93 94 91 86 84 46 48 54 62 81 78 77 79 78 80 80
46 52 59 65 67 69 72 96 96 96 96 95 94 96 96 94 91 89 86 85 83 85 87 94 95 94 93 96 95 93 88 89 53 52 50 57 80 75 74 73 73 74 76
43 45 51 53 57 61 60 72 93 96 95 96 92 94 94 66 62 65 75 87 83 82 87 91 94 94 96 96 96 95 92 44 66 59 56 84 79 72 71 72 72 74 73
42 40 40 48 50 55 49 63 66 66 67 67 67 67 71 63 59 62 66 90 84 84 89 94 96 96 93 82 93 95 94 82 61 70 64 85 78 72 72 72 73 72 73
31 32 33 48 53 53 46 46 48 67 62 65 68 66 64 62 66 62 71 75 76 80 56 70 84 68 73 85 89 95 93 94 94 67 74 85 78 71 71 71 70 69 72
25 30 32 38 50 56 42 41 40 62 58 66 61 74 75 79 73 71 62 67 69 59 54 64 79 77 78 82 82 90 93 94 96 72 74 86 81 73 70 68 69 69 71
18 26 32 40 49 54 58 43 45 60 69 61 63 63 63 62 69 67 67 63 62 62 58 73 74 79 79 83 83 86 89 90 84 66 64 85 83 77 68 62 68 69 71
16 20 32 38 53 52 55 55 50 51 59 73 79 63 72 66 68 78 75 72 66 66 67 79 83 72 83 87 89 89 86 78 63 67 56 62 84 81 74 68 68 69 71
15 17 33 42 57 61 54 54 52 46 50 56 66 75 71 71 71 72 76 81 73 68 71 80 83 84 86 90 92 90 87 60 50 59 55 56 71 86 82 76 75 73 71
15 18 22 31 46 63 57 51 57 49 51 48 58 69 74 78 75 69 67 76 82 79 82 78 89 91 94 94 91 90 76 59 54 60 52 54 61 57 81 83 80 77 76
12 16 21 32 42 53 60 51 55 58 53 52 54 68 73 84 83 75 61 73 78 82 87 86 97 94 97 97 92 91 75 57 58 41 52 55 57 53 56 81 84 84 80
12 15 19 24 38 50 52 56 50 55 56 55 57 63 70 72 74 79 68 76 80 91 96 96 97 98 96 96 91 91 86 70 47 47 58 60 57 64 61 61 65 67 84
18 19 19 22 31 42 47 51 57 79 76 70 53 56 58 64 73 80 75 76 90 89 94 95 97 97 98 96 96 95 90 76 60 47 46 46 62 60 61 54 54 54 64
23 24 25 24 27 31 38 44 66 78 77 74 65 61 58 71 72 74 77 95 96 96 95 95 96 98 96 97 95 94 98 84 73 57 49 46 62 56 51 53 51 49 51
26 27 26 26 27 32 40 52 73 76 77 84 84 70 67 70 68 75 74 90 96 94 96 95 95 90 95 98 96 87 97 92 84 77 66 42 60 54 54 61 55 48 46
28 29 33 31 30 32 42 53 75 74 77 72 75 67 66 69 70 69 83 91 96 95 95 94 92 90 91 93 96 91 85 75 78 92 66 48 55 57 59 52 50 45 46
23 29 37 38 35 34 39 51 70 77 64 57 62 67 73 74 78 74 82 93 96 96 92 93 96 94 93 91 89 93 94 87 67 67 71 54 48 48 47 48 44 48 48
24 31 36 39 39 40 42 51 73 77 62 52 56 60 69 79 78 84 85 90 88 90 92 92 92 94 94 91 90 90 89 86 70 71 71 65 57 53 48 47 48 46 46

GFSSE_sfc_rhum_114.txt.gz
RH
52 76 92 91 91 92 92 92 93 92 93 92 93 93 93 93 93 92 91 91 89 87 83 82 85 82 80 81 86 89 89 89 88 85 83 80 76 76 80 83 80 76 86
53 67 93 92 92 92 91 91 92 94 93 92 93 94 93 93 93 91 90 89 87 85 83 83 84 81 80 86 89 90 89 89 88 86 84 81 78 75 76 83 84 83 86
52 70 76 93 92 91 90 92 93 94 92 92 93 94 93 92 91 90 89 88 86 84 82 82 81 80 84 89 90 90 90 89 88 85 79 69 80 82 83 88 88 86 85
54 61 72 94 92 92 92 94 95 93 91 92 93 93 92 92 91 89 88 88 87 86 82 80 80 82 88 90 90 90 89 88 87 83 71 66 68 82 82 84 84 83 83
47 50 72 93 93 93 94 95 94 93 91 93 93 92 92 91 90 89 88 87 88 86 83 80 81 86 90 90 91 90 88 87 87 75 60 67 74 80 81 82 84 84 83
41 49 90 93 93 93 94 95 94 94 93 95 94 92 92 91 90 90 88 87 88 87 84 83 81 85 91 91 91 89 87 88 89 77 66 66 74 78 78 79 85 85 84
52 75 79 94 93 93 93 95 95 95 96 95 94 93 92 92 90 90 89 89 88 86 84 82 83 90 92 92 91 89 88 91 74 76 64 77 86 78 77 82 86 86 85
73 76 82 92 93 92 94 95 96 96 96 95 94 94 93 93 90 90 90 90 88 85 86 85 87 91 92 92 90 90 89 89 67 89 74 79 82 79 80 83 87 87 85
64 78 84 85 87 94 93 94 96 97 96 93 95 94 94 94 92 89 89 90 85 85 90 90 92 92 92 92 91 92 90 91 85 80 69 80 82 79 78 82 83 83 83
60 72 80 82 84 87 90 95 96 97 97 96 95 94 96 96 94 91 90 86 85 84 88 90 93 92 92 95 94 93 91 90 86 80 71 80 84 78 78 78 80 79 80
58 63 72 73 76 79 80 86 97 96 97 97 95 97 99 91 86 83 85 84 86 88 90 94 96 93 95 95 94 94 95 78 82 86 81 86 82 76 76 77 77 78 78
54 56 58 66 69 72 58 81 84 84 87 89 87 89 87 87 81 72 77 89 87 82 89 95 93 95 95 95 99 94 94 87 92 93 89 84 79 74 74 75 76 75 78
44 45 48 66 71 67 62 70 71 75 80 81 82 83 84 81 84 82 89 88 92 87 82 92 97 90 92 93 98 96 92 90 96 95 91 86 79 72 74 75 76 74 75
37 39 41 56 69 72 58 63 65 68 76 77 78 83 85 84 88 87 85 85 87 88 82 79 87 83 85 88 93 95 91 97 97 99 92 86 82 75 75 74 73 74 74
29 37 41 52 65 69 74 65 68 73 74 74 77 80 80 83 87 86 87 86 80 78 75 89 86 90 82 89 85 92 92 95 95 96 96 89 84 79 72 70 70 72 70
23 33 44 46 63 63 69 75 69 77 78 80 78 78 82 82 84 87 89 84 88 89 88 89 92 89 89 93 92 91 92 90 93 97 96 86 87 83 76 70 69 69 71
23 25 48 53 62 66 69 69 72 70 76 76 82 84 81 82 84 82 88 91 89 89 85 92 92 93 93 92 92 95 93 92 91 89 89 82 82 86 82 77 74 72 72
18 23 42 41 61 69 69 67 63 68 73 74 77 80 82 83 82 86 87 88 92 91 92 95 96 96 97 96 96 98 92 91 93 92 77 71 75 73 85 83 80 78 78
14 26 32 53 68 74 74 69 70 74 75 70 73 75 79 82 83 80 81 85 90 93 95 95 96 96 97 97 96 97 96 92 92 73 64 67 73 76 77 86 85 84 82
15 26 34 50 60 72 74 74 70 72 70 70 69 69 77 75 84 87 82 87 90 91 96 96 97 96 96 97 95 97 97 94 90 76 62 66 69 72 74 81 80 84 86
28 29 30 36 59 65 68 74 72 72 71 70 70 75 79 79 86 84 83 89 89 94 97 95 98 98 99 98 99 99 99 96 90 80 67 75 66 70 78 77 79 80 85
28 34 36 35 37 49 57 61 66 67 74 72 77 75 73 78 81 78 88 92 93 95 96 97 96 99 98 97 97 95 99 99 96 87 79 70 71 66 73 69 72 73 76
36 40 35 35 37 43 43 57 70 85 86 86 84 75 74 76 77 81 87 96 95 94 96 97 94 95 97 98 98 96 100 98 93 89 76 68 72 72 67 67 68 65 68
38 39 38 42 41 40 50 52 80 84 86 81 83 78 76 80 80 80 83 95 95 95 96 96 95 93 91 96 99 98 94 94 92 95 84 83 68 66 70 78 71 64 60
36 43 43 46 47 47 49 57 79 80 75 76 80 85 83 79 80 77 84 95 95 96 95 95 96 94 91 91 92 97 97 94 93 90 87 87 76 64 67 73 70 72 60
35 44 46 46 42 49 54 60 74 81 77 77 81 83 84 86 84 84 87 92 96 96 96 94 94 93 93 91 92 92 91 90 92 89 85 88 84 72 70 72 70 66 66

GFSSE_sfc_rhum_117.txt.gz
RH
81 92 92 90 91 92 94 93 92 94 94 93 94 93 93 93 91 92 92 92 90 87 84 84 85 83 80 82 86 88 88 87 87 85 82 80 78 78 84 87 86 80 86
83 90 93 92 91 92 92 93 93 94 94 93 94 94 94 93 91 91 91 91 89 86 83 83 83 82 83 86 90 91 91 91 89 86 84 82 79 78 83 88 88 86 86
86 89 88 93 92 91 92 92 94 94 93 93 94 94 93 92 92 90 90 90 89 87 84 82 82 83 85 88 90 90 90 88 87 85 86 86 81 82 85 89 89 87 84
82 86 90 93 92 92 93 94 95 94 93 94 94 93 93 92 91 90 89 88 86 85 84 81 81 85 87 90 90 89 89 88 87 85 82 79 75 83 84 85 86 84 83
74 83 88 93 94 94 95 96 96 95 95 95 94 93 92 92 90 90 88 89 89 86 84 80 83 88 91 91 90 89 88 87 87 77 86 80 82 81 82 83 85 84 85
68 81 94 94 94 94 95 96 95 94 86 96 95 94 92 92 91 90 88 89 90 88 86 85 88 91 91 91 90 88 88 89 90 86 91 85 90 80 81 83 87 86 86
83 89 92 94 94 95 95 95 95 88 87 96 95 95 94 92 91 90 89 90 89 85 87 85 89 91 91 92 90 90 91 92 89 92 91 95 87 78 77 82 86 86 86
87 90 92 93 94 95 96 97 97 96 96 96 96 95 94 93 91 91 90 90 89 87 85 87 91 91 91 92 91 94 92 90 85 92 90 96 84 77 80 83 87 87 86
89 93 97 96 93 96 96 98 98 97 97 96 96 96 95 95 93 92 91 90 91 90 88 91 92 92 92 91 91 93 92 89 91 92 80 95 84 80 79 84 84 85 84
92 95 97 98 98 98 98 98 98 98 98 92 95 94 96 96 93 93 92 91 88 86 89 90 93 94 93 94 94 92 94 90 89 90 94 95 83 78 79 81 82 80 80
92 95 96 97 97 97 97 95 98 98 98 95 96 81 99 98 96 93 92 90 88 88 88 88 93 94 95 95 94 94 92 84 94 96 97 85 82 79 79 81 79 79 78
85 95 92 96 96 96 80 97 98 97 98 97 99 97 98 98 97 89 90 89 89 91 91 93 94 95 96 98 97 95 96 94 95 97 98 84 81 77 79 80 78 78 78
69 76 85 88 91 91 83 98 99 99 99 99 98 98 97 96 97 92 98 93 96 87 94 98 98 99 96 98 98 98 95 95 98 97 91 87 82 75 77 78 78 78 78
62 64 75 80 84 86 86 90 90 95 96 97 97 96 98 99 97 97 96 96 95 95 97 98 99 98 97 97 97 97 96 97 98 99 96 93 84 77 75 76 77 77 77
55 55 65 72 77 76 81 84 84 87 90 91 92 92 96 97 97 97 97 96 94 90 92 98 97 95 97 97 97 98 97 97 95 97 98 94 91 81 77 75 76 75 75
48 50 53 63 72 68 71 81 82 82 85 88 92 89 93 97 97 97 97 96 95 95 96 95 95 96 98 97 95 98 98 97 96 97 95 96 98 87 80 76 74 74 72
32 44 50 63 68 70 66 79 88 85 84 93 88 94 89 93 95 95 96 97 95 97 95 97 97 98 98 96 96 95 98 98 97 96 97 96 94 93 86 80 77 75 72
23 46 49 55 68 73 71 72 81 90 86 87 96 96 93 92 92 95 95 97 96 97 97 97 97 98 98 98 99 99 99 98 95 96 94 94 91 76 84 84 81 78 77
22 24 52 63 70 72 83 77 83 86 94 88 95 95 93 93 93 93 94 97 96 97 97 97 99 96 98 99 99 98 99 98 96 93 92 88 84 81 80 86 84 84 81
17 25 54 59 68 73 78 88 87 88 93 91 89 88 90 87 93 96 95 96 96 97 98 98 97 99 96 94 97 98 98 98 98 96 94 83 80 79 81 83 84 87 87
31 36 60 74 76 82 90 93 96 85 86 95 88 86 90 85 88 94 90 94 96 97 96 97 98 97 100 98 99 99 99 98 97 97 85 82 78 78 81 85 89 86 84
37 42 42 64 85 82 81 80 86 94 91 79 91 91 86 89 93 89 90 94 97 98 97 97 96 99 99 98 99 98 100 100 99 97 92 85 81 76 84 85 84 89 88
42 40 39 44 53 72 76 85 95 95 96 95 95 95 91 89 92 91 88 94 96 97 97 97 96 96 98 99 95 96 100 98 97 99 96 84 80 80 80 81 80 82 84
44 48 46 51 52 51 56 79 90 92 97 96 96 93 81 90 88 86 89 95 96 97 96 94 94 94 93 95 99 98 95 94 96 100 96 89 79 76 79 79 75 77 78
47 56 55 53 52 54 56 67 92 94 89 96 97 94 90 91 86 86 88 96 97 97 97 96 97 96 93 94 96 99 98 97 97 93 97 98 91 82 76 78 78 77 73
52 54 54 56 54 56 64 69 91 94 94 96 96 96 93 86 92 90 90 96 94 94 96 96 96 96 95 93 94 94 91 90 92 89 92 94 92 86 76 78 77 73 75

GFSSE_sfc_rhum_123.txt.gz
RH
89 94 95 93 94 94 94 93 93 92 91 91 91 91 91 92 93 93 93 91 89 86 81 81 85 84 80 78 82 83 83 84 86 86 84 81 80 83 85 88 88 82 86
84 92 95 94 93 93 94 93 93 92 91 91 92 92 93 93 93 93 93 92 89 83 81 82 83 81 81 84 86 88 90 89 88 85 84 82 82 82 85 88 88 86 86
84 90 94 95 93 93 93 93 93 92 91 91 92 92 92 93 94 93 93 92 89 85 82 82 83 83 84 88 91 91 92 93 91 87 91 96 85 82 83 88 89 87 85
87 90 92 95 94 93 94 94 93 91 92 92 92 92 92 92 93 93 94 93 90 87 83 82 81 84 87 90 91 92 92 91 91 92 96 93 76 82 83 85 84 84 84
90 90 90 94 94 94 94 94 94 94 94 93 92 91 91 91 92 92 93 93 91 88 83 81 83 87 91 91 92 92 92 90 90 90 97 96 84 80 82 83 84 85 86
94 91 95 95 94 94 94 95 95 95 95 95 94 92 90 90 90 90 92 90 90 88 86 84 86 90 90 91 91 92 90 91 91 95 95 91 94 80 82 86 89 88 87
96 96 95 96 94 93 94 95 96 96 96 95 94 93 92 90 90 90 92 90 89 90 90 92 91 91 91 91 91 94 89 90 94 96 96 96 94 82 83 86 86 87 86
95 96 95 95 96 95 95 96 97 97 96 96 96 95 93 93 91 90 92 92 91 92 92 91 91 90 90 91 92 95 91 89 92 97 96 96 84 82 82 84 87 88 86
94 96 97 96 97 98 98 98 96 97 97 97 96 96 95 95 93 91 92 92 91 92 92 91 92 92 91 92 96 92 93 91 96 97 92 97 84 82 82 86 82 84 85
97 96 97 95 93 95 98 98 95 96 98 97 97 97 96 95 94 93 93 93 91 92 92 91 93 92 93 95 97 93 93 90 91 95 96 97 86 79 82 82 83 82 83
98 98 97 95 92 90 91 96 97 97 98 98 98 98 98 97 97 95 95 94 93 92 92 94 95 95 96 96 96 92 92 97 91 96 98 90 86 78 81 82 83 83 81
97 98 98 97 95 93 86 92 93 91 94 95 97 98 99 99 98 96 96 95 93 92 93 92 94 96 96 99 99 94 98 96 97 98 98 92 86 79 81 83 83 81 80
86 93 97 98 99 98 90 89 91 88 88 97 97 98 98 99 99 99 99 98 97 94 97 96 96 98 97 99 99 98 96 97 99 98 95 92 88 79 80 83 81 80 80
85 89 96 96 98 98 98 88 86 88 89 88 92 97 99 98 99 99 99 99 98 98 97 97 98 97 98 98 97 97 96 98 99 99 96 93 89 82 79 82 80 79 80
89 87 95 96 96 96 98 96 90 89 92 89 89 96 98 93 94 99 99 99 98 99 98 98 98 98 98 98 97 97 97 96 97 98 99 93 91 85 81 79 78 78 79
81 87 89 94 92 93 95 96 97 98 97 97 94 92 97 96 96 99 99 99 99 98 98 98 98 98 98 98 98 97 98 97 96 95 98 97 93 89 84 81 77 78 77
75 80 92 90 89 92 91 94 93 95 96 98 98 98 97 98 98 98 98 99 98 98 98 98 98 98 98 99 98 99 99 98 98 96 96 97 97 99 97 86 87 84 79
65 72 85 80 89 90 90 95 93 94 96 94 96 97 97 97 96 98 98 98 98 98 98 98 98 99 99 99 100 100 98 99 97 97 98 98 98 97 97 98 95 90 82
61 65 78 84 91 89 88 91 94 95 97 97 97 97 96 96 96 97 98 98 98 99 98 98 99 97 98 97 99 99 99 98 97 95 98 98 98 98 96 98 99 96 88
53 61 68 79 87 87 85 93 98 99 98 98 98 96 96 95 96 97 98 98 97 98 99 99 98 99 98 96 96 98 99 99 98 98 96 95 96 96 96 96 97 95 93
27 54 72 75 81 88 86 93 98 97 98 98 98 95 96 95 96 96 98 97 96 96 98 98 99 98 99 98 99 100 100 98 98 98 96 96 96 95 94 90 91 89 87
27 29 64 69 75 82 78 77 88 90 97 94 97 96 94 95 96 95 96 97 96 96 97 98 96 99 99 98 99 98 100 100 99 98 98 96 96 94 93 89 87 88 87
35 47 52 62 69 79 81 96 99 97 98 99 100 98 96 96 96 94 96 96 97 96 97 97 96 96 99 99 96 95 100 98 99 99 97 96 96 96 94 93 86 86 86
84 85 87 88 90 95 96 96 95 95 95 94 92 95 98 96 95 95 95 96 96 97 96 96 96 95 94 98 99 98 93 93 97 99 99 98 95 97 96 96 91 87 86
64 65 66 70 72 76 87 90 97 97 98 98 97 96 98 98 95 94 94 96 97 98 96 96 98 97 94 94 96 100 99 97 96 98 99 100 98 95 94 96 92 89 86
62 62 63 65 67 72 78 81 83 88 91 97 98 98 98 98 98 96 94 95 93 96 97 97 96 96 96 93 94 95 96 96 96 98 99 98 97 98 97 96 92 87 87

GFSSE_sfc_rhum_126.txt.gz
RH
87 94 94 95 94 93 92 92 93 92 91 92 92 92 91 91 92 93 92 91 88 86 80 81 86 83 81 81 83 84 84 85 87 87 85 82 81 82 85 89 87 81 86
83 93 94 95 94 93 92 92 92 92 91 91 92 92 92 92 93 93 92 91 88 84 80 80 84 82 80 84 88 88 89 89 88 86 85 87 84 82 85 88 89 83 86
88 93 93 96 94 93 92 92 91 91 91 91 92 92 92 92 93 93 92 91 87 84 81 82 81 81 83 89 92 93 92 90 89 89 85 93 83 80 84 88 89 87 85
89 93 94 95 94 94 93 93 91 90 91 92 92 92 92 93 93 93 93 92 89 86 82 82 82 83 88 93 93 93 92 93 94 94 93 87 81 82 83 85 85 84 85
89 93 95 95 95 94 94 94 92 91 92 92 92 92 92 93 93 94 94 93 90 87 81 81 82 87 92 93 93 93 92 93 93 92 94 89 86 80 82 84 85 86 85
93 94 97 96 95 94 94 94 94 93 93 93 92 92 92 92 93 94 94 93 90 87 84 82 86 90 92 93 93 92 92 92 93 95 94 87 88 80 84 87 89 87 86
96 95 96 96 96 94 94 94 95 94 94 93 93 92 91 92 92 93 93 94 92 90 89 90 91 91 91 93 92 91 91 91 93 95 96 94 91 82 82 84 87 85 84
96 96 94 94 95 95 94 96 96 95 95 94 94 93 92 92 92 92 91 92 94 94 94 92 91 91 91 92 93 91 92 90 91 94 94 95 87 82 82 84 87 85 83
97 97 97 95 94 96 98 98 98 96 95 95 95 95 95 94 92 92 92 91 92 93 92 91 91 92 90 94 94 91 91 91 94 95 92 94 85 82 81 82 82 86 83
99 98 98 98 96 97 98 99 98 97 97 96 96 96 96 94 93 93 94 92 93 92 91 91 92 92 92 96 94 93 94 91 93 94 94 95 88 80 80 80 81 84 84
98 93 90 88 87 86 89 96 98 97 97 97 96 96 97 96 95 94 96 94 93 94 93 93 93 95 96 97 94 93 92 90 94 96 96 91 86 78 79 82 83 83 82
98 92 86 84 85 84 82 91 95 94 94 95 96 97 98 98 98 97 96 95 93 94 94 94 94 96 97 99 99 93 96 94 93 95 96 91 87 77 79 84 84 83 82
88 95 85 85 84 84 81 82 83 88 90 88 90 94 97 99 99 99 99 99 98 95 98 97 98 98 99 97 99 98 96 95 96 96 94 92 88 78 80 85 82 80 81
91 94 88 86 86 85 82 81 81 84 86 92 92 94 94 95 99 99 99 99 99 99 98 98 98 98 98 99 98 97 96 97 98 98 94 94 91 83 79 83 81 80 80
87 92 96 90 91 85 86 81 81 82 83 84 83 98 96 89 91 98 99 99 99 99 98 98 98 98 99 99 98 96 96 96 97 98 97 94 93 88 81 81 82 80 80
82 86 95 97 96 92 88 83 82 81 82 82 84 88 97 87 87 97 99 99 99 99 99 98 98 98 99 99 99 97 96 96 96 96 97 96 94 97 86 83 81 81 79
82 76 93 94 96 97 96 92 88 84 84 84 83 85 88 87 91 92 97 99 99 99 98 99 98 98 99 98 98 98 97 96 96 95 95 96 96 99 98 85 85 84 81
75 82 84 81 94 96 95 96 98 96 91 88 88 89 86 88 91 99 98 98 99 99 99 99 99 99 99 99 98 99 98 98 97 96 94 95 95 96 97 95 92 87 90
73 77 89 85 89 93 90 94 94 97 98 99 99 98 91 89 97 99 99 99 99 99 99 99 100 98 98 97 98 99 98 98 97 94 95 95 95 95 96 97 97 97 98
62 68 80 88 85 87 90 96 98 98 97 98 97 97 98 97 98 98 99 99 98 99 99 99 97 98 97 95 96 98 99 98 98 98 96 93 96 96 96 96 97 99 99
52 66 76 89 89 91 94 97 98 96 95 97 96 95 96 96 97 98 98 98 98 98 97 98 97 99 100 98 99 100 99 98 99 97 95 96 95 95 96 96 97 98 98
42 63 71 78 85 90 86 86 95 93 95 95 95 97 96 96 96 97 98 98 98 98 98 98 97 100 99 98 99 97 99 99 99 98 98 97 97 95 95 94 95 95 95
32 42 68 73 76 87 85 95 99 98 99 99 99 98 97 96 96 95 96 97 98 97 98 98 97 97 99 99 96 94 99 98 95 97 95 94 95 96 95 95 95 94 93
90 75 88 94 95 95 95 94 95 95 97 96 96 96 97 95 96 95 95 96 97 97 98 97 96 95 95 99 99 98 90 92 98 97 96 96 91 95 94 97 96 95 95
82 85 84 85 87 91 98 96 97 98 98 99 99 98 99 99 97 97 96 97 97 96 96 97 98 96 95 95 97 100 98 97 95 96 99 98 98 95 96 96 96 97 92
68 71 70 72 73 75 82 86 91 95 97 99 98 92 93 97 99 98 97 97 96 96 97 97 96 96 96 94 94 96 96 96 98 98 99 98 95 99 95 96 97 97 96

GFSSE_sfc_rhum_129.txt.gz
RH
58 64 95 94 93 93 92 93 94 95 92 90 90 90 90 91 92 92 92 90 88 85 81 80 83 82 82 80 84 84 85 84 87 85 84 82 81 82 84 88 84 62 85
59 65 95 94 93 92 92 92 94 94 93 91 91 91 91 92 92 92 91 89 87 83 79 80 84 83 80 84 87 87 88 89 88 86 84 83 84 82 83 84 86 82 87
66 68 82 94 93 92 91 91 92 93 92 92 92 92 92 92 92 92 91 90 86 84 79 79 80 80 83 89 91 90 90 89 89 88 84 64 70 82 84 87 88 87 86
66 70 74 95 93 93 91 91 91 92 92 92 92 92 92 92 92 92 91 91 88 86 82 79 80 83 88 93 93 92 93 94 94 86 56 58 61 82 83 84 85 84 84
66 68 74 95 94 93 92 92 92 91 92 92 91 91 92 92 92 92 92 92 89 86 83 80 82 88 93 93 93 93 93 94 92 67 56 62 63 77 82 82 84 85 80
68 67 90 96 95 93 92 92 92 92 93 93 92 91 92 92 92 93 94 92 89 86 84 82 86 92 93 93 93 92 93 94 83 61 58 67 71 80 81 84 88 87 86
74 74 82 96 95 94 93 92 92 93 93 93 93 92 92 92 93 94 94 94 90 88 87 89 90 92 93 92 92 92 92 91 63 63 62 62 67 81 82 84 87 86 85
80 82 82 93 96 94 94 94 94 94 94 94 94 94 93 94 94 94 94 94 93 92 92 91 91 92 92 92 91 92 92 86 67 65 66 63 78 81 79 82 86 86 85
81 83 85 83 86 97 97 97 96 94 94 94 94 95 95 95 94 93 94 94 95 94 92 91 91 92 93 92 91 93 92 88 63 60 62 58 86 82 80 81 83 84 84
81 81 84 86 84 84 88 98 96 95 95 95 95 95 95 94 94 93 93 94 94 93 91 90 91 92 94 94 92 92 93 90 59 63 60 56 86 80 79 80 82 83 83
88 81 80 81 81 83 84 89 96 96 95 96 93 95 94 73 75 80 84 94 93 92 91 91 92 94 96 94 93 94 91 52 62 60 58 87 86 77 79 82 84 84 84
84 83 76 78 76 76 73 84 85 80 74 75 77 79 76 77 74 71 82 94 94 93 93 93 94 95 90 71 72 86 60 62 62 64 59 91 86 76 80 81 85 84 83
67 73 77 79 78 73 72 79 84 80 79 78 81 80 78 77 80 74 80 74 78 88 68 72 74 63 73 73 72 73 70 67 61 61 67 92 88 77 78 85 86 83 83
61 70 73 72 76 80 71 74 77 82 82 83 82 87 85 79 83 81 72 75 76 69 71 69 72 69 73 84 74 74 73 69 63 62 65 93 90 83 76 82 82 82 82
56 66 76 74 76 78 79 75 76 83 84 83 85 90 88 81 84 85 77 74 73 71 70 75 68 69 71 74 73 72 70 71 72 65 65 91 94 89 82 80 79 81 81
50 58 74 77 78 76 78 78 76 79 84 84 84 89 90 81 82 86 86 77 79 77 73 70 73 68 70 71 75 73 70 67 69 72 67 64 95 94 93 82 80 80 80
50 50 74 80 81 81 78 76 75 78 77 82 82 87 91 86 84 86 85 86 77 86 82 79 79 77 77 74 74 74 72 72 69 68 69 68 67 97 97 91 83 84 82
47 53 62 70 81 84 81 77 71 73 76 76 77 78 90 89 83 88 90 87 84 87 85 83 81 81 79 78 79 78 75 74 72 72 67 67 64 64 91 96 94 83 86
39 58 61 72 79 83 82 80 81 82 78 75 76 78 85 87 87 88 90 87 86 84 88 86 88 84 87 86 84 91 91 91 77 70 71 70 69 67 67 90 95 95 93
33 59 64 67 74 80 77 80 78 83 84 82 81 81 82 82 86 89 84 89 82 87 90 88 88 87 84 81 88 94 96 95 88 83 79 78 66 70 67 68 80 90 97
34 61 67 71 72 76 75 77 77 84 80 86 73 78 84 84 86 87 81 82 87 88 90 90 87 91 93 93 96 98 98 94 94 85 68 67 74 74 78 70 76 90 90
28 56 66 70 72 70 65 68 74 78 77 70 77 75 77 80 86 86 85 87 89 90 93 92 89 95 94 95 96 95 96 90 91 91 88 76 75 69 71 74 73 82 84
34 40 61 66 71 73 67 72 75 82 81 86 87 79 80 77 78 81 84 86 89 89 94 95 91 88 96 98 91 83 90 77 78 85 88 76 83 85 82 76 78 78 91
34 40 53 63 67 74 75 78 80 74 76 78 72 88 87 82 81 78 84 87 90 91 93 92 93 90 87 97 97 94 79 73 71 78 82 88 85 84 79 92 88 81 89
70 53 62 75 73 78 79 80 83 82 80 80 87 90 93 95 97 97 98 99 94 95 92 92 94 92 87 86 91 97 93 90 86 82 75 82 81 73 71 76 90 86 90
67 72 75 76 80 83 88 88 86 87 88 93 91 96 94 93 94 93 94 95 97 96 93 94 91 91 90 85 87 88 90 92 92 86 91 82 80 68 71 81 91 94 94

GFSSE_sfc_rhum_132.txt.gz
RH
29 45 94 92 92 92 93 95 94 91 89 89 90 91 91 91 92 92 91 90 87 85 80 79 84 84 82 78 82 86 85 89 89 87 85 83 81 81 81 81 81 55 86
31 49 94 92 91 91 92 95 94 91 89 90 90 91 92 92 92 91 90 90 88 84 77 78 84 84 80 82 86 87 87 88 89 87 85 81 81 78 84 79 80 71 87
36 50 73 92 90 91 92 94 94 92 90 90 91 92 92 92 92 91 91 89 87 84 79 78 80 80 82 87 89 89 89 89 89 87 81 47 48 79 82 86 87 86 86
39 52 58 94 91 90 92 94 94 92 91 91 91 92 92 92 91 90 91 90 88 84 80 78 79 82 87 91 92 92 92 92 88 84 50 42 43 81 82 82 82 82 82
42 48 57 93 92 91 92 94 94 93 92 92 92 91 92 92 91 91 92 91 89 86 82 79 82 88 92 93 93 93 93 90 86 73 36 44 44 70 78 79 82 83 80
43 43 85 94 93 91 91 92 94 94 94 93 92 92 91 92 91 92 93 92 90 87 84 83 87 92 93 93 93 93 92 88 88 36 38 55 47 78 77 83 85 85 82
48 48 74 95 93 90 90 91 93 94 94 94 93 92 92 92 92 93 93 92 91 88 87 89 92 92 92 92 92 93 91 87 41 37 39 44 60 79 80 82 86 87 84
55 57 67 90 94 92 91 92 93 94 94 94 94 94 93 93 94 94 94 93 91 91 92 92 92 92 92 92 91 92 92 88 48 42 42 42 81 82 81 83 87 86 85
58 64 68 71 79 97 95 95 94 94 95 95 95 95 95 96 95 94 94 94 93 93 92 92 92 92 91 91 91 92 91 86 43 39 38 38 83 81 80 80 82 86 84
58 61 64 65 66 69 74 96 94 95 95 95 96 96 97 96 95 95 96 95 94 92 91 91 92 92 91 91 92 93 92 86 39 43 39 54 82 78 78 79 79 83 84
58 58 60 58 59 62 63 74 93 95 95 96 92 96 92 61 68 77 77 96 94 92 91 91 92 93 94 93 91 92 93 37 39 38 38 83 83 74 80 81 84 82 81
57 55 51 58 57 58 50 62 65 62 61 63 65 70 61 59 58 58 74 95 94 92 92 91 93 95 90 52 59 84 45 40 42 40 37 87 84 74 80 81 83 81 81
40 46 49 58 60 56 51 56 51 53 54 57 63 63 58 55 58 56 60 67 65 84 56 67 70 54 52 46 46 50 46 49 40 39 57 88 86 77 77 79 84 83 83
30 43 48 51 60 61 46 54 64 55 52 53 55 67 59 58 61 60 55 56 59 55 52 50 48 49 52 53 52 53 54 48 41 41 53 90 89 82 76 78 79 82 83
21 39 46 53 58 58 59 50 57 58 57 54 56 70 58 55 60 57 56 55 55 56 52 55 48 49 52 54 52 52 52 52 52 43 42 88 91 88 80 78 78 80 82
19 30 44 50 58 56 60 57 61 67 60 57 56 68 74 58 60 58 58 55 65 64 54 50 49 49 48 48 54 52 51 47 50 50 44 48 90 92 89 82 79 82 80
15 26 36 52 58 66 69 57 59 59 68 73 68 74 76 66 63 63 63 56 59 65 61 54 56 53 50 48 50 53 51 53 48 51 48 44 53 93 91 92 86 84 84
12 15 29 40 55 66 67 57 52 51 68 70 67 69 81 76 64 69 67 66 55 76 64 60 59 57 55 53 52 50 51 51 54 55 50 48 46 42 83 93 91 84 84
9 15 21 40 53 64 66 60 56 56 61 60 68 69 76 83 78 70 67 72 63 73 73 66 62 62 60 59 55 54 56 58 60 52 54 54 54 51 46 91 92 92 86
10 12 17 32 53 63 67 71 60 55 62 52 54 58 67 79 82 79 68 77 69 59 70 73 75 65 66 62 56 62 64 61 56 66 56 53 51 58 53 52 63 62 94
17 15 15 26 52 59 65 70 65 71 72 62 54 59 58 75 81 83 71 74 76 59 61 77 76 79 77 69 81 84 81 73 75 66 61 60 55 52 54 54 54 61 63
19 19 17 20 43 52 55 60 59 59 55 57 59 59 61 76 80 82 74 59 64 57 69 81 77 88 86 83 80 80 92 90 88 67 55 56 62 56 57 60 61 65 63
22 23 17 17 34 49 53 53 57 56 50 52 52 52 57 63 74 83 79 61 62 69 75 82 81 79 89 90 71 65 80 63 55 64 72 56 60 68 62 58 68 63 63
20 21 19 18 29 44 54 51 61 55 50 47 50 48 50 59 60 66 68 75 78 85 82 86 85 80 79 88 89 73 60 56 58 61 56 66 55 61 70 74 67 65 70
18 20 21 20 24 40 53 54 57 57 53 47 50 56 67 70 63 69 76 81 91 88 91 95 96 92 83 83 82 84 81 71 73 68 56 63 56 56 54 56 54 61 73
43 39 34 30 27 42 66 63 66 63 58 60 80 83 81 82 88 89 91 92 86 95 90 88 93 95 95 92 84 80 74 75 72 69 72 68 67 55 52 51 56 56 69

GFSSE_sfc_rhum_138.txt.gz
RH
50 73 92 92 92 94 94 93 92 93 92 92 93 93 93 93 93 92 93 90 88 85 82 82 82 81 80 80 84 89 90 89 90 88 84 81 76 76 82 82 79 75 86
50 65 93 92 92 94 94 93 93 92 92 92 92 93 93 93 93 92 92 90 88 84 82 82 84 83 80 84 86 90 90 91 90 89 85 82 82 80 79 83 83 82 86
52 63 76 93 93 94 94 93 92 91 91 93 92 93 94 94 93 92 91 91 88 83 81 82 84 82 81 87 89 90 90 89 88 87 81 69 72 79 80 86 86 84 84
50 64 68 94 93 94 94 93 92 90 92 93 92 93 93 93 93 92 92 91 88 84 82 81 79 82 87 90 90 89 88 87 87 87 75 67 56 81 79 84 84 84 84
49 58 68 94 94 95 95 94 92 91 92 93 93 93 93 93 92 92 92 91 89 85 82 80 83 87 90 91 91 88 87 87 86 78 91 88 64 76 78 83 83 82 80
44 52 92 94 95 95 95 94 93 93 94 94 94 92 92 92 92 92 92 91 89 86 84 85 88 91 91 91 91 88 86 88 92 81 82 73 66 80 76 82 81 81 83
53 74 78 94 95 95 95 95 95 94 95 94 93 94 93 92 93 92 92 92 91 89 90 91 92 92 92 92 90 88 86 88 71 77 87 76 75 81 77 83 84 84 85
72 74 80 90 93 95 96 96 97 96 95 94 94 95 94 94 94 92 92 93 92 92 93 92 91 92 91 91 90 90 86 91 64 64 74 82 85 82 78 83 87 88 87
58 77 84 81 84 96 97 98 97 96 96 95 95 96 95 96 94 93 93 93 93 93 93 91 92 92 91 90 90 89 88 88 77 67 66 82 86 83 80 82 87 88 87
56 74 80 78 76 80 88 97 97 97 97 96 96 96 97 96 95 94 94 94 94 93 92 92 91 91 91 90 90 91 89 88 76 62 78 81 86 80 80 82 84 87 86
56 59 74 70 71 73 72 84 97 97 97 97 96 97 98 87 90 91 89 95 94 93 92 92 91 91 91 90 89 88 90 67 55 74 76 86 82 78 79 82 86 86 84
36 54 58 70 68 69 54 73 84 84 87 87 87 93 86 82 81 72 82 95 94 93 92 92 91 93 92 79 88 90 82 66 69 76 82 86 81 74 77 85 86 85 83
10 16 46 66 70 66 61 65 67 70 78 81 83 86 83 75 78 75 85 89 93 93 86 91 95 84 76 71 72 76 70 65 72 75 80 87 83 76 75 80 84 83 84
11 13 30 51 65 67 57 60 64 64 70 73 75 82 80 76 80 79 81 82 82 83 78 80 80 77 74 71 73 72 70 64 80 81 80 87 85 80 74 78 79 81 83
12 16 24 43 63 64 70 60 63 65 67 68 71 76 75 73 77 81 81 82 74 75 71 74 70 70 69 70 69 66 65 59 66 91 88 90 88 85 80 75 76 77 79
16 17 22 30 68 64 77 68 67 66 65 66 67 72 77 76 78 82 84 78 75 71 66 65 64 65 65 68 65 64 64 63 60 61 80 83 89 88 86 82 78 76 76
15 15 27 31 42 69 66 68 64 65 64 61 62 72 75 76 81 77 82 77 74 73 77 71 70 75 69 62 65 66 66 65 64 60 66 70 80 90 89 89 86 83 82
15 17 22 17 28 62 66 66 58 61 61 63 58 65 74 72 75 77 76 80 78 79 76 77 80 75 73 65 66 67 73 65 61 66 63 66 67 68 89 90 89 89 86
34 32 24 34 36 37 68 65 74 64 65 58 59 60 73 72 72 76 75 78 84 81 81 80 75 77 79 80 72 66 68 66 73 64 66 66 68 69 73 88 90 90 90
40 43 36 26 36 44 38 74 69 75 60 61 61 54 69 72 72 77 73 78 78 80 82 76 81 83 79 77 56 65 73 76 72 70 74 64 66 67 69 72 82 83 91
50 51 52 56 48 32 30 71 77 70 75 75 60 67 71 78 78 76 76 79 74 76 78 82 84 85 84 81 78 84 82 78 77 72 66 68 71 70 71 75 79 79 84
59 57 54 53 58 33 22 26 72 76 77 75 66 67 67 76 79 78 79 72 75 75 82 83 84 92 89 85 90 92 94 92 90 80 77 75 76 74 70 70 75 76 79
61 62 56 58 57 44 29 25 40 74 78 80 76 66 68 77 80 77 79 79 81 77 82 88 82 83 87 93 86 88 91 91 89 84 82 79 76 81 67 71 71 73 79
61 66 64 63 62 56 32 27 42 59 75 66 74 62 65 67 81 80 80 78 83 79 79 84 84 85 88 89 92 86 90 93 92 91 91 84 75 78 81 77 74 77 75
58 69 69 70 66 66 74 38 34 52 71 73 76 72 66 68 81 82 82 79 80 83 80 88 91 92 90 90 93 96 94 90 89 94 93 93 86 78 78 79 76 78 78
61 72 76 73 72 72 76 79 63 52 60 76 74 78 74 72 85 85 85 81 79 83 88 92 91 92 91 90 91 92 88 95 94 97 94 87 92 89 71 75 75 74 76

GFSSE_sfc_rhum_141.txt.gz
RH
78 93 94 93 93 94 92 92 93 93 92 93 92 92 92 92 93 92 92 91 90 86 81 81 85 84 83 82 86 87 87 88 88 87 84 80 77 77 83 86 84 76 86
76 87 94 94 93 94 93 92 93 92 93 93 92 92 92 92 93 93 92 90 89 85 80 82 86 85 83 85 89 88 89 90 88 86 85 83 81 78 80 87 88 85 88
74 84 88 94 94 94 93 93 92 91 92 92 92 92 92 92 93 92 92 91 89 86 81 82 83 81 82 88 90 90 90 90 89 88 86 80 84 81 80 87 88 87 88
69 84 88 95 95 95 94 93 92 91 92 92 92 93 93 93 92 92 92 91 88 86 83 81 81 82 88 90 90 89 88 88 89 88 89 78 70 82 79 84 85 86 86
70 72 85 95 96 96 95 94 93 93 93 92 92 93 93 93 92 92 93 92 89 87 84 80 84 88 90 90 89 88 88 88 86 81 87 86 82 78 79 84 86 85 83
68 73 94 96 96 96 95 94 94 94 95 94 93 93 93 93 93 92 93 92 90 88 87 86 88 90 91 91 89 87 86 84 85 85 86 85 83 78 77 83 84 85 82
82 86 89 95 96 96 95 95 95 95 95 94 94 94 94 94 94 92 93 92 91 90 92 92 91 91 91 90 89 86 86 85 81 93 84 92 86 82 77 84 86 85 85
84 89 90 93 95 96 96 96 96 96 96 95 95 94 94 95 94 93 93 93 92 94 94 92 92 91 91 90 89 86 89 89 71 91 92 92 86 82 79 83 86 87 86
87 88 94 94 93 96 98 98 98 97 96 96 96 95 95 96 95 94 94 94 94 94 93 92 92 92 90 89 89 88 89 90 78 90 77 92 87 82 79 82 87 88 87
92 94 93 94 96 98 99 99 99 98 97 96 96 96 96 96 95 94 95 94 95 94 92 92 92 91 91 89 88 91 90 87 80 81 89 82 84 81 80 82 85 87 86
78 94 94 90 90 95 97 96 98 98 98 97 96 97 99 97 96 95 96 96 95 94 92 92 92 92 91 89 88 87 89 79 79 88 85 89 85 79 80 85 88 87 86
32 85 91 85 84 84 71 95 99 97 98 98 97 96 98 98 97 91 94 96 96 94 93 93 92 94 94 93 92 88 87 78 82 82 90 90 86 80 80 86 88 86 84
13 19 62 85 85 77 69 89 95 97 99 98 97 98 97 92 95 94 98 95 99 95 97 96 97 97 91 90 90 90 83 77 84 89 83 88 86 78 79 81 86 85 85
14 15 25 54 86 80 70 78 83 87 94 95 94 97 97 94 94 94 95 99 98 97 97 98 99 96 91 84 84 84 78 80 93 86 87 92 87 82 79 80 80 82 85
29 23 20 32 53 88 83 77 75 77 85 88 89 93 90 88 93 88 94 96 95 95 91 94 96 89 89 85 83 75 71 70 81 92 87 92 90 86 81 78 78 78 80
38 40 43 41 32 59 85 81 86 76 76 80 82 86 89 84 85 88 94 92 90 89 84 85 85 85 82 83 80 68 68 66 74 86 80 90 91 89 85 83 80 79 78
43 45 48 48 44 52 85 81 86 88 86 75 76 81 85 83 89 82 92 88 86 86 80 81 81 81 85 80 75 69 71 68 60 70 75 78 84 94 92 87 84 82 82
47 51 51 48 52 56 64 82 80 92 89 88 72 77 81 80 86 83 84 88 89 86 77 86 75 90 77 76 80 73 71 74 68 67 72 71 74 74 88 92 90 87 86
48 52 56 55 56 56 62 70 82 75 91 82 88 82 80 78 84 81 80 84 91 86 84 78 81 84 90 84 78 77 74 71 70 64 67 71 72 71 74 89 92 91 90
48 51 56 58 59 59 61 69 70 93 82 86 88 79 83 78 78 84 80 85 87 86 86 87 88 92 87 78 67 74 76 76 74 73 71 72 78 76 76 76 85 86 93
49 52 59 64 65 64 64 69 74 58 83 83 78 74 72 80 80 81 80 87 81 83 84 87 91 91 92 87 81 91 87 80 78 76 73 79 78 80 83 79 76 78 82
54 55 59 65 66 66 66 65 72 66 87 81 79 72 77 71 83 75 79 82 83 84 88 89 80 95 94 96 93 94 92 91 90 86 88 86 84 79 76 82 85 82 80
61 60 61 66 70 69 66 69 75 80 85 87 85 81 73 73 72 81 74 81 82 79 84 87 84 76 90 96 91 91 97 96 95 95 90 89 86 88 78 78 82 82 86
66 64 67 65 69 66 70 77 85 91 72 45 62 68 68 65 71 83 78 80 81 79 81 88 84 82 84 87 97 91 91 92 94 95 96 89 89 85 86 88 82 83 82
68 66 66 67 72 72 72 74 82 89 89 81 83 84 79 75 78 77 83 82 84 79 82 89 90 89 88 87 84 97 94 97 96 95 96 97 97 92 90 89 94 90 81
72 74 70 71 73 75 76 76 81 84 89 92 85 82 82 79 76 72 82 79 86 84 86 91 91 88 88 85 86 87 85 88 93 95 98 95 95 96 94 96 95 94 90

GFSSE_sfc_rhum_147.txt.gz
RH
91 97 95 93 93 94 93 92 91 90 91 91 90 89 90 92 93 93 92 91 89 84 78 82 84 81 78 79 85 88 90 91 89 86 83 79 79 80 82 87 86 84 83
91 97 96 94 92 93 92 92 92 91 90 91 91 90 90 91 92 92 92 91 88 82 79 84 83 80 79 84 89 90 92 92 90 88 86 83 80 80 81 87 86 84 82
90 95 95 96 93 93 92 92 93 90 89 90 91 92 91 91 91 92 92 91 88 84 82 83 82 80 81 88 89 90 90 90 91 90 89 93 91 83 82 88 86 83 83
90 96 97 96 94 93 93 92 93 92 89 90 91 92 92 92 92 92 93 93 90 87 83 81 80 81 86 89 90 89 91 90 87 88 93 90 81 81 82 82 84 82 81
91 93 95 97 96 93 93 93 93 94 92 91 91 91 92 92 92 92 92 93 92 89 83 81 81 86 91 92 91 91 90 86 87 84 92 94 92 80 80 82 84 85 84
89 89 97 98 96 95 94 93 93 94 93 92 92 92 92 92 92 92 92 92 92 89 86 84 86 90 91 92 91 91 88 87 83 90 93 91 92 80 80 85 87 86 88
91 93 95 98 97 95 95 94 94 94 94 93 93 93 93 93 93 93 93 92 93 92 92 91 91 91 91 91 90 89 90 84 79 93 94 95 94 81 80 82 87 88 86
92 94 94 96 98 97 96 96 96 96 95 94 94 94 94 94 94 94 93 93 94 95 94 92 91 91 91 91 89 91 90 90 82 90 94 96 90 81 78 82 89 90 91
95 96 96 96 96 98 98 98 98 98 97 96 95 96 96 96 95 94 94 94 95 95 93 92 92 91 91 91 90 91 90 90 94 92 87 97 90 83 80 82 87 91 92
52 60 76 97 97 98 97 100 98 97 97 97 97 97 98 98 96 95 96 95 96 95 93 92 92 92 92 91 91 92 90 88 93 88 94 97 88 82 80 82 85 88 91
48 48 48 52 57 83 94 95 99 99 98 98 98 98 100 99 97 96 97 97 97 96 94 92 93 94 94 92 91 92 87 85 92 96 97 91 88 81 82 84 89 90 89
51 50 47 54 64 60 67 93 97 92 93 96 97 99 98 99 98 96 98 98 98 97 95 94 94 94 96 97 97 91 87 89 93 95 98 91 89 80 82 86 90 89 88
49 48 49 55 60 65 68 73 98 97 95 94 90 91 91 92 99 98 98 99 98 98 99 97 98 98 97 98 97 97 88 88 96 96 91 93 89 83 81 86 86 84 87
50 50 51 55 62 62 70 83 89 76 92 96 89 90 92 94 92 94 91 91 90 94 99 98 99 98 97 96 94 94 90 88 98 96 96 93 91 83 81 82 84 82 86
51 50 54 53 59 61 68 80 83 84 86 85 92 91 94 96 94 89 90 87 86 88 96 99 98 98 97 96 95 92 89 86 92 96 93 93 93 89 85 79 82 81 81
51 52 53 53 57 60 66 72 76 88 90 87 88 91 90 96 92 95 92 89 85 86 91 98 98 97 96 95 93 94 88 86 88 91 82 82 92 91 88 85 81 80 79
55 52 55 53 57 59 67 68 72 81 82 90 89 83 92 85 86 94 95 89 85 84 90 98 98 98 98 95 93 90 91 84 79 81 87 83 85 93 91 88 86 85 83
58 58 56 54 61 64 66 71 68 73 82 87 89 88 88 90 87 92 93 93 86 86 90 95 96 98 95 94 89 90 86 89 81 82 78 79 83 79 92 91 90 88 87
61 60 61 61 64 66 66 72 74 74 76 80 85 87 80 85 88 84 92 90 91 90 90 91 94 92 93 92 87 85 86 87 82 76 80 82 81 80 86 93 94 93 90
63 62 62 64 66 67 68 70 73 74 72 74 82 85 81 79 81 86 86 92 90 90 91 93 91 92 85 85 82 78 87 85 85 77 80 79 84 85 87 88 91 91 93
65 68 68 70 69 70 71 74 73 75 71 73 75 79 83 84 79 88 89 88 91 92 89 88 94 94 92 90 98 97 97 91 87 73 74 81 83 84 86 85 86 88 90
70 73 72 71 67 69 70 69 70 72 74 69 72 78 78 82 84 83 87 87 86 91 88 90 94 94 94 93 88 96 98 94 97 86 71 76 85 82 86 83 84 88 88
74 77 71 69 67 65 66 69 70 71 74 76 73 71 75 79 84 86 80 87 85 91 97 91 93 92 95 94 82 88 98 93 96 96 94 87 82 87 81 84 85 85 87
75 73 71 68 69 64 66 72 78 79 86 83 81 76 69 70 80 85 84 84 87 85 89 94 92 92 91 94 96 81 89 92 94 94 97 93 94 86 86 94 92 90 87
73 76 70 67 67 68 70 73 81 83 84 84 85 84 80 75 78 82 86 86 91 88 84 94 96 95 93 88 91 90 94 96 92 95 96 96 99 92 92 91 92 93 92
68 70 69 69 69 68 71 74 77 84 92 92 90 90 86 85 79 81 86 87 90 92 92 88 92 94 96 90 88 88 84 80 90 96 96 98 94 98 94 95 96 94 94

GFSSE_sfc_rhum_150.txt.gz
RH
82 92 93 92 92 93 92 93 94 92 90 90 92 93 92 92 92 92 92 91 88 84 79 82 83 83 79 82 86 91 91 90 90 86 83 79 79 80 82 88 85 74 80
88 96 95 93 92 93 92 92 92 93 90 90 90 92 93 94 94 93 92 91 87 81 80 82 81 80 80 84 90 92 91 90 90 89 87 81 80 79 82 86 86 81 81
99 97 96 94 92 93 92 93 92 91 91 90 89 90 91 92 92 92 92 90 87 83 81 82 80 80 82 88 92 92 92 91 91 90 89 89 86 80 81 86 86 84 81
94 97 97 96 93 92 92 92 92 90 91 91 90 90 90 91 92 92 92 92 89 86 82 80 78 80 86 91 90 91 92 90 90 90 92 89 80 81 80 81 84 83 83
95 95 96 97 96 93 92 92 94 92 91 92 93 92 91 91 92 92 93 93 92 88 82 79 80 86 90 91 90 91 89 88 89 87 93 92 89 81 79 81 84 84 85
92 93 97 98 96 95 93 92 93 93 91 92 93 93 92 91 92 93 93 94 93 90 86 83 86 90 92 92 91 91 89 88 87 89 93 90 90 80 79 85 87 86 87
93 94 96 98 97 94 94 93 93 93 93 92 92 93 94 93 93 92 92 94 94 92 90 90 91 90 91 92 91 90 90 85 82 90 91 94 92 82 80 82 88 89 88
53 59 78 88 95 97 97 95 96 96 95 94 93 93 94 94 94 93 92 93 94 94 94 92 91 91 91 91 91 92 91 86 80 90 93 94 92 83 79 82 90 88 87
46 47 53 58 61 77 98 99 99 99 97 96 94 95 96 96 95 94 94 93 95 96 94 91 91 91 91 91 90 92 93 91 89 93 88 94 89 84 79 83 86 89 91
45 47 50 53 56 61 74 96 97 99 99 98 97 98 98 98 96 95 95 95 95 95 94 92 91 92 91 92 92 93 92 91 91 87 92 92 90 82 79 82 85 89 92
49 48 51 56 54 62 57 67 93 94 96 99 99 98 100 99 98 96 97 97 96 96 94 92 92 93 94 94 92 92 91 84 90 89 94 91 89 80 80 84 88 90 91
53 52 52 55 57 61 51 72 75 76 95 96 98 98 96 96 99 97 97 98 97 98 96 94 93 95 95 97 97 92 90 86 91 92 93 92 89 80 81 87 91 90 90
52 52 54 55 57 60 59 68 85 73 86 92 97 96 97 94 95 98 96 97 97 98 99 98 98 98 98 98 96 96 92 86 93 93 90 93 88 82 81 86 89 89 90
55 53 54 54 57 59 61 69 85 73 83 89 90 88 99 98 97 94 94 86 88 89 92 99 99 98 98 97 95 94 92 87 96 93 93 93 91 86 81 83 85 85 88
58 56 57 54 59 58 60 68 69 79 85 85 83 82 86 97 97 96 95 95 89 86 89 94 99 99 98 97 96 93 91 87 90 95 93 94 91 89 85 81 83 83 84
58 59 58 56 60 62 65 67 73 82 84 88 89 87 85 90 96 97 96 95 94 87 86 90 92 98 96 97 96 94 89 88 86 93 91 90 93 91 88 84 82 82 81
61 59 62 58 61 65 66 68 72 74 79 85 86 88 88 86 86 89 95 95 94 92 89 89 94 99 99 96 96 94 92 90 85 88 91 83 82 94 91 87 87 85 84
64 64 62 60 65 67 68 69 70 72 77 81 85 87 87 86 86 86 89 94 92 95 94 90 93 92 96 95 92 92 91 91 90 89 88 88 88 77 90 92 90 88 87
67 67 68 68 68 69 70 70 73 72 74 72 79 82 84 83 84 90 90 87 93 97 95 95 95 92 92 95 91 88 91 90 89 86 88 87 85 85 84 89 93 92 92
68 68 68 68 68 68 70 71 72 72 71 71 72 76 79 82 83 87 89 89 91 96 97 96 95 94 91 91 86 82 87 87 87 90 87 84 83 85 87 87 87 85 94
69 71 69 70 71 70 72 76 77 77 73 72 71 72 75 76 81 86 90 90 88 93 94 95 90 92 98 95 98 96 96 95 94 92 86 86 86 85 86 87 85 83 85
72 73 71 70 67 65 66 66 71 74 71 68 67 74 75 77 76 74 80 89 89 88 93 92 93 96 97 96 93 95 93 90 97 91 87 83 86 82 85 85 85 86 84
76 78 73 67 64 65 66 67 70 71 71 74 74 72 74 76 77 73 77 83 91 92 89 92 95 96 96 97 91 89 98 87 85 98 89 82 81 86 81 84 85 84 85
73 75 71 66 65 62 66 72 74 76 81 80 80 76 75 75 78 74 77 83 90 92 93 93 96 94 97 96 98 92 94 91 93 95 97 92 81 84 84 87 89 88 85
73 75 71 68 67 65 67 70 77 81 81 76 83 85 82 78 80 80 76 77 85 91 92 94 96 97 94 92 94 93 93 98 95 90 86 98 97 88 85 88 90 89 86
80 75 69 69 68 68 71 73 77 80 86 85 82 87 86 83 81 80 80 87 88 89 89 93 94 93 95 95 91 95 88 84 93 95 94 93 86 92 91 92 94 93 92